<?xml version="1.0" encoding="UTF-8" standalone="no" ?>
<gpx xmlns="http://www.topografix.com/GPX/1/1" xmlns:xsi="http://www.w3.org/2001/XMLSchema-instance" xsi:schemaLocation="http://www.topografix.com/GPX/1/1 http://www.topografix.com/GPX/1/1/gpx.xsd" version="1.1" creator="VisuGPX - https://www.visugpx.com">
  <metadata>
    <name>Cogolin ASRA 2011</name>
    <desc><![CDATA[Cogolin ASRA 2011]]></desc>
  </metadata>
  <trk>
    <name><![CDATA[Cogolin ASRA 2011]]></name>
    <desc><![CDATA[13 vtt dont 6 BCSL]]></desc>
    <trkseg>
      <trkpt lat="43.26539" lon="6.58248">
        <ele>1</ele>
        <time>2011-06-02T11:59:51.000Z</time>
      </trkpt>
      <trkpt lat="43.26539" lon="6.58248">
        <ele>1</ele>
        <time>2011-06-02T11:59:52.000Z</time>
      </trkpt>
      <trkpt lat="43.26537" lon="6.58257">
        <ele>1</ele>
        <time>2011-06-02T11:59:58.000Z</time>
      </trkpt>
      <trkpt lat="43.26535" lon="6.58262">
        <ele>0.20000000298023</ele>
        <time>2011-06-02T12:00:01.000Z</time>
      </trkpt>
      <trkpt lat="43.26536" lon="6.58272">
        <ele>0.20000000298023</ele>
        <time>2011-06-02T12:00:05.000Z</time>
      </trkpt>
      <trkpt lat="43.26531" lon="6.58282">
        <ele>1</ele>
        <time>2011-06-02T12:00:10.000Z</time>
      </trkpt>
      <trkpt lat="43.26528" lon="6.58287">
        <ele>0.20000000298023</ele>
        <time>2011-06-02T12:00:12.000Z</time>
      </trkpt>
      <trkpt lat="43.26519" lon="6.58302">
        <ele>0.40000000596046</ele>
        <time>2011-06-02T12:00:18.000Z</time>
      </trkpt>
      <trkpt lat="43.265" lon="6.58321">
        <ele>1</ele>
        <time>2011-06-02T12:00:24.000Z</time>
      </trkpt>
      <trkpt lat="43.26487" lon="6.58326">
        <ele>0.80000001192093</ele>
        <time>2011-06-02T12:00:28.000Z</time>
      </trkpt>
      <trkpt lat="43.26476" lon="6.58327">
        <ele>0.60000002384186</ele>
        <time>2011-06-02T12:00:32.000Z</time>
      </trkpt>
      <trkpt lat="43.26456" lon="6.58331">
        <ele>0.60000002384186</ele>
        <time>2011-06-02T12:00:39.000Z</time>
      </trkpt>
      <trkpt lat="43.26436" lon="6.58331">
        <ele>1</ele>
        <time>2011-06-02T12:00:45.000Z</time>
      </trkpt>
      <trkpt lat="43.26418" lon="6.5834">
        <ele>1.2000000476837</ele>
        <time>2011-06-02T12:00:50.000Z</time>
      </trkpt>
      <trkpt lat="43.26404" lon="6.58356">
        <ele>1.3999999761581</ele>
        <time>2011-06-02T12:00:55.000Z</time>
      </trkpt>
      <trkpt lat="43.26384" lon="6.58376">
        <ele>2</ele>
        <time>2011-06-02T12:00:59.000Z</time>
      </trkpt>
      <trkpt lat="43.26368" lon="6.58393">
        <ele>2.4000000953674</ele>
        <time>2011-06-02T12:01:02.000Z</time>
      </trkpt>
      <trkpt lat="43.26353" lon="6.58406">
        <ele>2</ele>
        <time>2011-06-02T12:01:06.000Z</time>
      </trkpt>
      <trkpt lat="43.2634" lon="6.58405">
        <ele>2</ele>
        <time>2011-06-02T12:01:09.000Z</time>
      </trkpt>
      <trkpt lat="43.26335" lon="6.58403">
        <ele>2</ele>
        <time>2011-06-02T12:01:10.000Z</time>
      </trkpt>
      <trkpt lat="43.26321" lon="6.58396">
        <ele>2.2000000476837</ele>
        <time>2011-06-02T12:01:15.000Z</time>
      </trkpt>
      <trkpt lat="43.26304" lon="6.58388">
        <ele>2.4000000953674</ele>
        <time>2011-06-02T12:01:20.000Z</time>
      </trkpt>
      <trkpt lat="43.26285" lon="6.58374">
        <ele>3.4000000953674</ele>
        <time>2011-06-02T12:01:26.000Z</time>
      </trkpt>
      <trkpt lat="43.26278" lon="6.58366">
        <ele>3.4000000953674</ele>
        <time>2011-06-02T12:01:30.000Z</time>
      </trkpt>
      <trkpt lat="43.26278" lon="6.58364">
        <ele>3.4000000953674</ele>
        <time>2011-06-02T12:01:32.000Z</time>
      </trkpt>
      <trkpt lat="43.26277" lon="6.58364">
        <ele>3.5999999046326</ele>
        <time>2011-06-02T12:01:34.000Z</time>
      </trkpt>
      <trkpt lat="43.26269" lon="6.58372">
        <ele>3.7999999523163</ele>
        <time>2011-06-02T12:01:41.000Z</time>
      </trkpt>
      <trkpt lat="43.26268" lon="6.58372">
        <ele>3.7999999523163</ele>
        <time>2011-06-02T12:01:44.000Z</time>
      </trkpt>
      <trkpt lat="43.26265" lon="6.58369">
        <ele>3.5999999046326</ele>
        <time>2011-06-02T12:01:49.000Z</time>
      </trkpt>
      <trkpt lat="43.26261" lon="6.58372">
        <ele>3.5999999046326</ele>
        <time>2011-06-02T12:01:54.000Z</time>
      </trkpt>
      <trkpt lat="43.26253" lon="6.58388">
        <ele>3.4000000953674</ele>
        <time>2011-06-02T12:02:01.000Z</time>
      </trkpt>
      <trkpt lat="43.2625" lon="6.58388">
        <ele>2.7999999523163</ele>
        <time>2011-06-02T12:02:08.000Z</time>
      </trkpt>
      <trkpt lat="43.26243" lon="6.58386">
        <ele>2.7999999523163</ele>
        <time>2011-06-02T12:02:17.000Z</time>
      </trkpt>
      <trkpt lat="43.26223" lon="6.58374">
        <ele>2</ele>
        <time>2011-06-02T12:02:23.000Z</time>
      </trkpt>
      <trkpt lat="43.26204" lon="6.58364">
        <ele>2.2000000476837</ele>
        <time>2011-06-02T12:02:29.000Z</time>
      </trkpt>
      <trkpt lat="43.26183" lon="6.58353">
        <ele>2</ele>
        <time>2011-06-02T12:02:35.000Z</time>
      </trkpt>
      <trkpt lat="43.26176" lon="6.5835">
        <ele>2.2000000476837</ele>
        <time>2011-06-02T12:02:37.000Z</time>
      </trkpt>
      <trkpt lat="43.26167" lon="6.58347">
        <ele>2.2000000476837</ele>
        <time>2011-06-02T12:02:39.000Z</time>
      </trkpt>
      <trkpt lat="43.2615" lon="6.58337">
        <ele>2.5999999046326</ele>
        <time>2011-06-02T12:02:42.000Z</time>
      </trkpt>
      <trkpt lat="43.26116" lon="6.58319">
        <ele>3.4000000953674</ele>
        <time>2011-06-02T12:02:47.000Z</time>
      </trkpt>
      <trkpt lat="43.26103" lon="6.58314">
        <ele>3.2000000476837</ele>
        <time>2011-06-02T12:02:49.000Z</time>
      </trkpt>
      <trkpt lat="43.26062" lon="6.58291">
        <ele>3</ele>
        <time>2011-06-02T12:02:57.000Z</time>
      </trkpt>
      <trkpt lat="43.2603" lon="6.58273">
        <ele>3.2000000476837</ele>
        <time>2011-06-02T12:03:04.000Z</time>
      </trkpt>
      <trkpt lat="43.26006" lon="6.5826">
        <ele>2.7999999523163</ele>
        <time>2011-06-02T12:03:10.000Z</time>
      </trkpt>
      <trkpt lat="43.26002" lon="6.58259">
        <ele>2.7999999523163</ele>
        <time>2011-06-02T12:03:11.000Z</time>
      </trkpt>
      <trkpt lat="43.25988" lon="6.58246">
        <ele>3</ele>
        <time>2011-06-02T12:03:15.000Z</time>
      </trkpt>
      <trkpt lat="43.25963" lon="6.58202">
        <ele>3.2000000476837</ele>
        <time>2011-06-02T12:03:25.000Z</time>
      </trkpt>
      <trkpt lat="43.25939" lon="6.58179">
        <ele>3</ele>
        <time>2011-06-02T12:03:32.000Z</time>
      </trkpt>
      <trkpt lat="43.25908" lon="6.58163">
        <ele>3</ele>
        <time>2011-06-02T12:03:40.000Z</time>
      </trkpt>
      <trkpt lat="43.25893" lon="6.58152">
        <ele>3.2000000476837</ele>
        <time>2011-06-02T12:03:44.000Z</time>
      </trkpt>
      <trkpt lat="43.25876" lon="6.5815">
        <ele>3.2000000476837</ele>
        <time>2011-06-02T12:03:48.000Z</time>
      </trkpt>
      <trkpt lat="43.25867" lon="6.58165">
        <ele>3.2000000476837</ele>
        <time>2011-06-02T12:03:51.000Z</time>
      </trkpt>
      <trkpt lat="43.25856" lon="6.58197">
        <ele>2.5999999046326</ele>
        <time>2011-06-02T12:03:56.000Z</time>
      </trkpt>
      <trkpt lat="43.25842" lon="6.5821">
        <ele>2.4000000953674</ele>
        <time>2011-06-02T12:04:00.000Z</time>
      </trkpt>
      <trkpt lat="43.25833" lon="6.58207">
        <ele>2.4000000953674</ele>
        <time>2011-06-02T12:04:02.000Z</time>
      </trkpt>
      <trkpt lat="43.25791" lon="6.5818">
        <ele>2.5999999046326</ele>
        <time>2011-06-02T12:04:12.000Z</time>
      </trkpt>
      <trkpt lat="43.25779" lon="6.5817">
        <ele>2.5999999046326</ele>
        <time>2011-06-02T12:04:15.000Z</time>
      </trkpt>
      <trkpt lat="43.25757" lon="6.58166">
        <ele>2.7999999523163</ele>
        <time>2011-06-02T12:04:20.000Z</time>
      </trkpt>
      <trkpt lat="43.25732" lon="6.58177">
        <ele>3</ele>
        <time>2011-06-02T12:04:26.000Z</time>
      </trkpt>
      <trkpt lat="43.2572" lon="6.5819">
        <ele>2.7999999523163</ele>
        <time>2011-06-02T12:04:30.000Z</time>
      </trkpt>
      <trkpt lat="43.25707" lon="6.58203">
        <ele>2.4000000953674</ele>
        <time>2011-06-02T12:04:36.000Z</time>
      </trkpt>
      <trkpt lat="43.25697" lon="6.58213">
        <ele>2.2000000476837</ele>
        <time>2011-06-02T12:04:43.000Z</time>
      </trkpt>
      <trkpt lat="43.25684" lon="6.58227">
        <ele>2.2000000476837</ele>
        <time>2011-06-02T12:04:50.000Z</time>
      </trkpt>
      <trkpt lat="43.25665" lon="6.58243">
        <ele>2.2000000476837</ele>
        <time>2011-06-02T12:04:58.000Z</time>
      </trkpt>
      <trkpt lat="43.25649" lon="6.58256">
        <ele>2.5999999046326</ele>
        <time>2011-06-02T12:05:03.000Z</time>
      </trkpt>
      <trkpt lat="43.25616" lon="6.58283">
        <ele>2.7999999523163</ele>
        <time>2011-06-02T12:05:13.000Z</time>
      </trkpt>
      <trkpt lat="43.25577" lon="6.58314">
        <ele>2.7999999523163</ele>
        <time>2011-06-02T12:05:24.000Z</time>
      </trkpt>
      <trkpt lat="43.25548" lon="6.58347">
        <ele>3</ele>
        <time>2011-06-02T12:05:33.000Z</time>
      </trkpt>
      <trkpt lat="43.25522" lon="6.58391">
        <ele>2.7999999523163</ele>
        <time>2011-06-02T12:05:43.000Z</time>
      </trkpt>
      <trkpt lat="43.25493" lon="6.58438">
        <ele>2.5999999046326</ele>
        <time>2011-06-02T12:05:53.000Z</time>
      </trkpt>
      <trkpt lat="43.25485" lon="6.58449">
        <ele>2.4000000953674</ele>
        <time>2011-06-02T12:05:56.000Z</time>
      </trkpt>
      <trkpt lat="43.25478" lon="6.58453">
        <ele>2</ele>
        <time>2011-06-02T12:06:03.000Z</time>
      </trkpt>
      <trkpt lat="43.25472" lon="6.58461">
        <ele>1.3999999761581</ele>
        <time>2011-06-02T12:06:06.000Z</time>
      </trkpt>
      <trkpt lat="43.25461" lon="6.58473">
        <ele>2.4000000953674</ele>
        <time>2011-06-02T12:06:11.000Z</time>
      </trkpt>
      <trkpt lat="43.25455" lon="6.58479">
        <ele>2.4000000953674</ele>
        <time>2011-06-02T12:06:13.000Z</time>
      </trkpt>
      <trkpt lat="43.25443" lon="6.58504">
        <ele>2.7999999523163</ele>
        <time>2011-06-02T12:06:18.000Z</time>
      </trkpt>
      <trkpt lat="43.25436" lon="6.5852">
        <ele>3.5999999046326</ele>
        <time>2011-06-02T12:06:23.000Z</time>
      </trkpt>
      <trkpt lat="43.25432" lon="6.58531">
        <ele>4.4000000953674</ele>
        <time>2011-06-02T12:06:28.000Z</time>
      </trkpt>
      <trkpt lat="43.2543" lon="6.58535">
        <ele>4.4000000953674</ele>
        <time>2011-06-02T12:07:10.000Z</time>
      </trkpt>
      <trkpt lat="43.25433" lon="6.58549">
        <ele>4.5999999046326</ele>
        <time>2011-06-02T12:07:15.000Z</time>
      </trkpt>
      <trkpt lat="43.25437" lon="6.58557">
        <ele>4.4000000953674</ele>
        <time>2011-06-02T12:07:17.000Z</time>
      </trkpt>
      <trkpt lat="43.25468" lon="6.58596">
        <ele>3.4000000953674</ele>
        <time>2011-06-02T12:07:26.000Z</time>
      </trkpt>
      <trkpt lat="43.25491" lon="6.58626">
        <ele>2.5999999046326</ele>
        <time>2011-06-02T12:07:32.000Z</time>
      </trkpt>
      <trkpt lat="43.255" lon="6.58657">
        <ele>2.4000000953674</ele>
        <time>2011-06-02T12:07:37.000Z</time>
      </trkpt>
      <trkpt lat="43.25497" lon="6.58692">
        <ele>2.7999999523163</ele>
        <time>2011-06-02T12:07:42.000Z</time>
      </trkpt>
      <trkpt lat="43.25484" lon="6.5875">
        <ele>2.7999999523163</ele>
        <time>2011-06-02T12:07:50.000Z</time>
      </trkpt>
      <trkpt lat="43.25464" lon="6.58814">
        <ele>3.2000000476837</ele>
        <time>2011-06-02T12:07:59.000Z</time>
      </trkpt>
      <trkpt lat="43.25437" lon="6.58882">
        <ele>3.4000000953674</ele>
        <time>2011-06-02T12:08:09.000Z</time>
      </trkpt>
      <trkpt lat="43.2543" lon="6.58903">
        <ele>3.4000000953674</ele>
        <time>2011-06-02T12:08:12.000Z</time>
      </trkpt>
      <trkpt lat="43.25427" lon="6.58951">
        <ele>3.5999999046326</ele>
        <time>2011-06-02T12:08:18.000Z</time>
      </trkpt>
      <trkpt lat="43.2543" lon="6.59046">
        <ele>3.7999999523163</ele>
        <time>2011-06-02T12:08:30.000Z</time>
      </trkpt>
      <trkpt lat="43.25432" lon="6.59099">
        <ele>4</ele>
        <time>2011-06-02T12:08:37.000Z</time>
      </trkpt>
      <trkpt lat="43.25421" lon="6.59133">
        <ele>4.1999998092651</ele>
        <time>2011-06-02T12:08:42.000Z</time>
      </trkpt>
      <trkpt lat="43.25402" lon="6.59147">
        <ele>4.4000000953674</ele>
        <time>2011-06-02T12:08:46.000Z</time>
      </trkpt>
      <trkpt lat="43.25346" lon="6.59174">
        <ele>5.8000001907349</ele>
        <time>2011-06-02T12:08:57.000Z</time>
      </trkpt>
      <trkpt lat="43.25332" lon="6.59183">
        <ele>5.8000001907349</ele>
        <time>2011-06-02T12:09:00.000Z</time>
      </trkpt>
      <trkpt lat="43.25316" lon="6.59203">
        <ele>5.8000001907349</ele>
        <time>2011-06-02T12:09:05.000Z</time>
      </trkpt>
      <trkpt lat="43.25307" lon="6.59212">
        <ele>5.1999998092651</ele>
        <time>2011-06-02T12:09:09.000Z</time>
      </trkpt>
      <trkpt lat="43.25293" lon="6.59234">
        <ele>6</ele>
        <time>2011-06-02T12:09:13.000Z</time>
      </trkpt>
      <trkpt lat="43.25294" lon="6.59249">
        <ele>6.1999998092651</ele>
        <time>2011-06-02T12:09:15.000Z</time>
      </trkpt>
      <trkpt lat="43.25298" lon="6.59266">
        <ele>6</ele>
        <time>2011-06-02T12:09:17.000Z</time>
      </trkpt>
      <trkpt lat="43.25296" lon="6.59303">
        <ele>6.4000000953674</ele>
        <time>2011-06-02T12:09:21.000Z</time>
      </trkpt>
      <trkpt lat="43.25286" lon="6.59353">
        <ele>6.4000000953674</ele>
        <time>2011-06-02T12:09:27.000Z</time>
      </trkpt>
      <trkpt lat="43.25274" lon="6.59406">
        <ele>6.4000000953674</ele>
        <time>2011-06-02T12:09:34.000Z</time>
      </trkpt>
      <trkpt lat="43.25272" lon="6.59426">
        <ele>6.4000000953674</ele>
        <time>2011-06-02T12:09:37.000Z</time>
      </trkpt>
      <trkpt lat="43.25278" lon="6.59455">
        <ele>6.4000000953674</ele>
        <time>2011-06-02T12:09:42.000Z</time>
      </trkpt>
      <trkpt lat="43.25285" lon="6.5947">
        <ele>6.5999999046326</ele>
        <time>2011-06-02T12:09:45.000Z</time>
      </trkpt>
      <trkpt lat="43.25294" lon="6.59507">
        <ele>6.8000001907349</ele>
        <time>2011-06-02T12:09:51.000Z</time>
      </trkpt>
      <trkpt lat="43.25293" lon="6.59534">
        <ele>7.1999998092651</ele>
        <time>2011-06-02T12:09:55.000Z</time>
      </trkpt>
      <trkpt lat="43.25279" lon="6.59587">
        <ele>7.4000000953674</ele>
        <time>2011-06-02T12:10:03.000Z</time>
      </trkpt>
      <trkpt lat="43.25257" lon="6.59634">
        <ele>8</ele>
        <time>2011-06-02T12:10:11.000Z</time>
      </trkpt>
      <trkpt lat="43.25228" lon="6.59699">
        <ele>9</ele>
        <time>2011-06-02T12:10:22.000Z</time>
      </trkpt>
      <trkpt lat="43.25203" lon="6.59759">
        <ele>9.8000001907349</ele>
        <time>2011-06-02T12:10:32.000Z</time>
      </trkpt>
      <trkpt lat="43.2519" lon="6.59803">
        <ele>10.39999961853</ele>
        <time>2011-06-02T12:10:39.000Z</time>
      </trkpt>
      <trkpt lat="43.25189" lon="6.59816">
        <ele>10.39999961853</ele>
        <time>2011-06-02T12:10:41.000Z</time>
      </trkpt>
      <trkpt lat="43.25195" lon="6.59841">
        <ele>10.60000038147</ele>
        <time>2011-06-02T12:10:45.000Z</time>
      </trkpt>
      <trkpt lat="43.25212" lon="6.59874">
        <ele>10.800000190735</ele>
        <time>2011-06-02T12:10:51.000Z</time>
      </trkpt>
      <trkpt lat="43.25223" lon="6.59896">
        <ele>11.60000038147</ele>
        <time>2011-06-02T12:10:55.000Z</time>
      </trkpt>
      <trkpt lat="43.25241" lon="6.59915">
        <ele>12.39999961853</ele>
        <time>2011-06-02T12:11:01.000Z</time>
      </trkpt>
      <trkpt lat="43.25263" lon="6.59914">
        <ele>13.39999961853</ele>
        <time>2011-06-02T12:11:07.000Z</time>
      </trkpt>
      <trkpt lat="43.25301" lon="6.59915">
        <ele>14.60000038147</ele>
        <time>2011-06-02T12:11:18.000Z</time>
      </trkpt>
      <trkpt lat="43.2533" lon="6.59919">
        <ele>15.60000038147</ele>
        <time>2011-06-02T12:11:27.000Z</time>
      </trkpt>
      <trkpt lat="43.25363" lon="6.59921">
        <ele>16.200000762939</ele>
        <time>2011-06-02T12:11:37.000Z</time>
      </trkpt>
      <trkpt lat="43.25386" lon="6.59922">
        <ele>17.39999961853</ele>
        <time>2011-06-02T12:11:46.000Z</time>
      </trkpt>
      <trkpt lat="43.25406" lon="6.59923">
        <ele>19.39999961853</ele>
        <time>2011-06-02T12:11:55.000Z</time>
      </trkpt>
      <trkpt lat="43.25428" lon="6.59924">
        <ele>21</ele>
        <time>2011-06-02T12:12:04.000Z</time>
      </trkpt>
      <trkpt lat="43.25449" lon="6.59924">
        <ele>21.60000038147</ele>
        <time>2011-06-02T12:12:13.000Z</time>
      </trkpt>
      <trkpt lat="43.25451" lon="6.59924">
        <ele>21.60000038147</ele>
        <time>2011-06-02T12:12:14.000Z</time>
      </trkpt>
      <trkpt lat="43.25455" lon="6.5993">
        <ele>21.799999237061</ele>
        <time>2011-06-02T12:12:18.000Z</time>
      </trkpt>
      <trkpt lat="43.25457" lon="6.59947">
        <ele>23.200000762939</ele>
        <time>2011-06-02T12:12:24.000Z</time>
      </trkpt>
      <trkpt lat="43.25459" lon="6.59961">
        <ele>23.60000038147</ele>
        <time>2011-06-02T12:12:29.000Z</time>
      </trkpt>
      <trkpt lat="43.25465" lon="6.59964">
        <ele>24.200000762939</ele>
        <time>2011-06-02T12:12:34.000Z</time>
      </trkpt>
      <trkpt lat="43.25475" lon="6.59962">
        <ele>24.200000762939</ele>
        <time>2011-06-02T12:12:39.000Z</time>
      </trkpt>
      <trkpt lat="43.25481" lon="6.59959">
        <ele>24.39999961853</ele>
        <time>2011-06-02T12:12:43.000Z</time>
      </trkpt>
      <trkpt lat="43.25483" lon="6.5996">
        <ele>24.60000038147</ele>
        <time>2011-06-02T12:12:44.000Z</time>
      </trkpt>
      <trkpt lat="43.25505" lon="6.59967">
        <ele>26</ele>
        <time>2011-06-02T12:12:51.000Z</time>
      </trkpt>
      <trkpt lat="43.25527" lon="6.59966">
        <ele>27.39999961853</ele>
        <time>2011-06-02T12:12:57.000Z</time>
      </trkpt>
      <trkpt lat="43.25549" lon="6.59965">
        <ele>29.200000762939</ele>
        <time>2011-06-02T12:13:03.000Z</time>
      </trkpt>
      <trkpt lat="43.25569" lon="6.59972">
        <ele>29.39999961853</ele>
        <time>2011-06-02T12:13:08.000Z</time>
      </trkpt>
      <trkpt lat="43.25591" lon="6.5998">
        <ele>30</ele>
        <time>2011-06-02T12:13:14.000Z</time>
      </trkpt>
      <trkpt lat="43.25613" lon="6.59992">
        <ele>30</ele>
        <time>2011-06-02T12:13:21.000Z</time>
      </trkpt>
      <trkpt lat="43.25638" lon="6.60007">
        <ele>30.799999237061</ele>
        <time>2011-06-02T12:13:27.000Z</time>
      </trkpt>
      <trkpt lat="43.25669" lon="6.60018">
        <ele>31.799999237061</ele>
        <time>2011-06-02T12:13:33.000Z</time>
      </trkpt>
      <trkpt lat="43.25683" lon="6.60039">
        <ele>32.200000762939</ele>
        <time>2011-06-02T12:13:37.000Z</time>
      </trkpt>
      <trkpt lat="43.2568" lon="6.60052">
        <ele>33.200000762939</ele>
        <time>2011-06-02T12:13:40.000Z</time>
      </trkpt>
      <trkpt lat="43.25678" lon="6.60056">
        <ele>33.599998474121</ele>
        <time>2011-06-02T12:13:41.000Z</time>
      </trkpt>
      <trkpt lat="43.25659" lon="6.60091">
        <ele>35.799999237061</ele>
        <time>2011-06-02T12:13:50.000Z</time>
      </trkpt>
      <trkpt lat="43.25646" lon="6.60104">
        <ele>36.799999237061</ele>
        <time>2011-06-02T12:13:54.000Z</time>
      </trkpt>
      <trkpt lat="43.2562" lon="6.60116">
        <ele>39.200000762939</ele>
        <time>2011-06-02T12:14:01.000Z</time>
      </trkpt>
      <trkpt lat="43.25605" lon="6.60132">
        <ele>40.799999237061</ele>
        <time>2011-06-02T12:14:06.000Z</time>
      </trkpt>
      <trkpt lat="43.25592" lon="6.60156">
        <ele>43.400001525879</ele>
        <time>2011-06-02T12:14:12.000Z</time>
      </trkpt>
      <trkpt lat="43.25578" lon="6.60177">
        <ele>45.799999237061</ele>
        <time>2011-06-02T12:14:18.000Z</time>
      </trkpt>
      <trkpt lat="43.2556" lon="6.60194">
        <ele>47.599998474121</ele>
        <time>2011-06-02T12:14:24.000Z</time>
      </trkpt>
      <trkpt lat="43.25547" lon="6.60212">
        <ele>49.400001525879</ele>
        <time>2011-06-02T12:14:29.000Z</time>
      </trkpt>
      <trkpt lat="43.25556" lon="6.60224">
        <ele>50.599998474121</ele>
        <time>2011-06-02T12:14:33.000Z</time>
      </trkpt>
      <trkpt lat="43.2558" lon="6.60225">
        <ele>53.200000762939</ele>
        <time>2011-06-02T12:14:40.000Z</time>
      </trkpt>
      <trkpt lat="43.25603" lon="6.60225">
        <ele>55.200000762939</ele>
        <time>2011-06-02T12:14:47.000Z</time>
      </trkpt>
      <trkpt lat="43.25627" lon="6.60226">
        <ele>57.400001525879</ele>
        <time>2011-06-02T12:14:54.000Z</time>
      </trkpt>
      <trkpt lat="43.25656" lon="6.60236">
        <ele>58.799999237061</ele>
        <time>2011-06-02T12:15:02.000Z</time>
      </trkpt>
      <trkpt lat="43.25677" lon="6.60242">
        <ele>61</ele>
        <time>2011-06-02T12:15:09.000Z</time>
      </trkpt>
      <trkpt lat="43.25701" lon="6.60249">
        <ele>63.200000762939</ele>
        <time>2011-06-02T12:15:16.000Z</time>
      </trkpt>
      <trkpt lat="43.25727" lon="6.60259">
        <ele>65.199996948242</ele>
        <time>2011-06-02T12:15:23.000Z</time>
      </trkpt>
      <trkpt lat="43.25753" lon="6.60274">
        <ele>67.400001525879</ele>
        <time>2011-06-02T12:15:31.000Z</time>
      </trkpt>
      <trkpt lat="43.25773" lon="6.60289">
        <ele>69.199996948242</ele>
        <time>2011-06-02T12:15:38.000Z</time>
      </trkpt>
      <trkpt lat="43.25774" lon="6.60291">
        <ele>69.400001525879</ele>
        <time>2011-06-02T12:15:40.000Z</time>
      </trkpt>
      <trkpt lat="43.25776" lon="6.60294">
        <ele>69.800003051758</ele>
        <time>2011-06-02T12:15:47.000Z</time>
      </trkpt>
      <trkpt lat="43.25781" lon="6.60292">
        <ele>69</ele>
        <time>2011-06-02T12:17:10.000Z</time>
      </trkpt>
      <trkpt lat="43.25772" lon="6.60286">
        <ele>69</ele>
        <time>2011-06-02T12:17:15.000Z</time>
      </trkpt>
      <trkpt lat="43.25768" lon="6.60284">
        <ele>69</ele>
        <time>2011-06-02T12:17:16.000Z</time>
      </trkpt>
      <trkpt lat="43.25739" lon="6.60267">
        <ele>67.800003051758</ele>
        <time>2011-06-02T12:17:22.000Z</time>
      </trkpt>
      <trkpt lat="43.25708" lon="6.60254">
        <ele>66.199996948242</ele>
        <time>2011-06-02T12:17:27.000Z</time>
      </trkpt>
      <trkpt lat="43.25693" lon="6.60251">
        <ele>63.799999237061</ele>
        <time>2011-06-02T12:17:31.000Z</time>
      </trkpt>
      <trkpt lat="43.25688" lon="6.60249">
        <ele>61.799999237061</ele>
        <time>2011-06-02T12:17:35.000Z</time>
      </trkpt>
      <trkpt lat="43.25685" lon="6.6025">
        <ele>61.200000762939</ele>
        <time>2011-06-02T12:17:40.000Z</time>
      </trkpt>
      <trkpt lat="43.25682" lon="6.60249">
        <ele>61</ele>
        <time>2011-06-02T12:17:47.000Z</time>
      </trkpt>
      <trkpt lat="43.25681" lon="6.60244">
        <ele>60.799999237061</ele>
        <time>2011-06-02T12:18:04.000Z</time>
      </trkpt>
      <trkpt lat="43.25684" lon="6.60242">
        <ele>61.200000762939</ele>
        <time>2011-06-02T12:19:05.000Z</time>
      </trkpt>
      <trkpt lat="43.25689" lon="6.60244">
        <ele>61.200000762939</ele>
        <time>2011-06-02T12:19:09.000Z</time>
      </trkpt>
      <trkpt lat="43.25703" lon="6.60247">
        <ele>62.599998474121</ele>
        <time>2011-06-02T12:19:18.000Z</time>
      </trkpt>
      <trkpt lat="43.25718" lon="6.60252">
        <ele>64</ele>
        <time>2011-06-02T12:19:25.000Z</time>
      </trkpt>
      <trkpt lat="43.25738" lon="6.60262">
        <ele>65.400001525879</ele>
        <time>2011-06-02T12:19:33.000Z</time>
      </trkpt>
      <trkpt lat="43.25754" lon="6.60272">
        <ele>66.800003051758</ele>
        <time>2011-06-02T12:19:40.000Z</time>
      </trkpt>
      <trkpt lat="43.25775" lon="6.60287">
        <ele>68.800003051758</ele>
        <time>2011-06-02T12:19:49.000Z</time>
      </trkpt>
      <trkpt lat="43.25791" lon="6.60291">
        <ele>70.199996948242</ele>
        <time>2011-06-02T12:19:56.000Z</time>
      </trkpt>
      <trkpt lat="43.25801" lon="6.60292">
        <ele>71.400001525879</ele>
        <time>2011-06-02T12:20:01.000Z</time>
      </trkpt>
      <trkpt lat="43.25801" lon="6.60301">
        <ele>72.800003051758</ele>
        <time>2011-06-02T12:20:05.000Z</time>
      </trkpt>
      <trkpt lat="43.25797" lon="6.60304">
        <ele>73.199996948242</ele>
        <time>2011-06-02T12:20:07.000Z</time>
      </trkpt>
      <trkpt lat="43.25775" lon="6.60314">
        <ele>76</ele>
        <time>2011-06-02T12:20:18.000Z</time>
      </trkpt>
      <trkpt lat="43.25756" lon="6.60321">
        <ele>77.800003051758</ele>
        <time>2011-06-02T12:20:27.000Z</time>
      </trkpt>
      <trkpt lat="43.25739" lon="6.6033">
        <ele>79.800003051758</ele>
        <time>2011-06-02T12:20:35.000Z</time>
      </trkpt>
      <trkpt lat="43.25726" lon="6.60346">
        <ele>81.400001525879</ele>
        <time>2011-06-02T12:20:42.000Z</time>
      </trkpt>
      <trkpt lat="43.25724" lon="6.60353">
        <ele>81.599998474121</ele>
        <time>2011-06-02T12:20:45.000Z</time>
      </trkpt>
      <trkpt lat="43.25728" lon="6.60365">
        <ele>82.199996948242</ele>
        <time>2011-06-02T12:20:50.000Z</time>
      </trkpt>
      <trkpt lat="43.25743" lon="6.60369">
        <ele>83.800003051758</ele>
        <time>2011-06-02T12:20:57.000Z</time>
      </trkpt>
      <trkpt lat="43.25764" lon="6.60376">
        <ele>86.199996948242</ele>
        <time>2011-06-02T12:21:06.000Z</time>
      </trkpt>
      <trkpt lat="43.25777" lon="6.60389">
        <ele>87.800003051758</ele>
        <time>2011-06-02T12:21:13.000Z</time>
      </trkpt>
      <trkpt lat="43.2579" lon="6.60412">
        <ele>89.199996948242</ele>
        <time>2011-06-02T12:21:22.000Z</time>
      </trkpt>
      <trkpt lat="43.25804" lon="6.60436">
        <ele>90.800003051758</ele>
        <time>2011-06-02T12:21:31.000Z</time>
      </trkpt>
      <trkpt lat="43.25813" lon="6.60455">
        <ele>92.599998474121</ele>
        <time>2011-06-02T12:21:38.000Z</time>
      </trkpt>
      <trkpt lat="43.25821" lon="6.60478">
        <ele>94.800003051758</ele>
        <time>2011-06-02T12:21:47.000Z</time>
      </trkpt>
      <trkpt lat="43.25824" lon="6.60495">
        <ele>96.800003051758</ele>
        <time>2011-06-02T12:21:53.000Z</time>
      </trkpt>
      <trkpt lat="43.25825" lon="6.60523">
        <ele>98.400001525879</ele>
        <time>2011-06-02T12:22:02.000Z</time>
      </trkpt>
      <trkpt lat="43.25817" lon="6.60543">
        <ele>98.599998474121</ele>
        <time>2011-06-02T12:22:08.000Z</time>
      </trkpt>
      <trkpt lat="43.25811" lon="6.60556">
        <ele>98.199996948242</ele>
        <time>2011-06-02T12:22:11.000Z</time>
      </trkpt>
      <trkpt lat="43.25813" lon="6.6058">
        <ele>97.599998474121</ele>
        <time>2011-06-02T12:22:15.000Z</time>
      </trkpt>
      <trkpt lat="43.25812" lon="6.60604">
        <ele>96.800003051758</ele>
        <time>2011-06-02T12:22:18.000Z</time>
      </trkpt>
      <trkpt lat="43.25801" lon="6.60668">
        <ele>95</ele>
        <time>2011-06-02T12:22:25.000Z</time>
      </trkpt>
      <trkpt lat="43.25788" lon="6.60739">
        <ele>93.400001525879</ele>
        <time>2011-06-02T12:22:32.000Z</time>
      </trkpt>
      <trkpt lat="43.25786" lon="6.6075">
        <ele>92.800003051758</ele>
        <time>2011-06-02T12:22:33.000Z</time>
      </trkpt>
      <trkpt lat="43.25777" lon="6.60781">
        <ele>92.199996948242</ele>
        <time>2011-06-02T12:22:37.000Z</time>
      </trkpt>
      <trkpt lat="43.25764" lon="6.60806">
        <ele>94</ele>
        <time>2011-06-02T12:22:44.000Z</time>
      </trkpt>
      <trkpt lat="43.25754" lon="6.60828">
        <ele>95.800003051758</ele>
        <time>2011-06-02T12:22:51.000Z</time>
      </trkpt>
      <trkpt lat="43.25746" lon="6.60843">
        <ele>97.599998474121</ele>
        <time>2011-06-02T12:22:57.000Z</time>
      </trkpt>
      <trkpt lat="43.25738" lon="6.60856">
        <ele>99.400001525879</ele>
        <time>2011-06-02T12:23:03.000Z</time>
      </trkpt>
      <trkpt lat="43.25727" lon="6.60868">
        <ele>101.40000152588</ele>
        <time>2011-06-02T12:23:10.000Z</time>
      </trkpt>
      <trkpt lat="43.25725" lon="6.60888">
        <ele>103.40000152588</ele>
        <time>2011-06-02T12:23:17.000Z</time>
      </trkpt>
      <trkpt lat="43.25726" lon="6.60911">
        <ele>105.19999694824</ele>
        <time>2011-06-02T12:23:25.000Z</time>
      </trkpt>
      <trkpt lat="43.25728" lon="6.6093">
        <ele>107</ele>
        <time>2011-06-02T12:23:32.000Z</time>
      </trkpt>
      <trkpt lat="43.25726" lon="6.60945">
        <ele>108.80000305176</ele>
        <time>2011-06-02T12:23:38.000Z</time>
      </trkpt>
      <trkpt lat="43.25721" lon="6.60961">
        <ele>110</ele>
        <time>2011-06-02T12:23:44.000Z</time>
      </trkpt>
      <trkpt lat="43.25719" lon="6.60974">
        <ele>110.59999847412</ele>
        <time>2011-06-02T12:23:49.000Z</time>
      </trkpt>
      <trkpt lat="43.25713" lon="6.60998">
        <ele>112</ele>
        <time>2011-06-02T12:23:58.000Z</time>
      </trkpt>
      <trkpt lat="43.25711" lon="6.61017">
        <ele>114</ele>
        <time>2011-06-02T12:24:06.000Z</time>
      </trkpt>
      <trkpt lat="43.25709" lon="6.61036">
        <ele>116.80000305176</ele>
        <time>2011-06-02T12:24:13.000Z</time>
      </trkpt>
      <trkpt lat="43.25701" lon="6.61059">
        <ele>118.40000152588</ele>
        <time>2011-06-02T12:24:20.000Z</time>
      </trkpt>
      <trkpt lat="43.25693" lon="6.61092">
        <ele>118.59999847412</ele>
        <time>2011-06-02T12:24:27.000Z</time>
      </trkpt>
      <trkpt lat="43.25689" lon="6.61122">
        <ele>118.80000305176</ele>
        <time>2011-06-02T12:24:33.000Z</time>
      </trkpt>
      <trkpt lat="43.25681" lon="6.61147">
        <ele>118.80000305176</ele>
        <time>2011-06-02T12:24:38.000Z</time>
      </trkpt>
      <trkpt lat="43.2567" lon="6.61167">
        <ele>119.19999694824</ele>
        <time>2011-06-02T12:24:43.000Z</time>
      </trkpt>
      <trkpt lat="43.2566" lon="6.61184">
        <ele>119.40000152588</ele>
        <time>2011-06-02T12:24:48.000Z</time>
      </trkpt>
      <trkpt lat="43.25647" lon="6.61196">
        <ele>121</ele>
        <time>2011-06-02T12:24:53.000Z</time>
      </trkpt>
      <trkpt lat="43.25626" lon="6.61222">
        <ele>121.40000152588</ele>
        <time>2011-06-02T12:24:58.000Z</time>
      </trkpt>
      <trkpt lat="43.25616" lon="6.61236">
        <ele>121.19999694824</ele>
        <time>2011-06-02T12:25:00.000Z</time>
      </trkpt>
      <trkpt lat="43.25586" lon="6.61267">
        <ele>120.59999847412</ele>
        <time>2011-06-02T12:25:06.000Z</time>
      </trkpt>
      <trkpt lat="43.25575" lon="6.61288">
        <ele>120.59999847412</ele>
        <time>2011-06-02T12:25:10.000Z</time>
      </trkpt>
      <trkpt lat="43.2556" lon="6.61306">
        <ele>120.19999694824</ele>
        <time>2011-06-02T12:25:14.000Z</time>
      </trkpt>
      <trkpt lat="43.25535" lon="6.61329">
        <ele>119</ele>
        <time>2011-06-02T12:25:19.000Z</time>
      </trkpt>
      <trkpt lat="43.2552" lon="6.61353">
        <ele>120.19999694824</ele>
        <time>2011-06-02T12:25:25.000Z</time>
      </trkpt>
      <trkpt lat="43.25501" lon="6.61372">
        <ele>122</ele>
        <time>2011-06-02T12:25:32.000Z</time>
      </trkpt>
      <trkpt lat="43.2548" lon="6.61397">
        <ele>124.40000152588</ele>
        <time>2011-06-02T12:25:40.000Z</time>
      </trkpt>
      <trkpt lat="43.25475" lon="6.6142">
        <ele>127.19999694824</ele>
        <time>2011-06-02T12:25:46.000Z</time>
      </trkpt>
      <trkpt lat="43.25466" lon="6.61444">
        <ele>128</ele>
        <time>2011-06-02T12:25:53.000Z</time>
      </trkpt>
      <trkpt lat="43.25457" lon="6.61474">
        <ele>127.80000305176</ele>
        <time>2011-06-02T12:26:01.000Z</time>
      </trkpt>
      <trkpt lat="43.25455" lon="6.61492">
        <ele>127.59999847412</ele>
        <time>2011-06-02T12:26:04.000Z</time>
      </trkpt>
      <trkpt lat="43.25443" lon="6.61524">
        <ele>127.80000305176</ele>
        <time>2011-06-02T12:26:09.000Z</time>
      </trkpt>
      <trkpt lat="43.25429" lon="6.61546">
        <ele>128.60000610352</ele>
        <time>2011-06-02T12:26:15.000Z</time>
      </trkpt>
      <trkpt lat="43.25414" lon="6.61569">
        <ele>130</ele>
        <time>2011-06-02T12:26:22.000Z</time>
      </trkpt>
      <trkpt lat="43.25403" lon="6.61594">
        <ele>130.80000305176</ele>
        <time>2011-06-02T12:26:28.000Z</time>
      </trkpt>
      <trkpt lat="43.25387" lon="6.61629">
        <ele>131.19999694824</ele>
        <time>2011-06-02T12:26:36.000Z</time>
      </trkpt>
      <trkpt lat="43.25373" lon="6.61667">
        <ele>131.39999389648</ele>
        <time>2011-06-02T12:26:43.000Z</time>
      </trkpt>
      <trkpt lat="43.25368" lon="6.6168">
        <ele>131.39999389648</ele>
        <time>2011-06-02T12:26:45.000Z</time>
      </trkpt>
      <trkpt lat="43.25364" lon="6.61693">
        <ele>131.19999694824</ele>
        <time>2011-06-02T12:26:47.000Z</time>
      </trkpt>
      <trkpt lat="43.25359" lon="6.61703">
        <ele>131</ele>
        <time>2011-06-02T12:26:49.000Z</time>
      </trkpt>
      <trkpt lat="43.25346" lon="6.61739">
        <ele>130</ele>
        <time>2011-06-02T12:26:55.000Z</time>
      </trkpt>
      <trkpt lat="43.25325" lon="6.61787">
        <ele>128.39999389648</ele>
        <time>2011-06-02T12:27:02.000Z</time>
      </trkpt>
      <trkpt lat="43.25304" lon="6.61838">
        <ele>126</ele>
        <time>2011-06-02T12:27:08.000Z</time>
      </trkpt>
      <trkpt lat="43.25295" lon="6.61864">
        <ele>125.19999694824</ele>
        <time>2011-06-02T12:27:11.000Z</time>
      </trkpt>
      <trkpt lat="43.25288" lon="6.61915">
        <ele>124</ele>
        <time>2011-06-02T12:27:17.000Z</time>
      </trkpt>
      <trkpt lat="43.25285" lon="6.61965">
        <ele>124.80000305176</ele>
        <time>2011-06-02T12:27:24.000Z</time>
      </trkpt>
      <trkpt lat="43.2528" lon="6.62017">
        <ele>126.19999694824</ele>
        <time>2011-06-02T12:27:32.000Z</time>
      </trkpt>
      <trkpt lat="43.25279" lon="6.62023">
        <ele>126.19999694824</ele>
        <time>2011-06-02T12:27:33.000Z</time>
      </trkpt>
      <trkpt lat="43.25279" lon="6.62049">
        <ele>126.59999847412</ele>
        <time>2011-06-02T12:27:37.000Z</time>
      </trkpt>
      <trkpt lat="43.25281" lon="6.62084">
        <ele>128.19999694824</ele>
        <time>2011-06-02T12:27:44.000Z</time>
      </trkpt>
      <trkpt lat="43.25282" lon="6.62088">
        <ele>128.60000610352</ele>
        <time>2011-06-02T12:27:45.000Z</time>
      </trkpt>
      <trkpt lat="43.25286" lon="6.62106">
        <ele>129.80000305176</ele>
        <time>2011-06-02T12:27:50.000Z</time>
      </trkpt>
      <trkpt lat="43.25295" lon="6.62135">
        <ele>132.19999694824</ele>
        <time>2011-06-02T12:27:58.000Z</time>
      </trkpt>
      <trkpt lat="43.25297" lon="6.62148">
        <ele>133</ele>
        <time>2011-06-02T12:28:01.000Z</time>
      </trkpt>
      <trkpt lat="43.25302" lon="6.62168">
        <ele>134.80000305176</ele>
        <time>2011-06-02T12:28:06.000Z</time>
      </trkpt>
      <trkpt lat="43.25303" lon="6.62188">
        <ele>137</ele>
        <time>2011-06-02T12:28:12.000Z</time>
      </trkpt>
      <trkpt lat="43.25305" lon="6.62205">
        <ele>138.80000305176</ele>
        <time>2011-06-02T12:28:18.000Z</time>
      </trkpt>
      <trkpt lat="43.25311" lon="6.62218">
        <ele>141</ele>
        <time>2011-06-02T12:28:24.000Z</time>
      </trkpt>
      <trkpt lat="43.25316" lon="6.62233">
        <ele>142.60000610352</ele>
        <time>2011-06-02T12:28:31.000Z</time>
      </trkpt>
      <trkpt lat="43.25319" lon="6.62247">
        <ele>144.39999389648</ele>
        <time>2011-06-02T12:28:37.000Z</time>
      </trkpt>
      <trkpt lat="43.25321" lon="6.62262">
        <ele>146.80000305176</ele>
        <time>2011-06-02T12:28:44.000Z</time>
      </trkpt>
      <trkpt lat="43.2532" lon="6.62279">
        <ele>148.80000305176</ele>
        <time>2011-06-02T12:28:51.000Z</time>
      </trkpt>
      <trkpt lat="43.25313" lon="6.62294">
        <ele>151.39999389648</ele>
        <time>2011-06-02T12:28:59.000Z</time>
      </trkpt>
      <trkpt lat="43.25304" lon="6.62307">
        <ele>154.39999389648</ele>
        <time>2011-06-02T12:29:08.000Z</time>
      </trkpt>
      <trkpt lat="43.25296" lon="6.62321">
        <ele>156</ele>
        <time>2011-06-02T12:29:16.000Z</time>
      </trkpt>
      <trkpt lat="43.25284" lon="6.62333">
        <ele>157.80000305176</ele>
        <time>2011-06-02T12:29:24.000Z</time>
      </trkpt>
      <trkpt lat="43.25269" lon="6.62341">
        <ele>159.39999389648</ele>
        <time>2011-06-02T12:29:33.000Z</time>
      </trkpt>
      <trkpt lat="43.25258" lon="6.62348">
        <ele>161.39999389648</ele>
        <time>2011-06-02T12:29:40.000Z</time>
      </trkpt>
      <trkpt lat="43.25243" lon="6.62352">
        <ele>163.19999694824</ele>
        <time>2011-06-02T12:29:47.000Z</time>
      </trkpt>
      <trkpt lat="43.2523" lon="6.6236">
        <ele>164.39999389648</ele>
        <time>2011-06-02T12:29:54.000Z</time>
      </trkpt>
      <trkpt lat="43.25214" lon="6.62373">
        <ele>165.60000610352</ele>
        <time>2011-06-02T12:30:04.000Z</time>
      </trkpt>
      <trkpt lat="43.25204" lon="6.62389">
        <ele>165.80000305176</ele>
        <time>2011-06-02T12:30:10.000Z</time>
      </trkpt>
      <trkpt lat="43.25195" lon="6.62412">
        <ele>164.80000305176</ele>
        <time>2011-06-02T12:30:16.000Z</time>
      </trkpt>
      <trkpt lat="43.25192" lon="6.62417">
        <ele>164.19999694824</ele>
        <time>2011-06-02T12:30:18.000Z</time>
      </trkpt>
      <trkpt lat="43.25189" lon="6.62419">
        <ele>163.60000610352</ele>
        <time>2011-06-02T12:30:24.000Z</time>
      </trkpt>
      <trkpt lat="43.25189" lon="6.62417">
        <ele>163.80000305176</ele>
        <time>2011-06-02T12:30:39.000Z</time>
      </trkpt>
      <trkpt lat="43.25187" lon="6.62416">
        <ele>164.80000305176</ele>
        <time>2011-06-02T12:32:39.000Z</time>
      </trkpt>
      <trkpt lat="43.25189" lon="6.62417">
        <ele>164.80000305176</ele>
        <time>2011-06-02T12:32:41.000Z</time>
      </trkpt>
      <trkpt lat="43.25187" lon="6.62428">
        <ele>164.80000305176</ele>
        <time>2011-06-02T12:32:47.000Z</time>
      </trkpt>
      <trkpt lat="43.2518" lon="6.62442">
        <ele>165</ele>
        <time>2011-06-02T12:32:52.000Z</time>
      </trkpt>
      <trkpt lat="43.25173" lon="6.62459">
        <ele>165.60000610352</ele>
        <time>2011-06-02T12:32:58.000Z</time>
      </trkpt>
      <trkpt lat="43.25169" lon="6.62477">
        <ele>166.60000610352</ele>
        <time>2011-06-02T12:33:04.000Z</time>
      </trkpt>
      <trkpt lat="43.25164" lon="6.62488">
        <ele>166.80000305176</ele>
        <time>2011-06-02T12:33:10.000Z</time>
      </trkpt>
      <trkpt lat="43.25159" lon="6.62494">
        <ele>166.39999389648</ele>
        <time>2011-06-02T12:33:12.000Z</time>
      </trkpt>
      <trkpt lat="43.25152" lon="6.62502">
        <ele>166</ele>
        <time>2011-06-02T12:33:14.000Z</time>
      </trkpt>
      <trkpt lat="43.25123" lon="6.62532">
        <ele>163.80000305176</ele>
        <time>2011-06-02T12:33:20.000Z</time>
      </trkpt>
      <trkpt lat="43.25106" lon="6.62552">
        <ele>162.39999389648</ele>
        <time>2011-06-02T12:33:24.000Z</time>
      </trkpt>
      <trkpt lat="43.25083" lon="6.62562">
        <ele>159</ele>
        <time>2011-06-02T12:33:28.000Z</time>
      </trkpt>
      <trkpt lat="43.25072" lon="6.62561">
        <ele>158.39999389648</ele>
        <time>2011-06-02T12:33:30.000Z</time>
      </trkpt>
      <trkpt lat="43.25059" lon="6.6255">
        <ele>157</ele>
        <time>2011-06-02T12:33:33.000Z</time>
      </trkpt>
      <trkpt lat="43.25037" lon="6.62529">
        <ele>154.80000305176</ele>
        <time>2011-06-02T12:33:39.000Z</time>
      </trkpt>
      <trkpt lat="43.25032" lon="6.62525">
        <ele>154.39999389648</ele>
        <time>2011-06-02T12:33:40.000Z</time>
      </trkpt>
      <trkpt lat="43.25009" lon="6.62507">
        <ele>152</ele>
        <time>2011-06-02T12:33:44.000Z</time>
      </trkpt>
      <trkpt lat="43.24974" lon="6.62485">
        <ele>149.19999694824</ele>
        <time>2011-06-02T12:33:49.000Z</time>
      </trkpt>
      <trkpt lat="43.24959" lon="6.62478">
        <ele>148.80000305176</ele>
        <time>2011-06-02T12:33:51.000Z</time>
      </trkpt>
      <trkpt lat="43.2494" lon="6.62474">
        <ele>148.19999694824</ele>
        <time>2011-06-02T12:33:54.000Z</time>
      </trkpt>
      <trkpt lat="43.24901" lon="6.62478">
        <ele>148.80000305176</ele>
        <time>2011-06-02T12:34:01.000Z</time>
      </trkpt>
      <trkpt lat="43.24878" lon="6.6248">
        <ele>148.80000305176</ele>
        <time>2011-06-02T12:34:06.000Z</time>
      </trkpt>
      <trkpt lat="43.24846" lon="6.6249">
        <ele>148.39999389648</ele>
        <time>2011-06-02T12:34:12.000Z</time>
      </trkpt>
      <trkpt lat="43.24812" lon="6.62501">
        <ele>148.60000610352</ele>
        <time>2011-06-02T12:34:18.000Z</time>
      </trkpt>
      <trkpt lat="43.24807" lon="6.62502">
        <ele>148.80000305176</ele>
        <time>2011-06-02T12:34:19.000Z</time>
      </trkpt>
      <trkpt lat="43.24785" lon="6.62497">
        <ele>149</ele>
        <time>2011-06-02T12:34:23.000Z</time>
      </trkpt>
      <trkpt lat="43.24761" lon="6.62483">
        <ele>149.19999694824</ele>
        <time>2011-06-02T12:34:29.000Z</time>
      </trkpt>
      <trkpt lat="43.24755" lon="6.62474">
        <ele>148.39999389648</ele>
        <time>2011-06-02T12:34:32.000Z</time>
      </trkpt>
      <trkpt lat="43.24733" lon="6.62444">
        <ele>146</ele>
        <time>2011-06-02T12:34:38.000Z</time>
      </trkpt>
      <trkpt lat="43.24729" lon="6.62438">
        <ele>145.19999694824</ele>
        <time>2011-06-02T12:34:39.000Z</time>
      </trkpt>
      <trkpt lat="43.24702" lon="6.62427">
        <ele>141.80000305176</ele>
        <time>2011-06-02T12:34:43.000Z</time>
      </trkpt>
      <trkpt lat="43.24695" lon="6.62428">
        <ele>140.80000305176</ele>
        <time>2011-06-02T12:34:44.000Z</time>
      </trkpt>
      <trkpt lat="43.24654" lon="6.6245">
        <ele>138</ele>
        <time>2011-06-02T12:34:50.000Z</time>
      </trkpt>
      <trkpt lat="43.24618" lon="6.62454">
        <ele>136.80000305176</ele>
        <time>2011-06-02T12:34:55.000Z</time>
      </trkpt>
      <trkpt lat="43.24596" lon="6.62453">
        <ele>136.60000610352</ele>
        <time>2011-06-02T12:34:58.000Z</time>
      </trkpt>
      <trkpt lat="43.2456" lon="6.62439">
        <ele>136.19999694824</ele>
        <time>2011-06-02T12:35:04.000Z</time>
      </trkpt>
      <trkpt lat="43.24529" lon="6.62415">
        <ele>137.19999694824</ele>
        <time>2011-06-02T12:35:10.000Z</time>
      </trkpt>
      <trkpt lat="43.24493" lon="6.62394">
        <ele>138.39999389648</ele>
        <time>2011-06-02T12:35:16.000Z</time>
      </trkpt>
      <trkpt lat="43.24451" lon="6.62378">
        <ele>138.60000610352</ele>
        <time>2011-06-02T12:35:22.000Z</time>
      </trkpt>
      <trkpt lat="43.24424" lon="6.62362">
        <ele>139.19999694824</ele>
        <time>2011-06-02T12:35:26.000Z</time>
      </trkpt>
      <trkpt lat="43.24391" lon="6.62346">
        <ele>139.80000305176</ele>
        <time>2011-06-02T12:35:31.000Z</time>
      </trkpt>
      <trkpt lat="43.24351" lon="6.62331">
        <ele>139.60000610352</ele>
        <time>2011-06-02T12:35:37.000Z</time>
      </trkpt>
      <trkpt lat="43.24315" lon="6.62315">
        <ele>139.39999389648</ele>
        <time>2011-06-02T12:35:43.000Z</time>
      </trkpt>
      <trkpt lat="43.2431" lon="6.62313">
        <ele>139.19999694824</ele>
        <time>2011-06-02T12:35:44.000Z</time>
      </trkpt>
      <trkpt lat="43.24273" lon="6.62285">
        <ele>139.60000610352</ele>
        <time>2011-06-02T12:35:51.000Z</time>
      </trkpt>
      <trkpt lat="43.24269" lon="6.62282">
        <ele>139.60000610352</ele>
        <time>2011-06-02T12:35:52.000Z</time>
      </trkpt>
      <trkpt lat="43.24232" lon="6.62265">
        <ele>140.60000610352</ele>
        <time>2011-06-02T12:35:59.000Z</time>
      </trkpt>
      <trkpt lat="43.24195" lon="6.62253">
        <ele>141</ele>
        <time>2011-06-02T12:36:06.000Z</time>
      </trkpt>
      <trkpt lat="43.24173" lon="6.62241">
        <ele>140.80000305176</ele>
        <time>2011-06-02T12:36:11.000Z</time>
      </trkpt>
      <trkpt lat="43.24169" lon="6.62239">
        <ele>140.80000305176</ele>
        <time>2011-06-02T12:36:12.000Z</time>
      </trkpt>
      <trkpt lat="43.24138" lon="6.62231">
        <ele>141.80000305176</ele>
        <time>2011-06-02T12:36:19.000Z</time>
      </trkpt>
      <trkpt lat="43.24112" lon="6.62229">
        <ele>143.60000610352</ele>
        <time>2011-06-02T12:36:26.000Z</time>
      </trkpt>
      <trkpt lat="43.24095" lon="6.62222">
        <ele>143.80000305176</ele>
        <time>2011-06-02T12:36:30.000Z</time>
      </trkpt>
      <trkpt lat="43.24089" lon="6.62219">
        <ele>143.39999389648</ele>
        <time>2011-06-02T12:36:31.000Z</time>
      </trkpt>
      <trkpt lat="43.24047" lon="6.62212">
        <ele>140.80000305176</ele>
        <time>2011-06-02T12:36:37.000Z</time>
      </trkpt>
      <trkpt lat="43.24034" lon="6.62209">
        <ele>140</ele>
        <time>2011-06-02T12:36:39.000Z</time>
      </trkpt>
      <trkpt lat="43.23999" lon="6.62202">
        <ele>138.80000305176</ele>
        <time>2011-06-02T12:36:44.000Z</time>
      </trkpt>
      <trkpt lat="43.23984" lon="6.62206">
        <ele>138.19999694824</ele>
        <time>2011-06-02T12:36:46.000Z</time>
      </trkpt>
      <trkpt lat="43.23938" lon="6.62216">
        <ele>135.39999389648</ele>
        <time>2011-06-02T12:36:52.000Z</time>
      </trkpt>
      <trkpt lat="43.23923" lon="6.62218">
        <ele>134.80000305176</ele>
        <time>2011-06-02T12:36:54.000Z</time>
      </trkpt>
      <trkpt lat="43.23885" lon="6.62234">
        <ele>132.60000610352</ele>
        <time>2011-06-02T12:36:59.000Z</time>
      </trkpt>
      <trkpt lat="43.2386" lon="6.6225">
        <ele>130.39999389648</ele>
        <time>2011-06-02T12:37:03.000Z</time>
      </trkpt>
      <trkpt lat="43.23825" lon="6.62264">
        <ele>127.80000305176</ele>
        <time>2011-06-02T12:37:08.000Z</time>
      </trkpt>
      <trkpt lat="43.23788" lon="6.62284">
        <ele>125.59999847412</ele>
        <time>2011-06-02T12:37:13.000Z</time>
      </trkpt>
      <trkpt lat="43.23764" lon="6.62296">
        <ele>124.80000305176</ele>
        <time>2011-06-02T12:37:16.000Z</time>
      </trkpt>
      <trkpt lat="43.23732" lon="6.62322">
        <ele>124</ele>
        <time>2011-06-02T12:37:20.000Z</time>
      </trkpt>
      <trkpt lat="43.237" lon="6.62347">
        <ele>123.40000152588</ele>
        <time>2011-06-02T12:37:25.000Z</time>
      </trkpt>
      <trkpt lat="43.23694" lon="6.6235">
        <ele>123.59999847412</ele>
        <time>2011-06-02T12:37:26.000Z</time>
      </trkpt>
      <trkpt lat="43.23664" lon="6.62369">
        <ele>125.40000152588</ele>
        <time>2011-06-02T12:37:31.000Z</time>
      </trkpt>
      <trkpt lat="43.23645" lon="6.62372">
        <ele>127.19999694824</ele>
        <time>2011-06-02T12:37:34.000Z</time>
      </trkpt>
      <trkpt lat="43.23627" lon="6.62387">
        <ele>128.80000305176</ele>
        <time>2011-06-02T12:37:38.000Z</time>
      </trkpt>
      <trkpt lat="43.2362" lon="6.62401">
        <ele>129.39999389648</ele>
        <time>2011-06-02T12:37:40.000Z</time>
      </trkpt>
      <trkpt lat="43.23605" lon="6.62425">
        <ele>130.60000610352</ele>
        <time>2011-06-02T12:37:45.000Z</time>
      </trkpt>
      <trkpt lat="43.23592" lon="6.62448">
        <ele>132.80000305176</ele>
        <time>2011-06-02T12:37:51.000Z</time>
      </trkpt>
      <trkpt lat="43.23579" lon="6.62465">
        <ele>134.80000305176</ele>
        <time>2011-06-02T12:37:57.000Z</time>
      </trkpt>
      <trkpt lat="43.23577" lon="6.62468">
        <ele>135</ele>
        <time>2011-06-02T12:38:02.000Z</time>
      </trkpt>
      <trkpt lat="43.2357" lon="6.6247">
        <ele>134.80000305176</ele>
        <time>2011-06-02T12:41:01.000Z</time>
      </trkpt>
      <trkpt lat="43.2355" lon="6.62491">
        <ele>133.80000305176</ele>
        <time>2011-06-02T12:41:06.000Z</time>
      </trkpt>
      <trkpt lat="43.23539" lon="6.62503">
        <ele>133.19999694824</ele>
        <time>2011-06-02T12:41:09.000Z</time>
      </trkpt>
      <trkpt lat="43.23522" lon="6.62519">
        <ele>133</ele>
        <time>2011-06-02T12:41:14.000Z</time>
      </trkpt>
      <trkpt lat="43.235" lon="6.62542">
        <ele>131.80000305176</ele>
        <time>2011-06-02T12:41:19.000Z</time>
      </trkpt>
      <trkpt lat="43.23475" lon="6.62546">
        <ele>130.60000610352</ele>
        <time>2011-06-02T12:41:23.000Z</time>
      </trkpt>
      <trkpt lat="43.23451" lon="6.6254">
        <ele>129.39999389648</ele>
        <time>2011-06-02T12:41:27.000Z</time>
      </trkpt>
      <trkpt lat="43.2343" lon="6.62549">
        <ele>128.60000610352</ele>
        <time>2011-06-02T12:41:31.000Z</time>
      </trkpt>
      <trkpt lat="43.23414" lon="6.62572">
        <ele>128.19999694824</ele>
        <time>2011-06-02T12:41:35.000Z</time>
      </trkpt>
      <trkpt lat="43.2341" lon="6.62579">
        <ele>128</ele>
        <time>2011-06-02T12:41:36.000Z</time>
      </trkpt>
      <trkpt lat="43.23396" lon="6.62598">
        <ele>127.40000152588</ele>
        <time>2011-06-02T12:41:39.000Z</time>
      </trkpt>
      <trkpt lat="43.23375" lon="6.62604">
        <ele>126.80000305176</ele>
        <time>2011-06-02T12:41:43.000Z</time>
      </trkpt>
      <trkpt lat="43.2337" lon="6.62599">
        <ele>126.80000305176</ele>
        <time>2011-06-02T12:41:44.000Z</time>
      </trkpt>
      <trkpt lat="43.23343" lon="6.62571">
        <ele>126</ele>
        <time>2011-06-02T12:41:49.000Z</time>
      </trkpt>
      <trkpt lat="43.23333" lon="6.6254">
        <ele>125</ele>
        <time>2011-06-02T12:41:53.000Z</time>
      </trkpt>
      <trkpt lat="43.23334" lon="6.62531">
        <ele>125</ele>
        <time>2011-06-02T12:41:54.000Z</time>
      </trkpt>
      <trkpt lat="43.23333" lon="6.62495">
        <ele>125.19999694824</ele>
        <time>2011-06-02T12:41:59.000Z</time>
      </trkpt>
      <trkpt lat="43.23322" lon="6.62486">
        <ele>125</ele>
        <time>2011-06-02T12:42:01.000Z</time>
      </trkpt>
      <trkpt lat="43.23284" lon="6.62456">
        <ele>125</ele>
        <time>2011-06-02T12:42:07.000Z</time>
      </trkpt>
      <trkpt lat="43.2326" lon="6.62455">
        <ele>124.59999847412</ele>
        <time>2011-06-02T12:42:10.000Z</time>
      </trkpt>
      <trkpt lat="43.23206" lon="6.62462">
        <ele>123</ele>
        <time>2011-06-02T12:42:16.000Z</time>
      </trkpt>
      <trkpt lat="43.23181" lon="6.62469">
        <ele>121.59999847412</ele>
        <time>2011-06-02T12:42:19.000Z</time>
      </trkpt>
      <trkpt lat="43.23127" lon="6.62476">
        <ele>121.40000152588</ele>
        <time>2011-06-02T12:42:26.000Z</time>
      </trkpt>
      <trkpt lat="43.2308" lon="6.62485">
        <ele>120</ele>
        <time>2011-06-02T12:42:32.000Z</time>
      </trkpt>
      <trkpt lat="43.2305" lon="6.62481">
        <ele>119</ele>
        <time>2011-06-02T12:42:36.000Z</time>
      </trkpt>
      <trkpt lat="43.23024" lon="6.62456">
        <ele>118</ele>
        <time>2011-06-02T12:42:40.000Z</time>
      </trkpt>
      <trkpt lat="43.23004" lon="6.62422">
        <ele>117.59999847412</ele>
        <time>2011-06-02T12:42:44.000Z</time>
      </trkpt>
      <trkpt lat="43.22994" lon="6.62394">
        <ele>117.40000152588</ele>
        <time>2011-06-02T12:42:47.000Z</time>
      </trkpt>
      <trkpt lat="43.22977" lon="6.62361">
        <ele>116.40000152588</ele>
        <time>2011-06-02T12:42:51.000Z</time>
      </trkpt>
      <trkpt lat="43.22936" lon="6.62317">
        <ele>114.19999694824</ele>
        <time>2011-06-02T12:42:58.000Z</time>
      </trkpt>
      <trkpt lat="43.22892" lon="6.62275">
        <ele>112</ele>
        <time>2011-06-02T12:43:05.000Z</time>
      </trkpt>
      <trkpt lat="43.22872" lon="6.6226">
        <ele>111.19999694824</ele>
        <time>2011-06-02T12:43:08.000Z</time>
      </trkpt>
      <trkpt lat="43.22853" lon="6.62237">
        <ele>111.80000305176</ele>
        <time>2011-06-02T12:43:12.000Z</time>
      </trkpt>
      <trkpt lat="43.22843" lon="6.6221">
        <ele>114</ele>
        <time>2011-06-02T12:43:18.000Z</time>
      </trkpt>
      <trkpt lat="43.22846" lon="6.6219">
        <ele>115</ele>
        <time>2011-06-02T12:43:22.000Z</time>
      </trkpt>
      <trkpt lat="43.22848" lon="6.62185">
        <ele>115</ele>
        <time>2011-06-02T12:43:23.000Z</time>
      </trkpt>
      <trkpt lat="43.22855" lon="6.62168">
        <ele>115.40000152588</ele>
        <time>2011-06-02T12:43:29.000Z</time>
      </trkpt>
      <trkpt lat="43.22856" lon="6.62147">
        <ele>116.19999694824</ele>
        <time>2011-06-02T12:43:36.000Z</time>
      </trkpt>
      <trkpt lat="43.22851" lon="6.62133">
        <ele>116.40000152588</ele>
        <time>2011-06-02T12:43:42.000Z</time>
      </trkpt>
      <trkpt lat="43.2285" lon="6.62122">
        <ele>117</ele>
        <time>2011-06-02T12:43:46.000Z</time>
      </trkpt>
      <trkpt lat="43.22853" lon="6.62123">
        <ele>116.80000305176</ele>
        <time>2011-06-02T12:43:51.000Z</time>
      </trkpt>
      <trkpt lat="43.22853" lon="6.62125">
        <ele>116.80000305176</ele>
        <time>2011-06-02T12:43:52.000Z</time>
      </trkpt>
      <trkpt lat="43.22853" lon="6.62129">
        <ele>116.59999847412</ele>
        <time>2011-06-02T12:43:54.000Z</time>
      </trkpt>
      <trkpt lat="43.2285" lon="6.62125">
        <ele>116.80000305176</ele>
        <time>2011-06-02T12:43:59.000Z</time>
      </trkpt>
      <trkpt lat="43.2285" lon="6.6212">
        <ele>117</ele>
        <time>2011-06-02T12:44:01.000Z</time>
      </trkpt>
      <trkpt lat="43.22857" lon="6.62102">
        <ele>117.40000152588</ele>
        <time>2011-06-02T12:44:08.000Z</time>
      </trkpt>
      <trkpt lat="43.22862" lon="6.62084">
        <ele>118.40000152588</ele>
        <time>2011-06-02T12:44:13.000Z</time>
      </trkpt>
      <trkpt lat="43.22854" lon="6.62069">
        <ele>118.80000305176</ele>
        <time>2011-06-02T12:44:17.000Z</time>
      </trkpt>
      <trkpt lat="43.22837" lon="6.6206">
        <ele>119.59999847412</ele>
        <time>2011-06-02T12:44:22.000Z</time>
      </trkpt>
      <trkpt lat="43.22815" lon="6.62054">
        <ele>119.80000305176</ele>
        <time>2011-06-02T12:44:28.000Z</time>
      </trkpt>
      <trkpt lat="43.22802" lon="6.62046">
        <ele>120.40000152588</ele>
        <time>2011-06-02T12:44:32.000Z</time>
      </trkpt>
      <trkpt lat="43.22798" lon="6.6203">
        <ele>120.80000305176</ele>
        <time>2011-06-02T12:44:35.000Z</time>
      </trkpt>
      <trkpt lat="43.22799" lon="6.62005">
        <ele>121</ele>
        <time>2011-06-02T12:44:39.000Z</time>
      </trkpt>
      <trkpt lat="43.228" lon="6.61966">
        <ele>121.19999694824</ele>
        <time>2011-06-02T12:44:45.000Z</time>
      </trkpt>
      <trkpt lat="43.228" lon="6.61959">
        <ele>121.19999694824</ele>
        <time>2011-06-02T12:44:46.000Z</time>
      </trkpt>
      <trkpt lat="43.22798" lon="6.61945">
        <ele>121</ele>
        <time>2011-06-02T12:44:48.000Z</time>
      </trkpt>
      <trkpt lat="43.22792" lon="6.61904">
        <ele>120.80000305176</ele>
        <time>2011-06-02T12:44:54.000Z</time>
      </trkpt>
      <trkpt lat="43.22784" lon="6.61892">
        <ele>121</ele>
        <time>2011-06-02T12:44:56.000Z</time>
      </trkpt>
      <trkpt lat="43.22764" lon="6.61861">
        <ele>120.19999694824</ele>
        <time>2011-06-02T12:45:02.000Z</time>
      </trkpt>
      <trkpt lat="43.22761" lon="6.61856">
        <ele>120.19999694824</ele>
        <time>2011-06-02T12:45:03.000Z</time>
      </trkpt>
      <trkpt lat="43.22733" lon="6.61832">
        <ele>119</ele>
        <time>2011-06-02T12:45:09.000Z</time>
      </trkpt>
      <trkpt lat="43.22706" lon="6.61814">
        <ele>117</ele>
        <time>2011-06-02T12:45:13.000Z</time>
      </trkpt>
      <trkpt lat="43.22673" lon="6.61791">
        <ele>115.19999694824</ele>
        <time>2011-06-02T12:45:18.000Z</time>
      </trkpt>
      <trkpt lat="43.22638" lon="6.61764">
        <ele>114.19999694824</ele>
        <time>2011-06-02T12:45:24.000Z</time>
      </trkpt>
      <trkpt lat="43.22596" lon="6.61736">
        <ele>112.80000305176</ele>
        <time>2011-06-02T12:45:32.000Z</time>
      </trkpt>
      <trkpt lat="43.22588" lon="6.61731">
        <ele>112</ele>
        <time>2011-06-02T12:45:36.000Z</time>
      </trkpt>
      <trkpt lat="43.22587" lon="6.61731">
        <ele>111.40000152588</ele>
        <time>2011-06-02T12:45:40.000Z</time>
      </trkpt>
      <trkpt lat="43.22589" lon="6.61733">
        <ele>111.40000152588</ele>
        <time>2011-06-02T12:45:44.000Z</time>
      </trkpt>
      <trkpt lat="43.22595" lon="6.61737">
        <ele>111.59999847412</ele>
        <time>2011-06-02T12:45:49.000Z</time>
      </trkpt>
      <trkpt lat="43.22597" lon="6.61736">
        <ele>111.80000305176</ele>
        <time>2011-06-02T12:45:55.000Z</time>
      </trkpt>
      <trkpt lat="43.22593" lon="6.61736">
        <ele>111.59999847412</ele>
        <time>2011-06-02T12:45:58.000Z</time>
      </trkpt>
      <trkpt lat="43.22589" lon="6.61734">
        <ele>111.59999847412</ele>
        <time>2011-06-02T12:46:03.000Z</time>
      </trkpt>
      <trkpt lat="43.2259" lon="6.61732">
        <ele>111.40000152588</ele>
        <time>2011-06-02T12:46:14.000Z</time>
      </trkpt>
      <trkpt lat="43.22599" lon="6.61738">
        <ele>111.59999847412</ele>
        <time>2011-06-02T12:46:19.000Z</time>
      </trkpt>
      <trkpt lat="43.22623" lon="6.61754">
        <ele>112.80000305176</ele>
        <time>2011-06-02T12:46:27.000Z</time>
      </trkpt>
      <trkpt lat="43.22642" lon="6.61765">
        <ele>112.80000305176</ele>
        <time>2011-06-02T12:46:33.000Z</time>
      </trkpt>
      <trkpt lat="43.22662" lon="6.61781">
        <ele>113.19999694824</ele>
        <time>2011-06-02T12:46:40.000Z</time>
      </trkpt>
      <trkpt lat="43.22667" lon="6.61787">
        <ele>113.40000152588</ele>
        <time>2011-06-02T12:46:42.000Z</time>
      </trkpt>
      <trkpt lat="43.22667" lon="6.61802">
        <ele>113.80000305176</ele>
        <time>2011-06-02T12:46:46.000Z</time>
      </trkpt>
      <trkpt lat="43.22662" lon="6.61837">
        <ele>117.19999694824</ele>
        <time>2011-06-02T12:46:55.000Z</time>
      </trkpt>
      <trkpt lat="43.22659" lon="6.61864">
        <ele>118.80000305176</ele>
        <time>2011-06-02T12:47:02.000Z</time>
      </trkpt>
      <trkpt lat="43.22657" lon="6.61896">
        <ele>121</ele>
        <time>2011-06-02T12:47:10.000Z</time>
      </trkpt>
      <trkpt lat="43.22655" lon="6.61929">
        <ele>123.40000152588</ele>
        <time>2011-06-02T12:47:19.000Z</time>
      </trkpt>
      <trkpt lat="43.22652" lon="6.61964">
        <ele>125.59999847412</ele>
        <time>2011-06-02T12:47:29.000Z</time>
      </trkpt>
      <trkpt lat="43.22652" lon="6.61986">
        <ele>127.19999694824</ele>
        <time>2011-06-02T12:47:35.000Z</time>
      </trkpt>
      <trkpt lat="43.22658" lon="6.6201">
        <ele>128.19999694824</ele>
        <time>2011-06-02T12:47:42.000Z</time>
      </trkpt>
      <trkpt lat="43.22668" lon="6.62035">
        <ele>128.60000610352</ele>
        <time>2011-06-02T12:47:49.000Z</time>
      </trkpt>
      <trkpt lat="43.22673" lon="6.62058">
        <ele>129.19999694824</ele>
        <time>2011-06-02T12:47:56.000Z</time>
      </trkpt>
      <trkpt lat="43.22673" lon="6.62075">
        <ele>129.80000305176</ele>
        <time>2011-06-02T12:48:02.000Z</time>
      </trkpt>
      <trkpt lat="43.22675" lon="6.62098">
        <ele>132.60000610352</ele>
        <time>2011-06-02T12:48:09.000Z</time>
      </trkpt>
      <trkpt lat="43.22675" lon="6.62114">
        <ele>134.60000610352</ele>
        <time>2011-06-02T12:48:14.000Z</time>
      </trkpt>
      <trkpt lat="43.22669" lon="6.62136">
        <ele>136.19999694824</ele>
        <time>2011-06-02T12:48:21.000Z</time>
      </trkpt>
      <trkpt lat="43.22659" lon="6.6215">
        <ele>137.60000610352</ele>
        <time>2011-06-02T12:48:27.000Z</time>
      </trkpt>
      <trkpt lat="43.22644" lon="6.6216">
        <ele>138.39999389648</ele>
        <time>2011-06-02T12:48:34.000Z</time>
      </trkpt>
      <trkpt lat="43.22631" lon="6.62172">
        <ele>140.39999389648</ele>
        <time>2011-06-02T12:48:41.000Z</time>
      </trkpt>
      <trkpt lat="43.22617" lon="6.62177">
        <ele>141.80000305176</ele>
        <time>2011-06-02T12:48:46.000Z</time>
      </trkpt>
      <trkpt lat="43.22606" lon="6.62182">
        <ele>143.60000610352</ele>
        <time>2011-06-02T12:48:51.000Z</time>
      </trkpt>
      <trkpt lat="43.22593" lon="6.6219">
        <ele>145.60000610352</ele>
        <time>2011-06-02T12:48:58.000Z</time>
      </trkpt>
      <trkpt lat="43.22578" lon="6.62201">
        <ele>147</ele>
        <time>2011-06-02T12:49:05.000Z</time>
      </trkpt>
      <trkpt lat="43.22567" lon="6.62209">
        <ele>147.60000610352</ele>
        <time>2011-06-02T12:49:10.000Z</time>
      </trkpt>
      <trkpt lat="43.22552" lon="6.62226">
        <ele>148.19999694824</ele>
        <time>2011-06-02T12:49:17.000Z</time>
      </trkpt>
      <trkpt lat="43.22542" lon="6.62255">
        <ele>149</ele>
        <time>2011-06-02T12:49:25.000Z</time>
      </trkpt>
      <trkpt lat="43.22537" lon="6.62292">
        <ele>150</ele>
        <time>2011-06-02T12:49:34.000Z</time>
      </trkpt>
      <trkpt lat="43.22538" lon="6.62334">
        <ele>150.60000610352</ele>
        <time>2011-06-02T12:49:43.000Z</time>
      </trkpt>
      <trkpt lat="43.22537" lon="6.6236">
        <ele>150</ele>
        <time>2011-06-02T12:49:50.000Z</time>
      </trkpt>
      <trkpt lat="43.22537" lon="6.62357">
        <ele>149.60000610352</ele>
        <time>2011-06-02T12:50:01.000Z</time>
      </trkpt>
      <trkpt lat="43.22532" lon="6.62363">
        <ele>149.60000610352</ele>
        <time>2011-06-02T12:51:18.000Z</time>
      </trkpt>
      <trkpt lat="43.22524" lon="6.62372">
        <ele>149.60000610352</ele>
        <time>2011-06-02T12:51:23.000Z</time>
      </trkpt>
      <trkpt lat="43.22509" lon="6.6239">
        <ele>148.80000305176</ele>
        <time>2011-06-02T12:51:28.000Z</time>
      </trkpt>
      <trkpt lat="43.22494" lon="6.62407">
        <ele>148.19999694824</ele>
        <time>2011-06-02T12:51:32.000Z</time>
      </trkpt>
      <trkpt lat="43.22465" lon="6.62426">
        <ele>147.60000610352</ele>
        <time>2011-06-02T12:51:38.000Z</time>
      </trkpt>
      <trkpt lat="43.2246" lon="6.62428">
        <ele>147.60000610352</ele>
        <time>2011-06-02T12:51:39.000Z</time>
      </trkpt>
      <trkpt lat="43.22426" lon="6.62433">
        <ele>146.60000610352</ele>
        <time>2011-06-02T12:51:45.000Z</time>
      </trkpt>
      <trkpt lat="43.22398" lon="6.62454">
        <ele>145.80000305176</ele>
        <time>2011-06-02T12:51:50.000Z</time>
      </trkpt>
      <trkpt lat="43.22381" lon="6.62472">
        <ele>144.80000305176</ele>
        <time>2011-06-02T12:51:54.000Z</time>
      </trkpt>
      <trkpt lat="43.22365" lon="6.62495">
        <ele>144.19999694824</ele>
        <time>2011-06-02T12:51:58.000Z</time>
      </trkpt>
      <trkpt lat="43.22359" lon="6.62513">
        <ele>143.60000610352</ele>
        <time>2011-06-02T12:52:01.000Z</time>
      </trkpt>
      <trkpt lat="43.22352" lon="6.62518">
        <ele>143.80000305176</ele>
        <time>2011-06-02T12:52:03.000Z</time>
      </trkpt>
      <trkpt lat="43.2234" lon="6.62526">
        <ele>144.39999389648</ele>
        <time>2011-06-02T12:52:06.000Z</time>
      </trkpt>
      <trkpt lat="43.22321" lon="6.62546">
        <ele>146</ele>
        <time>2011-06-02T12:52:12.000Z</time>
      </trkpt>
      <trkpt lat="43.22308" lon="6.6257">
        <ele>148.39999389648</ele>
        <time>2011-06-02T12:52:18.000Z</time>
      </trkpt>
      <trkpt lat="43.22295" lon="6.62594">
        <ele>151</ele>
        <time>2011-06-02T12:52:25.000Z</time>
      </trkpt>
      <trkpt lat="43.22281" lon="6.62617">
        <ele>151.60000610352</ele>
        <time>2011-06-02T12:52:32.000Z</time>
      </trkpt>
      <trkpt lat="43.22263" lon="6.62635">
        <ele>152.80000305176</ele>
        <time>2011-06-02T12:52:38.000Z</time>
      </trkpt>
      <trkpt lat="43.22245" lon="6.6265">
        <ele>154.39999389648</ele>
        <time>2011-06-02T12:52:44.000Z</time>
      </trkpt>
      <trkpt lat="43.22231" lon="6.62669">
        <ele>155.39999389648</ele>
        <time>2011-06-02T12:52:50.000Z</time>
      </trkpt>
      <trkpt lat="43.2221" lon="6.62695">
        <ele>155.60000610352</ele>
        <time>2011-06-02T12:52:58.000Z</time>
      </trkpt>
      <trkpt lat="43.22196" lon="6.62708">
        <ele>157.19999694824</ele>
        <time>2011-06-02T12:53:04.000Z</time>
      </trkpt>
      <trkpt lat="43.22174" lon="6.62718">
        <ele>158.60000610352</ele>
        <time>2011-06-02T12:53:11.000Z</time>
      </trkpt>
      <trkpt lat="43.22159" lon="6.62728">
        <ele>158.19999694824</ele>
        <time>2011-06-02T12:53:16.000Z</time>
      </trkpt>
      <trkpt lat="43.22129" lon="6.62744">
        <ele>158.39999389648</ele>
        <time>2011-06-02T12:53:23.000Z</time>
      </trkpt>
      <trkpt lat="43.2211" lon="6.62756">
        <ele>158</ele>
        <time>2011-06-02T12:53:28.000Z</time>
      </trkpt>
      <trkpt lat="43.22095" lon="6.62759">
        <ele>157</ele>
        <time>2011-06-02T12:53:32.000Z</time>
      </trkpt>
      <trkpt lat="43.22071" lon="6.62743">
        <ele>152.80000305176</ele>
        <time>2011-06-02T12:53:38.000Z</time>
      </trkpt>
      <trkpt lat="43.22064" lon="6.62739">
        <ele>151.19999694824</ele>
        <time>2011-06-02T12:53:40.000Z</time>
      </trkpt>
      <trkpt lat="43.22053" lon="6.62723">
        <ele>148.39999389648</ele>
        <time>2011-06-02T12:53:44.000Z</time>
      </trkpt>
      <trkpt lat="43.22055" lon="6.62717">
        <ele>147.80000305176</ele>
        <time>2011-06-02T12:53:45.000Z</time>
      </trkpt>
      <trkpt lat="43.22066" lon="6.62676">
        <ele>145.60000610352</ele>
        <time>2011-06-02T12:53:51.000Z</time>
      </trkpt>
      <trkpt lat="43.2208" lon="6.62648">
        <ele>142.60000610352</ele>
        <time>2011-06-02T12:53:56.000Z</time>
      </trkpt>
      <trkpt lat="43.22091" lon="6.62634">
        <ele>140.60000610352</ele>
        <time>2011-06-02T12:53:59.000Z</time>
      </trkpt>
      <trkpt lat="43.22083" lon="6.62626">
        <ele>137.19999694824</ele>
        <time>2011-06-02T12:54:03.000Z</time>
      </trkpt>
      <trkpt lat="43.22073" lon="6.62631">
        <ele>135.60000610352</ele>
        <time>2011-06-02T12:54:06.000Z</time>
      </trkpt>
      <trkpt lat="43.22065" lon="6.62636">
        <ele>134.19999694824</ele>
        <time>2011-06-02T12:54:08.000Z</time>
      </trkpt>
      <trkpt lat="43.22057" lon="6.6264">
        <ele>132.80000305176</ele>
        <time>2011-06-02T12:54:10.000Z</time>
      </trkpt>
      <trkpt lat="43.22048" lon="6.62645">
        <ele>131.80000305176</ele>
        <time>2011-06-02T12:54:12.000Z</time>
      </trkpt>
      <trkpt lat="43.22018" lon="6.62655">
        <ele>126.59999847412</ele>
        <time>2011-06-02T12:54:18.000Z</time>
      </trkpt>
      <trkpt lat="43.22004" lon="6.62655">
        <ele>125</ele>
        <time>2011-06-02T12:54:20.000Z</time>
      </trkpt>
      <trkpt lat="43.21985" lon="6.62659">
        <ele>122</ele>
        <time>2011-06-02T12:54:23.000Z</time>
      </trkpt>
      <trkpt lat="43.21965" lon="6.62658">
        <ele>116.19999694824</ele>
        <time>2011-06-02T12:54:28.000Z</time>
      </trkpt>
      <trkpt lat="43.21951" lon="6.62653">
        <ele>113.80000305176</ele>
        <time>2011-06-02T12:54:34.000Z</time>
      </trkpt>
      <trkpt lat="43.21935" lon="6.62646">
        <ele>112.19999694824</ele>
        <time>2011-06-02T12:54:39.000Z</time>
      </trkpt>
      <trkpt lat="43.21932" lon="6.62645">
        <ele>110.40000152588</ele>
        <time>2011-06-02T12:54:43.000Z</time>
      </trkpt>
      <trkpt lat="43.21924" lon="6.6264">
        <ele>110</ele>
        <time>2011-06-02T12:55:50.000Z</time>
      </trkpt>
      <trkpt lat="43.21913" lon="6.62635">
        <ele>109.59999847412</ele>
        <time>2011-06-02T12:55:53.000Z</time>
      </trkpt>
      <trkpt lat="43.21897" lon="6.62618">
        <ele>107.80000305176</ele>
        <time>2011-06-02T12:55:57.000Z</time>
      </trkpt>
      <trkpt lat="43.21894" lon="6.62612">
        <ele>107.19999694824</ele>
        <time>2011-06-02T12:55:58.000Z</time>
      </trkpt>
      <trkpt lat="43.21872" lon="6.626">
        <ele>104</ele>
        <time>2011-06-02T12:56:02.000Z</time>
      </trkpt>
      <trkpt lat="43.21853" lon="6.62613">
        <ele>101.59999847412</ele>
        <time>2011-06-02T12:56:05.000Z</time>
      </trkpt>
      <trkpt lat="43.21841" lon="6.62641">
        <ele>99.400001525879</ele>
        <time>2011-06-02T12:56:08.000Z</time>
      </trkpt>
      <trkpt lat="43.21838" lon="6.62651">
        <ele>98.800003051758</ele>
        <time>2011-06-02T12:56:09.000Z</time>
      </trkpt>
      <trkpt lat="43.21828" lon="6.62667">
        <ele>95.599998474121</ele>
        <time>2011-06-02T12:56:13.000Z</time>
      </trkpt>
      <trkpt lat="43.21826" lon="6.62654">
        <ele>94.400001525879</ele>
        <time>2011-06-02T12:56:15.000Z</time>
      </trkpt>
      <trkpt lat="43.21821" lon="6.62603">
        <ele>91.599998474121</ele>
        <time>2011-06-02T12:56:20.000Z</time>
      </trkpt>
      <trkpt lat="43.21808" lon="6.62552">
        <ele>88.199996948242</ele>
        <time>2011-06-02T12:56:25.000Z</time>
      </trkpt>
      <trkpt lat="43.21789" lon="6.62532">
        <ele>86.199996948242</ele>
        <time>2011-06-02T12:56:29.000Z</time>
      </trkpt>
      <trkpt lat="43.21784" lon="6.6253">
        <ele>85.599998474121</ele>
        <time>2011-06-02T12:56:30.000Z</time>
      </trkpt>
      <trkpt lat="43.21763" lon="6.62516">
        <ele>81.800003051758</ele>
        <time>2011-06-02T12:56:36.000Z</time>
      </trkpt>
      <trkpt lat="43.21755" lon="6.62519">
        <ele>79.599998474121</ele>
        <time>2011-06-02T12:56:40.000Z</time>
      </trkpt>
      <trkpt lat="43.21755" lon="6.62528">
        <ele>79</ele>
        <time>2011-06-02T12:56:45.000Z</time>
      </trkpt>
      <trkpt lat="43.21755" lon="6.6255">
        <ele>77.800003051758</ele>
        <time>2011-06-02T12:56:49.000Z</time>
      </trkpt>
      <trkpt lat="43.21754" lon="6.62566">
        <ele>76.400001525879</ele>
        <time>2011-06-02T12:56:51.000Z</time>
      </trkpt>
      <trkpt lat="43.21756" lon="6.62593">
        <ele>73.199996948242</ele>
        <time>2011-06-02T12:56:54.000Z</time>
      </trkpt>
      <trkpt lat="43.21747" lon="6.62621">
        <ele>69.400001525879</ele>
        <time>2011-06-02T12:56:58.000Z</time>
      </trkpt>
      <trkpt lat="43.21727" lon="6.62631">
        <ele>66.800003051758</ele>
        <time>2011-06-02T12:57:01.000Z</time>
      </trkpt>
      <trkpt lat="43.21702" lon="6.62627">
        <ele>63.400001525879</ele>
        <time>2011-06-02T12:57:04.000Z</time>
      </trkpt>
      <trkpt lat="43.21681" lon="6.62625">
        <ele>60.200000762939</ele>
        <time>2011-06-02T12:57:07.000Z</time>
      </trkpt>
      <trkpt lat="43.21675" lon="6.62629">
        <ele>60.200000762939</ele>
        <time>2011-06-02T12:57:08.000Z</time>
      </trkpt>
      <trkpt lat="43.2166" lon="6.62644">
        <ele>58.200000762939</ele>
        <time>2011-06-02T12:57:11.000Z</time>
      </trkpt>
      <trkpt lat="43.2162" lon="6.6267">
        <ele>56.400001525879</ele>
        <time>2011-06-02T12:57:17.000Z</time>
      </trkpt>
      <trkpt lat="43.21601" lon="6.62669">
        <ele>53.599998474121</ele>
        <time>2011-06-02T12:57:21.000Z</time>
      </trkpt>
      <trkpt lat="43.21599" lon="6.62662">
        <ele>52.599998474121</ele>
        <time>2011-06-02T12:57:23.000Z</time>
      </trkpt>
      <trkpt lat="43.21598" lon="6.62647">
        <ele>51.799999237061</ele>
        <time>2011-06-02T12:57:26.000Z</time>
      </trkpt>
      <trkpt lat="43.21593" lon="6.62608">
        <ele>50.599998474121</ele>
        <time>2011-06-02T12:57:33.000Z</time>
      </trkpt>
      <trkpt lat="43.2159" lon="6.62581">
        <ele>49.599998474121</ele>
        <time>2011-06-02T12:57:39.000Z</time>
      </trkpt>
      <trkpt lat="43.21589" lon="6.62545">
        <ele>48.400001525879</ele>
        <time>2011-06-02T12:57:46.000Z</time>
      </trkpt>
      <trkpt lat="43.21584" lon="6.62509">
        <ele>47.599998474121</ele>
        <time>2011-06-02T12:57:52.000Z</time>
      </trkpt>
      <trkpt lat="43.21581" lon="6.62497">
        <ele>47.400001525879</ele>
        <time>2011-06-02T12:57:54.000Z</time>
      </trkpt>
      <trkpt lat="43.21572" lon="6.62464">
        <ele>47.200000762939</ele>
        <time>2011-06-02T12:58:00.000Z</time>
      </trkpt>
      <trkpt lat="43.2157" lon="6.62458">
        <ele>47.200000762939</ele>
        <time>2011-06-02T12:58:01.000Z</time>
      </trkpt>
      <trkpt lat="43.21566" lon="6.62448">
        <ele>47.200000762939</ele>
        <time>2011-06-02T12:58:03.000Z</time>
      </trkpt>
      <trkpt lat="43.2156" lon="6.62413">
        <ele>47.400001525879</ele>
        <time>2011-06-02T12:58:08.000Z</time>
      </trkpt>
      <trkpt lat="43.21561" lon="6.62378">
        <ele>46.599998474121</ele>
        <time>2011-06-02T12:58:12.000Z</time>
      </trkpt>
      <trkpt lat="43.2157" lon="6.6232">
        <ele>45.799999237061</ele>
        <time>2011-06-02T12:58:19.000Z</time>
      </trkpt>
      <trkpt lat="43.21573" lon="6.62269">
        <ele>44.799999237061</ele>
        <time>2011-06-02T12:58:25.000Z</time>
      </trkpt>
      <trkpt lat="43.21565" lon="6.62251">
        <ele>43.400001525879</ele>
        <time>2011-06-02T12:58:29.000Z</time>
      </trkpt>
      <trkpt lat="43.21548" lon="6.62246">
        <ele>42.400001525879</ele>
        <time>2011-06-02T12:58:32.000Z</time>
      </trkpt>
      <trkpt lat="43.21492" lon="6.62238">
        <ele>43</ele>
        <time>2011-06-02T12:58:40.000Z</time>
      </trkpt>
      <trkpt lat="43.2146" lon="6.62241">
        <ele>43.799999237061</ele>
        <time>2011-06-02T12:58:46.000Z</time>
      </trkpt>
      <trkpt lat="43.21441" lon="6.62228">
        <ele>44.400001525879</ele>
        <time>2011-06-02T12:58:50.000Z</time>
      </trkpt>
      <trkpt lat="43.21425" lon="6.62198">
        <ele>46.599998474121</ele>
        <time>2011-06-02T12:58:56.000Z</time>
      </trkpt>
      <trkpt lat="43.21408" lon="6.62164">
        <ele>48.599998474121</ele>
        <time>2011-06-02T12:59:03.000Z</time>
      </trkpt>
      <trkpt lat="43.21393" lon="6.62139">
        <ele>51</ele>
        <time>2011-06-02T12:59:10.000Z</time>
      </trkpt>
      <trkpt lat="43.21381" lon="6.62123">
        <ele>52</ele>
        <time>2011-06-02T12:59:16.000Z</time>
      </trkpt>
      <trkpt lat="43.21368" lon="6.6211">
        <ele>52.799999237061</ele>
        <time>2011-06-02T12:59:21.000Z</time>
      </trkpt>
      <trkpt lat="43.21362" lon="6.62104">
        <ele>53.599998474121</ele>
        <time>2011-06-02T12:59:27.000Z</time>
      </trkpt>
      <trkpt lat="43.21354" lon="6.62096">
        <ele>54</ele>
        <time>2011-06-02T12:59:34.000Z</time>
      </trkpt>
      <trkpt lat="43.21343" lon="6.62085">
        <ele>54.799999237061</ele>
        <time>2011-06-02T12:59:42.000Z</time>
      </trkpt>
      <trkpt lat="43.21326" lon="6.6207">
        <ele>55.599998474121</ele>
        <time>2011-06-02T12:59:52.000Z</time>
      </trkpt>
      <trkpt lat="43.21313" lon="6.62066">
        <ele>56</ele>
        <time>2011-06-02T12:59:57.000Z</time>
      </trkpt>
      <trkpt lat="43.21295" lon="6.62072">
        <ele>56.400001525879</ele>
        <time>2011-06-02T13:00:03.000Z</time>
      </trkpt>
      <trkpt lat="43.2127" lon="6.62082">
        <ele>55.799999237061</ele>
        <time>2011-06-02T13:00:10.000Z</time>
      </trkpt>
      <trkpt lat="43.21251" lon="6.6208">
        <ele>56</ele>
        <time>2011-06-02T13:00:15.000Z</time>
      </trkpt>
      <trkpt lat="43.21245" lon="6.62075">
        <ele>56.200000762939</ele>
        <time>2011-06-02T13:00:17.000Z</time>
      </trkpt>
      <trkpt lat="43.21229" lon="6.62053">
        <ele>56.200000762939</ele>
        <time>2011-06-02T13:00:23.000Z</time>
      </trkpt>
      <trkpt lat="43.21213" lon="6.62036">
        <ele>56.400001525879</ele>
        <time>2011-06-02T13:00:29.000Z</time>
      </trkpt>
      <trkpt lat="43.21199" lon="6.62039">
        <ele>56.200000762939</ele>
        <time>2011-06-02T13:00:33.000Z</time>
      </trkpt>
      <trkpt lat="43.21168" lon="6.62044">
        <ele>56</ele>
        <time>2011-06-02T13:00:40.000Z</time>
      </trkpt>
      <trkpt lat="43.21142" lon="6.62038">
        <ele>57.400001525879</ele>
        <time>2011-06-02T13:00:46.000Z</time>
      </trkpt>
      <trkpt lat="43.21137" lon="6.62037">
        <ele>57.400001525879</ele>
        <time>2011-06-02T13:00:47.000Z</time>
      </trkpt>
      <trkpt lat="43.21124" lon="6.62022">
        <ele>58</ele>
        <time>2011-06-02T13:00:51.000Z</time>
      </trkpt>
      <trkpt lat="43.21111" lon="6.62005">
        <ele>59.599998474121</ele>
        <time>2011-06-02T13:00:56.000Z</time>
      </trkpt>
      <trkpt lat="43.21107" lon="6.61994">
        <ele>60.200000762939</ele>
        <time>2011-06-02T13:00:59.000Z</time>
      </trkpt>
      <trkpt lat="43.21099" lon="6.61969">
        <ele>62.400001525879</ele>
        <time>2011-06-02T13:01:05.000Z</time>
      </trkpt>
      <trkpt lat="43.21091" lon="6.61951">
        <ele>64.599998474121</ele>
        <time>2011-06-02T13:01:12.000Z</time>
      </trkpt>
      <trkpt lat="43.21089" lon="6.61946">
        <ele>65.400001525879</ele>
        <time>2011-06-02T13:01:17.000Z</time>
      </trkpt>
      <trkpt lat="43.2109" lon="6.61949">
        <ele>65.800003051758</ele>
        <time>2011-06-02T13:02:34.000Z</time>
      </trkpt>
      <trkpt lat="43.21082" lon="6.61955">
        <ele>65.800003051758</ele>
        <time>2011-06-02T13:02:39.000Z</time>
      </trkpt>
      <trkpt lat="43.21075" lon="6.61966">
        <ele>65.800003051758</ele>
        <time>2011-06-02T13:02:42.000Z</time>
      </trkpt>
      <trkpt lat="43.21053" lon="6.61996">
        <ele>65</ele>
        <time>2011-06-02T13:02:48.000Z</time>
      </trkpt>
      <trkpt lat="43.21038" lon="6.62015">
        <ele>63.400001525879</ele>
        <time>2011-06-02T13:02:52.000Z</time>
      </trkpt>
      <trkpt lat="43.21025" lon="6.62028">
        <ele>61.599998474121</ele>
        <time>2011-06-02T13:02:56.000Z</time>
      </trkpt>
      <trkpt lat="43.21004" lon="6.62046">
        <ele>60</ele>
        <time>2011-06-02T13:03:00.000Z</time>
      </trkpt>
      <trkpt lat="43.20978" lon="6.62062">
        <ele>57</ele>
        <time>2011-06-02T13:03:05.000Z</time>
      </trkpt>
      <trkpt lat="43.20975" lon="6.62065">
        <ele>55.200000762939</ele>
        <time>2011-06-02T13:03:08.000Z</time>
      </trkpt>
      <trkpt lat="43.20973" lon="6.62067">
        <ele>55</ele>
        <time>2011-06-02T13:03:09.000Z</time>
      </trkpt>
      <trkpt lat="43.20966" lon="6.62076">
        <ele>54.400001525879</ele>
        <time>2011-06-02T13:03:14.000Z</time>
      </trkpt>
      <trkpt lat="43.20956" lon="6.62097">
        <ele>53.599998474121</ele>
        <time>2011-06-02T13:03:20.000Z</time>
      </trkpt>
      <trkpt lat="43.20955" lon="6.621">
        <ele>53.400001525879</ele>
        <time>2011-06-02T13:03:21.000Z</time>
      </trkpt>
      <trkpt lat="43.20952" lon="6.621">
        <ele>52.599998474121</ele>
        <time>2011-06-02T13:03:27.000Z</time>
      </trkpt>
      <trkpt lat="43.20949" lon="6.62099">
        <ele>52.799999237061</ele>
        <time>2011-06-02T13:03:45.000Z</time>
      </trkpt>
      <trkpt lat="43.2094" lon="6.62104">
        <ele>52.599998474121</ele>
        <time>2011-06-02T13:03:50.000Z</time>
      </trkpt>
      <trkpt lat="43.20923" lon="6.62102">
        <ele>52.599998474121</ele>
        <time>2011-06-02T13:03:54.000Z</time>
      </trkpt>
      <trkpt lat="43.20888" lon="6.62112">
        <ele>52.599998474121</ele>
        <time>2011-06-02T13:04:02.000Z</time>
      </trkpt>
      <trkpt lat="43.20859" lon="6.62131">
        <ele>52.200000762939</ele>
        <time>2011-06-02T13:04:07.000Z</time>
      </trkpt>
      <trkpt lat="43.20797" lon="6.62174">
        <ele>51.200000762939</ele>
        <time>2011-06-02T13:04:16.000Z</time>
      </trkpt>
      <trkpt lat="43.20782" lon="6.62183">
        <ele>50.400001525879</ele>
        <time>2011-06-02T13:04:18.000Z</time>
      </trkpt>
      <trkpt lat="43.20752" lon="6.62198">
        <ele>47.599998474121</ele>
        <time>2011-06-02T13:04:22.000Z</time>
      </trkpt>
      <trkpt lat="43.20711" lon="6.62207">
        <ele>47</ele>
        <time>2011-06-02T13:04:27.000Z</time>
      </trkpt>
      <trkpt lat="43.20647" lon="6.62203">
        <ele>45.599998474121</ele>
        <time>2011-06-02T13:04:34.000Z</time>
      </trkpt>
      <trkpt lat="43.20592" lon="6.62199">
        <ele>45</ele>
        <time>2011-06-02T13:04:41.000Z</time>
      </trkpt>
      <trkpt lat="43.20565" lon="6.62197">
        <ele>45</ele>
        <time>2011-06-02T13:04:45.000Z</time>
      </trkpt>
      <trkpt lat="43.20535" lon="6.62199">
        <ele>45</ele>
        <time>2011-06-02T13:04:50.000Z</time>
      </trkpt>
      <trkpt lat="43.20517" lon="6.62197">
        <ele>45.200000762939</ele>
        <time>2011-06-02T13:04:53.000Z</time>
      </trkpt>
      <trkpt lat="43.20492" lon="6.62194">
        <ele>45.799999237061</ele>
        <time>2011-06-02T13:04:57.000Z</time>
      </trkpt>
      <trkpt lat="43.20482" lon="6.62207">
        <ele>45.799999237061</ele>
        <time>2011-06-02T13:04:59.000Z</time>
      </trkpt>
      <trkpt lat="43.20455" lon="6.62264">
        <ele>44</ele>
        <time>2011-06-02T13:05:05.000Z</time>
      </trkpt>
      <trkpt lat="43.20418" lon="6.62316">
        <ele>42.200000762939</ele>
        <time>2011-06-02T13:05:11.000Z</time>
      </trkpt>
      <trkpt lat="43.20356" lon="6.62368">
        <ele>39.200000762939</ele>
        <time>2011-06-02T13:05:19.000Z</time>
      </trkpt>
      <trkpt lat="43.20319" lon="6.62392">
        <ele>38.400001525879</ele>
        <time>2011-06-02T13:05:24.000Z</time>
      </trkpt>
      <trkpt lat="43.20286" lon="6.62411">
        <ele>38.200000762939</ele>
        <time>2011-06-02T13:05:29.000Z</time>
      </trkpt>
      <trkpt lat="43.20238" lon="6.6243">
        <ele>38.200000762939</ele>
        <time>2011-06-02T13:05:37.000Z</time>
      </trkpt>
      <trkpt lat="43.20193" lon="6.62451">
        <ele>37.200000762939</ele>
        <time>2011-06-02T13:05:44.000Z</time>
      </trkpt>
      <trkpt lat="43.20186" lon="6.62453">
        <ele>37</ele>
        <time>2011-06-02T13:05:45.000Z</time>
      </trkpt>
      <trkpt lat="43.20136" lon="6.6246">
        <ele>37.200000762939</ele>
        <time>2011-06-02T13:05:52.000Z</time>
      </trkpt>
      <trkpt lat="43.201" lon="6.62462">
        <ele>38</ele>
        <time>2011-06-02T13:05:58.000Z</time>
      </trkpt>
      <trkpt lat="43.20078" lon="6.62463">
        <ele>38.799999237061</ele>
        <time>2011-06-02T13:06:02.000Z</time>
      </trkpt>
      <trkpt lat="43.2005" lon="6.62457">
        <ele>40</ele>
        <time>2011-06-02T13:06:07.000Z</time>
      </trkpt>
      <trkpt lat="43.20025" lon="6.62455">
        <ele>41</ele>
        <time>2011-06-02T13:06:12.000Z</time>
      </trkpt>
      <trkpt lat="43.19984" lon="6.6246">
        <ele>42</ele>
        <time>2011-06-02T13:06:20.000Z</time>
      </trkpt>
      <trkpt lat="43.19959" lon="6.62465">
        <ele>42.200000762939</ele>
        <time>2011-06-02T13:06:25.000Z</time>
      </trkpt>
      <trkpt lat="43.19909" lon="6.62471">
        <ele>43.599998474121</ele>
        <time>2011-06-02T13:06:34.000Z</time>
      </trkpt>
      <trkpt lat="43.19871" lon="6.62476">
        <ele>44.400001525879</ele>
        <time>2011-06-02T13:06:41.000Z</time>
      </trkpt>
      <trkpt lat="43.19835" lon="6.62483">
        <ele>44.599998474121</ele>
        <time>2011-06-02T13:06:48.000Z</time>
      </trkpt>
      <trkpt lat="43.1982" lon="6.62485">
        <ele>45</ele>
        <time>2011-06-02T13:06:51.000Z</time>
      </trkpt>
      <trkpt lat="43.19801" lon="6.62483">
        <ele>46</ele>
        <time>2011-06-02T13:06:55.000Z</time>
      </trkpt>
      <trkpt lat="43.19771" lon="6.62474">
        <ele>46.599998474121</ele>
        <time>2011-06-02T13:07:02.000Z</time>
      </trkpt>
      <trkpt lat="43.19745" lon="6.62472">
        <ele>47.400001525879</ele>
        <time>2011-06-02T13:07:09.000Z</time>
      </trkpt>
      <trkpt lat="43.19741" lon="6.62473">
        <ele>47.599998474121</ele>
        <time>2011-06-02T13:07:10.000Z</time>
      </trkpt>
      <trkpt lat="43.19722" lon="6.62478">
        <ele>48.200000762939</ele>
        <time>2011-06-02T13:07:15.000Z</time>
      </trkpt>
      <trkpt lat="43.19703" lon="6.62481">
        <ele>50</ele>
        <time>2011-06-02T13:07:21.000Z</time>
      </trkpt>
      <trkpt lat="43.19683" lon="6.62476">
        <ele>51.799999237061</ele>
        <time>2011-06-02T13:07:27.000Z</time>
      </trkpt>
      <trkpt lat="43.19652" lon="6.62465">
        <ele>53</ele>
        <time>2011-06-02T13:07:35.000Z</time>
      </trkpt>
      <trkpt lat="43.19636" lon="6.6245">
        <ele>54</ele>
        <time>2011-06-02T13:07:40.000Z</time>
      </trkpt>
      <trkpt lat="43.19611" lon="6.6243">
        <ele>56.400001525879</ele>
        <time>2011-06-02T13:07:48.000Z</time>
      </trkpt>
      <trkpt lat="43.19591" lon="6.6242">
        <ele>57.200000762939</ele>
        <time>2011-06-02T13:07:54.000Z</time>
      </trkpt>
      <trkpt lat="43.19568" lon="6.6242">
        <ele>58.599998474121</ele>
        <time>2011-06-02T13:08:00.000Z</time>
      </trkpt>
      <trkpt lat="43.19546" lon="6.62418">
        <ele>60</ele>
        <time>2011-06-02T13:08:07.000Z</time>
      </trkpt>
      <trkpt lat="43.19536" lon="6.62407">
        <ele>61.200000762939</ele>
        <time>2011-06-02T13:08:12.000Z</time>
      </trkpt>
      <trkpt lat="43.19525" lon="6.62398">
        <ele>63.400001525879</ele>
        <time>2011-06-02T13:08:18.000Z</time>
      </trkpt>
      <trkpt lat="43.19511" lon="6.62396">
        <ele>65.599998474121</ele>
        <time>2011-06-02T13:08:24.000Z</time>
      </trkpt>
      <trkpt lat="43.19497" lon="6.62396">
        <ele>67.400001525879</ele>
        <time>2011-06-02T13:08:30.000Z</time>
      </trkpt>
      <trkpt lat="43.19481" lon="6.62397">
        <ele>69</ele>
        <time>2011-06-02T13:08:37.000Z</time>
      </trkpt>
      <trkpt lat="43.19464" lon="6.62398">
        <ele>71.400001525879</ele>
        <time>2011-06-02T13:08:44.000Z</time>
      </trkpt>
      <trkpt lat="43.19449" lon="6.6239">
        <ele>73.599998474121</ele>
        <time>2011-06-02T13:08:50.000Z</time>
      </trkpt>
      <trkpt lat="43.19434" lon="6.62384">
        <ele>75.800003051758</ele>
        <time>2011-06-02T13:08:56.000Z</time>
      </trkpt>
      <trkpt lat="43.19421" lon="6.62386">
        <ele>77.199996948242</ele>
        <time>2011-06-02T13:09:01.000Z</time>
      </trkpt>
      <trkpt lat="43.19408" lon="6.62391">
        <ele>79.199996948242</ele>
        <time>2011-06-02T13:09:07.000Z</time>
      </trkpt>
      <trkpt lat="43.19397" lon="6.62403">
        <ele>81.199996948242</ele>
        <time>2011-06-02T13:09:13.000Z</time>
      </trkpt>
      <trkpt lat="43.19381" lon="6.62417">
        <ele>83.199996948242</ele>
        <time>2011-06-02T13:09:20.000Z</time>
      </trkpt>
      <trkpt lat="43.19366" lon="6.62422">
        <ele>84.599998474121</ele>
        <time>2011-06-02T13:09:26.000Z</time>
      </trkpt>
      <trkpt lat="43.19344" lon="6.62425">
        <ele>86.800003051758</ele>
        <time>2011-06-02T13:09:35.000Z</time>
      </trkpt>
      <trkpt lat="43.19334" lon="6.6243">
        <ele>88.199996948242</ele>
        <time>2011-06-02T13:09:40.000Z</time>
      </trkpt>
      <trkpt lat="43.19319" lon="6.62432">
        <ele>89.400001525879</ele>
        <time>2011-06-02T13:09:46.000Z</time>
      </trkpt>
      <trkpt lat="43.19306" lon="6.62429">
        <ele>90.800003051758</ele>
        <time>2011-06-02T13:09:51.000Z</time>
      </trkpt>
      <trkpt lat="43.19305" lon="6.62411">
        <ele>93.400001525879</ele>
        <time>2011-06-02T13:09:57.000Z</time>
      </trkpt>
      <trkpt lat="43.19311" lon="6.62387">
        <ele>96.800003051758</ele>
        <time>2011-06-02T13:10:04.000Z</time>
      </trkpt>
      <trkpt lat="43.19319" lon="6.62364">
        <ele>99.199996948242</ele>
        <time>2011-06-02T13:10:11.000Z</time>
      </trkpt>
      <trkpt lat="43.19319" lon="6.62358">
        <ele>99.599998474121</ele>
        <time>2011-06-02T13:10:13.000Z</time>
      </trkpt>
      <trkpt lat="43.1931" lon="6.62352">
        <ele>101</ele>
        <time>2011-06-02T13:10:17.000Z</time>
      </trkpt>
      <trkpt lat="43.19303" lon="6.6236">
        <ele>102</ele>
        <time>2011-06-02T13:10:20.000Z</time>
      </trkpt>
      <trkpt lat="43.19283" lon="6.62393">
        <ele>105</ele>
        <time>2011-06-02T13:10:30.000Z</time>
      </trkpt>
      <trkpt lat="43.19265" lon="6.6242">
        <ele>106.80000305176</ele>
        <time>2011-06-02T13:10:38.000Z</time>
      </trkpt>
      <trkpt lat="43.19252" lon="6.6244">
        <ele>109.59999847412</ele>
        <time>2011-06-02T13:10:45.000Z</time>
      </trkpt>
      <trkpt lat="43.19239" lon="6.62463">
        <ele>111.40000152588</ele>
        <time>2011-06-02T13:10:52.000Z</time>
      </trkpt>
      <trkpt lat="43.19227" lon="6.62483">
        <ele>113.19999694824</ele>
        <time>2011-06-02T13:10:59.000Z</time>
      </trkpt>
      <trkpt lat="43.19219" lon="6.62494">
        <ele>114.19999694824</ele>
        <time>2011-06-02T13:11:06.000Z</time>
      </trkpt>
      <trkpt lat="43.19216" lon="6.62495">
        <ele>114.59999847412</ele>
        <time>2011-06-02T13:11:11.000Z</time>
      </trkpt>
      <trkpt lat="43.19216" lon="6.62494">
        <ele>114.80000305176</ele>
        <time>2011-06-02T13:11:12.000Z</time>
      </trkpt>
      <trkpt lat="43.19216" lon="6.62491">
        <ele>114.80000305176</ele>
        <time>2011-06-02T13:11:14.000Z</time>
      </trkpt>
      <trkpt lat="43.19222" lon="6.6249">
        <ele>114.19999694824</ele>
        <time>2011-06-02T13:11:20.000Z</time>
      </trkpt>
      <trkpt lat="43.1922" lon="6.62491">
        <ele>114.19999694824</ele>
        <time>2011-06-02T13:11:23.000Z</time>
      </trkpt>
      <trkpt lat="43.19212" lon="6.62488">
        <ele>114.80000305176</ele>
        <time>2011-06-02T13:11:30.000Z</time>
      </trkpt>
      <trkpt lat="43.19208" lon="6.62487">
        <ele>115.59999847412</ele>
        <time>2011-06-02T13:11:34.000Z</time>
      </trkpt>
      <trkpt lat="43.19204" lon="6.62487">
        <ele>116.80000305176</ele>
        <time>2011-06-02T13:11:40.000Z</time>
      </trkpt>
      <trkpt lat="43.19213" lon="6.62489">
        <ele>116.19999694824</ele>
        <time>2011-06-02T13:11:45.000Z</time>
      </trkpt>
      <trkpt lat="43.19216" lon="6.62496">
        <ele>114.80000305176</ele>
        <time>2011-06-02T13:11:49.000Z</time>
      </trkpt>
      <trkpt lat="43.19211" lon="6.62501">
        <ele>115</ele>
        <time>2011-06-02T13:11:53.000Z</time>
      </trkpt>
      <trkpt lat="43.19209" lon="6.62501">
        <ele>114.80000305176</ele>
        <time>2011-06-02T13:11:58.000Z</time>
      </trkpt>
      <trkpt lat="43.1921" lon="6.62504">
        <ele>115</ele>
        <time>2011-06-02T13:12:35.000Z</time>
      </trkpt>
      <trkpt lat="43.19206" lon="6.62504">
        <ele>115.19999694824</ele>
        <time>2011-06-02T13:15:15.000Z</time>
      </trkpt>
      <trkpt lat="43.19199" lon="6.62505">
        <ele>114.80000305176</ele>
        <time>2011-06-02T13:16:01.000Z</time>
      </trkpt>
      <trkpt lat="43.19183" lon="6.6251">
        <ele>114.40000152588</ele>
        <time>2011-06-02T13:16:05.000Z</time>
      </trkpt>
      <trkpt lat="43.19151" lon="6.62536">
        <ele>111.80000305176</ele>
        <time>2011-06-02T13:16:10.000Z</time>
      </trkpt>
      <trkpt lat="43.19146" lon="6.62543">
        <ele>111</ele>
        <time>2011-06-02T13:16:11.000Z</time>
      </trkpt>
      <trkpt lat="43.19106" lon="6.62598">
        <ele>107.40000152588</ele>
        <time>2011-06-02T13:16:18.000Z</time>
      </trkpt>
      <trkpt lat="43.19094" lon="6.62612">
        <ele>106.59999847412</ele>
        <time>2011-06-02T13:16:20.000Z</time>
      </trkpt>
      <trkpt lat="43.19066" lon="6.62629">
        <ele>105.19999694824</ele>
        <time>2011-06-02T13:16:24.000Z</time>
      </trkpt>
      <trkpt lat="43.19059" lon="6.6263">
        <ele>105</ele>
        <time>2011-06-02T13:16:25.000Z</time>
      </trkpt>
      <trkpt lat="43.19045" lon="6.62631">
        <ele>104.59999847412</ele>
        <time>2011-06-02T13:16:27.000Z</time>
      </trkpt>
      <trkpt lat="43.19027" lon="6.62623">
        <ele>103.19999694824</ele>
        <time>2011-06-02T13:16:30.000Z</time>
      </trkpt>
      <trkpt lat="43.19019" lon="6.62599">
        <ele>102.59999847412</ele>
        <time>2011-06-02T13:16:33.000Z</time>
      </trkpt>
      <trkpt lat="43.19005" lon="6.62586">
        <ele>101.40000152588</ele>
        <time>2011-06-02T13:16:36.000Z</time>
      </trkpt>
      <trkpt lat="43.18984" lon="6.6259">
        <ele>100.19999694824</ele>
        <time>2011-06-02T13:16:39.000Z</time>
      </trkpt>
      <trkpt lat="43.18947" lon="6.62609">
        <ele>97.800003051758</ele>
        <time>2011-06-02T13:16:44.000Z</time>
      </trkpt>
      <trkpt lat="43.18912" lon="6.62619">
        <ele>95</ele>
        <time>2011-06-02T13:16:48.000Z</time>
      </trkpt>
      <trkpt lat="43.18891" lon="6.62638">
        <ele>93.199996948242</ele>
        <time>2011-06-02T13:16:51.000Z</time>
      </trkpt>
      <trkpt lat="43.18854" lon="6.62676">
        <ele>90.599998474121</ele>
        <time>2011-06-02T13:16:56.000Z</time>
      </trkpt>
      <trkpt lat="43.18813" lon="6.62713">
        <ele>87.199996948242</ele>
        <time>2011-06-02T13:17:01.000Z</time>
      </trkpt>
      <trkpt lat="43.18753" lon="6.62742">
        <ele>83.400001525879</ele>
        <time>2011-06-02T13:17:07.000Z</time>
      </trkpt>
      <trkpt lat="43.18743" lon="6.62745">
        <ele>82.599998474121</ele>
        <time>2011-06-02T13:17:08.000Z</time>
      </trkpt>
      <trkpt lat="43.18703" lon="6.62748">
        <ele>79.199996948242</ele>
        <time>2011-06-02T13:17:12.000Z</time>
      </trkpt>
      <trkpt lat="43.18679" lon="6.6274">
        <ele>76.599998474121</ele>
        <time>2011-06-02T13:17:15.000Z</time>
      </trkpt>
      <trkpt lat="43.18663" lon="6.62753">
        <ele>75.199996948242</ele>
        <time>2011-06-02T13:17:17.000Z</time>
      </trkpt>
      <trkpt lat="43.18624" lon="6.62769">
        <ele>72.199996948242</ele>
        <time>2011-06-02T13:17:22.000Z</time>
      </trkpt>
      <trkpt lat="43.1858" lon="6.62787">
        <ele>68.400001525879</ele>
        <time>2011-06-02T13:17:27.000Z</time>
      </trkpt>
      <trkpt lat="43.18557" lon="6.62806">
        <ele>65.800003051758</ele>
        <time>2011-06-02T13:17:30.000Z</time>
      </trkpt>
      <trkpt lat="43.18549" lon="6.62809">
        <ele>65</ele>
        <time>2011-06-02T13:17:31.000Z</time>
      </trkpt>
      <trkpt lat="43.18531" lon="6.62812">
        <ele>63.599998474121</ele>
        <time>2011-06-02T13:17:33.000Z</time>
      </trkpt>
      <trkpt lat="43.18479" lon="6.62839">
        <ele>60.200000762939</ele>
        <time>2011-06-02T13:17:39.000Z</time>
      </trkpt>
      <trkpt lat="43.18446" lon="6.62862">
        <ele>59</ele>
        <time>2011-06-02T13:17:43.000Z</time>
      </trkpt>
      <trkpt lat="43.18415" lon="6.62891">
        <ele>58</ele>
        <time>2011-06-02T13:17:47.000Z</time>
      </trkpt>
      <trkpt lat="43.18386" lon="6.62903">
        <ele>55.599998474121</ele>
        <time>2011-06-02T13:17:51.000Z</time>
      </trkpt>
      <trkpt lat="43.18379" lon="6.62901">
        <ele>55</ele>
        <time>2011-06-02T13:17:52.000Z</time>
      </trkpt>
      <trkpt lat="43.18328" lon="6.62894">
        <ele>51.400001525879</ele>
        <time>2011-06-02T13:17:58.000Z</time>
      </trkpt>
      <trkpt lat="43.18281" lon="6.62892">
        <ele>47</ele>
        <time>2011-06-02T13:18:03.000Z</time>
      </trkpt>
      <trkpt lat="43.18245" lon="6.62871">
        <ele>43.599998474121</ele>
        <time>2011-06-02T13:18:07.000Z</time>
      </trkpt>
      <trkpt lat="43.18219" lon="6.62864">
        <ele>41.400001525879</ele>
        <time>2011-06-02T13:18:10.000Z</time>
      </trkpt>
      <trkpt lat="43.18201" lon="6.62861">
        <ele>40.599998474121</ele>
        <time>2011-06-02T13:18:12.000Z</time>
      </trkpt>
      <trkpt lat="43.18162" lon="6.62854">
        <ele>38</ele>
        <time>2011-06-02T13:18:16.000Z</time>
      </trkpt>
      <trkpt lat="43.18129" lon="6.62829">
        <ele>35</ele>
        <time>2011-06-02T13:18:20.000Z</time>
      </trkpt>
      <trkpt lat="43.18107" lon="6.6281">
        <ele>33</ele>
        <time>2011-06-02T13:18:23.000Z</time>
      </trkpt>
      <trkpt lat="43.18094" lon="6.62796">
        <ele>32</ele>
        <time>2011-06-02T13:18:25.000Z</time>
      </trkpt>
      <trkpt lat="43.18062" lon="6.62783">
        <ele>28.60000038147</ele>
        <time>2011-06-02T13:18:29.000Z</time>
      </trkpt>
      <trkpt lat="43.18044" lon="6.62779">
        <ele>27.200000762939</ele>
        <time>2011-06-02T13:18:31.000Z</time>
      </trkpt>
      <trkpt lat="43.18001" lon="6.62752">
        <ele>25</ele>
        <time>2011-06-02T13:18:36.000Z</time>
      </trkpt>
      <trkpt lat="43.17977" lon="6.62719">
        <ele>24.39999961853</ele>
        <time>2011-06-02T13:18:40.000Z</time>
      </trkpt>
      <trkpt lat="43.1797" lon="6.62711">
        <ele>24</ele>
        <time>2011-06-02T13:18:41.000Z</time>
      </trkpt>
      <trkpt lat="43.17927" lon="6.6268">
        <ele>23.60000038147</ele>
        <time>2011-06-02T13:18:47.000Z</time>
      </trkpt>
      <trkpt lat="43.17885" lon="6.62655">
        <ele>22.39999961853</ele>
        <time>2011-06-02T13:18:54.000Z</time>
      </trkpt>
      <trkpt lat="43.17878" lon="6.62651">
        <ele>22</ele>
        <time>2011-06-02T13:18:55.000Z</time>
      </trkpt>
      <trkpt lat="43.17851" lon="6.62648">
        <ele>20.200000762939</ele>
        <time>2011-06-02T13:18:59.000Z</time>
      </trkpt>
      <trkpt lat="43.17827" lon="6.62657">
        <ele>19.200000762939</ele>
        <time>2011-06-02T13:19:03.000Z</time>
      </trkpt>
      <trkpt lat="43.17825" lon="6.62658">
        <ele>19</ele>
        <time>2011-06-02T13:19:04.000Z</time>
      </trkpt>
      <trkpt lat="43.17819" lon="6.62652">
        <ele>17.39999961853</ele>
        <time>2011-06-02T13:19:09.000Z</time>
      </trkpt>
      <trkpt lat="43.17815" lon="6.62646">
        <ele>17.39999961853</ele>
        <time>2011-06-02T13:20:12.000Z</time>
      </trkpt>
      <trkpt lat="43.178" lon="6.62634">
        <ele>18.200000762939</ele>
        <time>2011-06-02T13:20:17.000Z</time>
      </trkpt>
      <trkpt lat="43.17769" lon="6.62616">
        <ele>19</ele>
        <time>2011-06-02T13:20:26.000Z</time>
      </trkpt>
      <trkpt lat="43.1776" lon="6.62603">
        <ele>19.60000038147</ele>
        <time>2011-06-02T13:20:30.000Z</time>
      </trkpt>
      <trkpt lat="43.17752" lon="6.62575">
        <ele>21.200000762939</ele>
        <time>2011-06-02T13:20:37.000Z</time>
      </trkpt>
      <trkpt lat="43.17753" lon="6.62554">
        <ele>22</ele>
        <time>2011-06-02T13:20:42.000Z</time>
      </trkpt>
      <trkpt lat="43.17756" lon="6.62517">
        <ele>23.200000762939</ele>
        <time>2011-06-02T13:20:50.000Z</time>
      </trkpt>
      <trkpt lat="43.17758" lon="6.62484">
        <ele>24.60000038147</ele>
        <time>2011-06-02T13:20:57.000Z</time>
      </trkpt>
      <trkpt lat="43.1776" lon="6.62454">
        <ele>25.200000762939</ele>
        <time>2011-06-02T13:21:03.000Z</time>
      </trkpt>
      <trkpt lat="43.17758" lon="6.62432">
        <ele>25.60000038147</ele>
        <time>2011-06-02T13:21:08.000Z</time>
      </trkpt>
      <trkpt lat="43.17756" lon="6.6241">
        <ele>25.799999237061</ele>
        <time>2011-06-02T13:21:13.000Z</time>
      </trkpt>
      <trkpt lat="43.17756" lon="6.62405">
        <ele>25.799999237061</ele>
        <time>2011-06-02T13:21:14.000Z</time>
      </trkpt>
      <trkpt lat="43.17746" lon="6.62353">
        <ele>26.799999237061</ele>
        <time>2011-06-02T13:21:23.000Z</time>
      </trkpt>
      <trkpt lat="43.17739" lon="6.62322">
        <ele>28.60000038147</ele>
        <time>2011-06-02T13:21:30.000Z</time>
      </trkpt>
      <trkpt lat="43.17733" lon="6.62299">
        <ele>30</ele>
        <time>2011-06-02T13:21:36.000Z</time>
      </trkpt>
      <trkpt lat="43.17727" lon="6.62272">
        <ele>30.60000038147</ele>
        <time>2011-06-02T13:21:43.000Z</time>
      </trkpt>
      <trkpt lat="43.17721" lon="6.6225">
        <ele>30.60000038147</ele>
        <time>2011-06-02T13:21:48.000Z</time>
      </trkpt>
      <trkpt lat="43.17713" lon="6.62219">
        <ele>30.60000038147</ele>
        <time>2011-06-02T13:21:54.000Z</time>
      </trkpt>
      <trkpt lat="43.17706" lon="6.62189">
        <ele>30.60000038147</ele>
        <time>2011-06-02T13:22:00.000Z</time>
      </trkpt>
      <trkpt lat="43.17704" lon="6.62154">
        <ele>30.60000038147</ele>
        <time>2011-06-02T13:22:06.000Z</time>
      </trkpt>
      <trkpt lat="43.17705" lon="6.62125">
        <ele>31.60000038147</ele>
        <time>2011-06-02T13:22:12.000Z</time>
      </trkpt>
      <trkpt lat="43.17697" lon="6.62096">
        <ele>33.200000762939</ele>
        <time>2011-06-02T13:22:19.000Z</time>
      </trkpt>
      <trkpt lat="43.17692" lon="6.62073">
        <ele>34.799999237061</ele>
        <time>2011-06-02T13:22:25.000Z</time>
      </trkpt>
      <trkpt lat="43.17689" lon="6.62049">
        <ele>36.200000762939</ele>
        <time>2011-06-02T13:22:32.000Z</time>
      </trkpt>
      <trkpt lat="43.17687" lon="6.62023">
        <ele>38.400001525879</ele>
        <time>2011-06-02T13:22:40.000Z</time>
      </trkpt>
      <trkpt lat="43.17687" lon="6.62002">
        <ele>40</ele>
        <time>2011-06-02T13:22:47.000Z</time>
      </trkpt>
      <trkpt lat="43.17687" lon="6.61987">
        <ele>41</ele>
        <time>2011-06-02T13:22:52.000Z</time>
      </trkpt>
      <trkpt lat="43.17691" lon="6.61969">
        <ele>41.799999237061</ele>
        <time>2011-06-02T13:22:57.000Z</time>
      </trkpt>
      <trkpt lat="43.17697" lon="6.61947">
        <ele>43.200000762939</ele>
        <time>2011-06-02T13:23:04.000Z</time>
      </trkpt>
      <trkpt lat="43.177" lon="6.61932">
        <ele>44</ele>
        <time>2011-06-02T13:23:09.000Z</time>
      </trkpt>
      <trkpt lat="43.177" lon="6.61926">
        <ele>44.400001525879</ele>
        <time>2011-06-02T13:23:11.000Z</time>
      </trkpt>
      <trkpt lat="43.1769" lon="6.61912">
        <ele>45.200000762939</ele>
        <time>2011-06-02T13:23:16.000Z</time>
      </trkpt>
      <trkpt lat="43.17678" lon="6.61897">
        <ele>47.200000762939</ele>
        <time>2011-06-02T13:23:22.000Z</time>
      </trkpt>
      <trkpt lat="43.17667" lon="6.61881">
        <ele>49</ele>
        <time>2011-06-02T13:23:28.000Z</time>
      </trkpt>
      <trkpt lat="43.17657" lon="6.61865">
        <ele>49.599998474121</ele>
        <time>2011-06-02T13:23:34.000Z</time>
      </trkpt>
      <trkpt lat="43.17645" lon="6.61844">
        <ele>50.400001525879</ele>
        <time>2011-06-02T13:23:41.000Z</time>
      </trkpt>
      <trkpt lat="43.17636" lon="6.61822">
        <ele>51.400001525879</ele>
        <time>2011-06-02T13:23:48.000Z</time>
      </trkpt>
      <trkpt lat="43.17629" lon="6.61801">
        <ele>52.200000762939</ele>
        <time>2011-06-02T13:23:54.000Z</time>
      </trkpt>
      <trkpt lat="43.17614" lon="6.61785">
        <ele>52.799999237061</ele>
        <time>2011-06-02T13:24:01.000Z</time>
      </trkpt>
      <trkpt lat="43.17599" lon="6.61762">
        <ele>53.799999237061</ele>
        <time>2011-06-02T13:24:10.000Z</time>
      </trkpt>
      <trkpt lat="43.17586" lon="6.61749">
        <ele>54.799999237061</ele>
        <time>2011-06-02T13:24:17.000Z</time>
      </trkpt>
      <trkpt lat="43.17574" lon="6.61742">
        <ele>55.799999237061</ele>
        <time>2011-06-02T13:24:23.000Z</time>
      </trkpt>
      <trkpt lat="43.17561" lon="6.61731">
        <ele>57</ele>
        <time>2011-06-02T13:24:30.000Z</time>
      </trkpt>
      <trkpt lat="43.17554" lon="6.6171">
        <ele>58.599998474121</ele>
        <time>2011-06-02T13:24:37.000Z</time>
      </trkpt>
      <trkpt lat="43.17549" lon="6.61682">
        <ele>61</ele>
        <time>2011-06-02T13:24:45.000Z</time>
      </trkpt>
      <trkpt lat="43.17544" lon="6.6166">
        <ele>62.599998474121</ele>
        <time>2011-06-02T13:24:53.000Z</time>
      </trkpt>
      <trkpt lat="43.17534" lon="6.61659">
        <ele>63.200000762939</ele>
        <time>2011-06-02T13:24:58.000Z</time>
      </trkpt>
      <trkpt lat="43.17533" lon="6.61661">
        <ele>63.799999237061</ele>
        <time>2011-06-02T13:25:02.000Z</time>
      </trkpt>
      <trkpt lat="43.17532" lon="6.61662">
        <ele>64</ele>
        <time>2011-06-02T13:25:08.000Z</time>
      </trkpt>
      <trkpt lat="43.1753" lon="6.61661">
        <ele>64.199996948242</ele>
        <time>2011-06-02T13:25:10.000Z</time>
      </trkpt>
      <trkpt lat="43.17526" lon="6.61664">
        <ele>64.599998474121</ele>
        <time>2011-06-02T13:25:14.000Z</time>
      </trkpt>
      <trkpt lat="43.17517" lon="6.61667">
        <ele>65.800003051758</ele>
        <time>2011-06-02T13:25:23.000Z</time>
      </trkpt>
      <trkpt lat="43.17506" lon="6.61669">
        <ele>67.599998474121</ele>
        <time>2011-06-02T13:25:31.000Z</time>
      </trkpt>
      <trkpt lat="43.17493" lon="6.61665">
        <ele>71</ele>
        <time>2011-06-02T13:25:40.000Z</time>
      </trkpt>
      <trkpt lat="43.17486" lon="6.6166">
        <ele>72.599998474121</ele>
        <time>2011-06-02T13:25:45.000Z</time>
      </trkpt>
      <trkpt lat="43.17478" lon="6.61651">
        <ele>74.599998474121</ele>
        <time>2011-06-02T13:25:52.000Z</time>
      </trkpt>
      <trkpt lat="43.17469" lon="6.61645">
        <ele>77</ele>
        <time>2011-06-02T13:25:59.000Z</time>
      </trkpt>
      <trkpt lat="43.17459" lon="6.61637">
        <ele>79.400001525879</ele>
        <time>2011-06-02T13:26:07.000Z</time>
      </trkpt>
      <trkpt lat="43.1745" lon="6.61631">
        <ele>81.400001525879</ele>
        <time>2011-06-02T13:26:14.000Z</time>
      </trkpt>
      <trkpt lat="43.17436" lon="6.61625">
        <ele>84.199996948242</ele>
        <time>2011-06-02T13:26:24.000Z</time>
      </trkpt>
      <trkpt lat="43.17423" lon="6.61621">
        <ele>86.800003051758</ele>
        <time>2011-06-02T13:26:33.000Z</time>
      </trkpt>
      <trkpt lat="43.17414" lon="6.61622">
        <ele>89.400001525879</ele>
        <time>2011-06-02T13:26:41.000Z</time>
      </trkpt>
      <trkpt lat="43.17412" lon="6.61622">
        <ele>89.400001525879</ele>
        <time>2011-06-02T13:26:42.000Z</time>
      </trkpt>
      <trkpt lat="43.17409" lon="6.61625">
        <ele>90.599998474121</ele>
        <time>2011-06-02T13:26:46.000Z</time>
      </trkpt>
      <trkpt lat="43.17399" lon="6.61633">
        <ele>93.800003051758</ele>
        <time>2011-06-02T13:26:54.000Z</time>
      </trkpt>
      <trkpt lat="43.17397" lon="6.61638">
        <ele>95.199996948242</ele>
        <time>2011-06-02T13:26:57.000Z</time>
      </trkpt>
      <trkpt lat="43.17391" lon="6.61648">
        <ele>98.400001525879</ele>
        <time>2011-06-02T13:27:04.000Z</time>
      </trkpt>
      <trkpt lat="43.17382" lon="6.61658">
        <ele>100.80000305176</ele>
        <time>2011-06-02T13:27:12.000Z</time>
      </trkpt>
      <trkpt lat="43.17373" lon="6.61668">
        <ele>103.19999694824</ele>
        <time>2011-06-02T13:27:21.000Z</time>
      </trkpt>
      <trkpt lat="43.17363" lon="6.61681">
        <ele>106</ele>
        <time>2011-06-02T13:27:30.000Z</time>
      </trkpt>
      <trkpt lat="43.17352" lon="6.61686">
        <ele>107.19999694824</ele>
        <time>2011-06-02T13:27:37.000Z</time>
      </trkpt>
      <trkpt lat="43.17341" lon="6.61693">
        <ele>108.40000152588</ele>
        <time>2011-06-02T13:27:45.000Z</time>
      </trkpt>
      <trkpt lat="43.17331" lon="6.61701">
        <ele>109.59999847412</ele>
        <time>2011-06-02T13:27:51.000Z</time>
      </trkpt>
      <trkpt lat="43.17322" lon="6.61706">
        <ele>110.80000305176</ele>
        <time>2011-06-02T13:27:56.000Z</time>
      </trkpt>
      <trkpt lat="43.17308" lon="6.61713">
        <ele>112.19999694824</ele>
        <time>2011-06-02T13:28:03.000Z</time>
      </trkpt>
      <trkpt lat="43.17298" lon="6.61719">
        <ele>113.40000152588</ele>
        <time>2011-06-02T13:28:09.000Z</time>
      </trkpt>
      <trkpt lat="43.1729" lon="6.61725">
        <ele>114.40000152588</ele>
        <time>2011-06-02T13:28:14.000Z</time>
      </trkpt>
      <trkpt lat="43.17274" lon="6.61732">
        <ele>115.40000152588</ele>
        <time>2011-06-02T13:28:20.000Z</time>
      </trkpt>
      <trkpt lat="43.17257" lon="6.61736">
        <ele>116.40000152588</ele>
        <time>2011-06-02T13:28:29.000Z</time>
      </trkpt>
      <trkpt lat="43.17246" lon="6.61736">
        <ele>117.59999847412</ele>
        <time>2011-06-02T13:28:36.000Z</time>
      </trkpt>
      <trkpt lat="43.17228" lon="6.61738">
        <ele>119.59999847412</ele>
        <time>2011-06-02T13:28:45.000Z</time>
      </trkpt>
      <trkpt lat="43.17213" lon="6.61738">
        <ele>120.40000152588</ele>
        <time>2011-06-02T13:28:52.000Z</time>
      </trkpt>
      <trkpt lat="43.17194" lon="6.61738">
        <ele>121</ele>
        <time>2011-06-02T13:29:00.000Z</time>
      </trkpt>
      <trkpt lat="43.17177" lon="6.61738">
        <ele>122</ele>
        <time>2011-06-02T13:29:07.000Z</time>
      </trkpt>
      <trkpt lat="43.17169" lon="6.61741">
        <ele>122.40000152588</ele>
        <time>2011-06-02T13:29:11.000Z</time>
      </trkpt>
      <trkpt lat="43.17153" lon="6.61747">
        <ele>123.80000305176</ele>
        <time>2011-06-02T13:29:19.000Z</time>
      </trkpt>
      <trkpt lat="43.17143" lon="6.61754">
        <ele>124.80000305176</ele>
        <time>2011-06-02T13:29:24.000Z</time>
      </trkpt>
      <trkpt lat="43.17129" lon="6.61763">
        <ele>126.40000152588</ele>
        <time>2011-06-02T13:29:32.000Z</time>
      </trkpt>
      <trkpt lat="43.1711" lon="6.61772">
        <ele>128.60000610352</ele>
        <time>2011-06-02T13:29:41.000Z</time>
      </trkpt>
      <trkpt lat="43.17093" lon="6.61774">
        <ele>131.19999694824</ele>
        <time>2011-06-02T13:29:49.000Z</time>
      </trkpt>
      <trkpt lat="43.17079" lon="6.61771">
        <ele>133.19999694824</ele>
        <time>2011-06-02T13:29:56.000Z</time>
      </trkpt>
      <trkpt lat="43.1706" lon="6.61752">
        <ele>135</ele>
        <time>2011-06-02T13:30:04.000Z</time>
      </trkpt>
      <trkpt lat="43.17039" lon="6.61732">
        <ele>135.39999389648</ele>
        <time>2011-06-02T13:30:12.000Z</time>
      </trkpt>
      <trkpt lat="43.1702" lon="6.61728">
        <ele>136.60000610352</ele>
        <time>2011-06-02T13:30:18.000Z</time>
      </trkpt>
      <trkpt lat="43.16995" lon="6.61723">
        <ele>137.80000305176</ele>
        <time>2011-06-02T13:30:26.000Z</time>
      </trkpt>
      <trkpt lat="43.16971" lon="6.61723">
        <ele>138.39999389648</ele>
        <time>2011-06-02T13:30:33.000Z</time>
      </trkpt>
      <trkpt lat="43.16957" lon="6.61712">
        <ele>139.80000305176</ele>
        <time>2011-06-02T13:30:38.000Z</time>
      </trkpt>
      <trkpt lat="43.16946" lon="6.61698">
        <ele>140.60000610352</ele>
        <time>2011-06-02T13:30:44.000Z</time>
      </trkpt>
      <trkpt lat="43.16945" lon="6.61697">
        <ele>140.60000610352</ele>
        <time>2011-06-02T13:30:48.000Z</time>
      </trkpt>
      <trkpt lat="43.1694" lon="6.61692">
        <ele>140.60000610352</ele>
        <time>2011-06-02T13:31:11.000Z</time>
      </trkpt>
      <trkpt lat="43.16935" lon="6.61672">
        <ele>141.19999694824</ele>
        <time>2011-06-02T13:31:19.000Z</time>
      </trkpt>
      <trkpt lat="43.16927" lon="6.61648">
        <ele>143</ele>
        <time>2011-06-02T13:31:25.000Z</time>
      </trkpt>
      <trkpt lat="43.16926" lon="6.61633">
        <ele>143.80000305176</ele>
        <time>2011-06-02T13:31:30.000Z</time>
      </trkpt>
      <trkpt lat="43.16935" lon="6.61622">
        <ele>144.19999694824</ele>
        <time>2011-06-02T13:31:35.000Z</time>
      </trkpt>
      <trkpt lat="43.1694" lon="6.61618">
        <ele>143.39999389648</ele>
        <time>2011-06-02T13:31:39.000Z</time>
      </trkpt>
      <trkpt lat="43.1694" lon="6.61618">
        <ele>142.80000305176</ele>
        <time>2011-06-02T13:31:43.000Z</time>
      </trkpt>
      <trkpt lat="43.16932" lon="6.6162">
        <ele>143.19999694824</ele>
        <time>2011-06-02T13:31:50.000Z</time>
      </trkpt>
      <trkpt lat="43.16924" lon="6.61618">
        <ele>143.80000305176</ele>
        <time>2011-06-02T13:31:54.000Z</time>
      </trkpt>
      <trkpt lat="43.16907" lon="6.61607">
        <ele>144.80000305176</ele>
        <time>2011-06-02T13:32:01.000Z</time>
      </trkpt>
      <trkpt lat="43.16889" lon="6.61588">
        <ele>147.39999389648</ele>
        <time>2011-06-02T13:32:09.000Z</time>
      </trkpt>
      <trkpt lat="43.16878" lon="6.61582">
        <ele>148.19999694824</ele>
        <time>2011-06-02T13:32:13.000Z</time>
      </trkpt>
      <trkpt lat="43.16874" lon="6.61578">
        <ele>148.19999694824</ele>
        <time>2011-06-02T13:32:14.000Z</time>
      </trkpt>
      <trkpt lat="43.16857" lon="6.61569">
        <ele>148</ele>
        <time>2011-06-02T13:32:18.000Z</time>
      </trkpt>
      <trkpt lat="43.16848" lon="6.61567">
        <ele>147.60000610352</ele>
        <time>2011-06-02T13:32:21.000Z</time>
      </trkpt>
      <trkpt lat="43.16843" lon="6.61581">
        <ele>147.19999694824</ele>
        <time>2011-06-02T13:32:26.000Z</time>
      </trkpt>
      <trkpt lat="43.16838" lon="6.61595">
        <ele>147.19999694824</ele>
        <time>2011-06-02T13:32:30.000Z</time>
      </trkpt>
      <trkpt lat="43.16838" lon="6.616">
        <ele>147</ele>
        <time>2011-06-02T13:32:33.000Z</time>
      </trkpt>
      <trkpt lat="43.16837" lon="6.61601">
        <ele>146.60000610352</ele>
        <time>2011-06-02T13:32:39.000Z</time>
      </trkpt>
      <trkpt lat="43.16839" lon="6.61593">
        <ele>147</ele>
        <time>2011-06-02T13:32:44.000Z</time>
      </trkpt>
      <trkpt lat="43.16844" lon="6.61587">
        <ele>147</ele>
        <time>2011-06-02T13:32:47.000Z</time>
      </trkpt>
      <trkpt lat="43.16851" lon="6.61574">
        <ele>147.19999694824</ele>
        <time>2011-06-02T13:32:53.000Z</time>
      </trkpt>
      <trkpt lat="43.16852" lon="6.61571">
        <ele>147</ele>
        <time>2011-06-02T13:32:59.000Z</time>
      </trkpt>
      <trkpt lat="43.16851" lon="6.61571">
        <ele>147.19999694824</ele>
        <time>2011-06-02T13:33:16.000Z</time>
      </trkpt>
      <trkpt lat="43.16858" lon="6.61576">
        <ele>147.19999694824</ele>
        <time>2011-06-02T13:33:23.000Z</time>
      </trkpt>
      <trkpt lat="43.16868" lon="6.61577">
        <ele>147.39999389648</ele>
        <time>2011-06-02T13:33:28.000Z</time>
      </trkpt>
      <trkpt lat="43.16878" lon="6.61568">
        <ele>148</ele>
        <time>2011-06-02T13:33:34.000Z</time>
      </trkpt>
      <trkpt lat="43.1688" lon="6.61566">
        <ele>148.19999694824</ele>
        <time>2011-06-02T13:33:38.000Z</time>
      </trkpt>
      <trkpt lat="43.16884" lon="6.61569">
        <ele>148.19999694824</ele>
        <time>2011-06-02T13:34:24.000Z</time>
      </trkpt>
      <trkpt lat="43.16881" lon="6.61574">
        <ele>148.19999694824</ele>
        <time>2011-06-02T13:34:28.000Z</time>
      </trkpt>
      <trkpt lat="43.16883" lon="6.6158">
        <ele>148.19999694824</ele>
        <time>2011-06-02T13:34:32.000Z</time>
      </trkpt>
      <trkpt lat="43.16887" lon="6.61583">
        <ele>148.19999694824</ele>
        <time>2011-06-02T13:34:35.000Z</time>
      </trkpt>
      <trkpt lat="43.1689" lon="6.6158">
        <ele>148</ele>
        <time>2011-06-02T13:34:40.000Z</time>
      </trkpt>
      <trkpt lat="43.16892" lon="6.61581">
        <ele>148.19999694824</ele>
        <time>2011-06-02T13:34:57.000Z</time>
      </trkpt>
      <trkpt lat="43.16898" lon="6.6159">
        <ele>147.80000305176</ele>
        <time>2011-06-02T13:35:02.000Z</time>
      </trkpt>
      <trkpt lat="43.16915" lon="6.61609">
        <ele>147</ele>
        <time>2011-06-02T13:35:07.000Z</time>
      </trkpt>
      <trkpt lat="43.16934" lon="6.61622">
        <ele>144.80000305176</ele>
        <time>2011-06-02T13:35:12.000Z</time>
      </trkpt>
      <trkpt lat="43.16935" lon="6.61624">
        <ele>144</ele>
        <time>2011-06-02T13:35:16.000Z</time>
      </trkpt>
      <trkpt lat="43.16934" lon="6.6163">
        <ele>144.19999694824</ele>
        <time>2011-06-02T13:35:23.000Z</time>
      </trkpt>
      <trkpt lat="43.16937" lon="6.61625">
        <ele>144.60000610352</ele>
        <time>2011-06-02T13:42:42.000Z</time>
      </trkpt>
      <trkpt lat="43.16937" lon="6.61626">
        <ele>144.60000610352</ele>
        <time>2011-06-02T13:42:55.000Z</time>
      </trkpt>
      <trkpt lat="43.1694" lon="6.61617">
        <ele>144.60000610352</ele>
        <time>2011-06-02T13:43:00.000Z</time>
      </trkpt>
      <trkpt lat="43.16955" lon="6.6161">
        <ele>143.39999389648</ele>
        <time>2011-06-02T13:43:05.000Z</time>
      </trkpt>
      <trkpt lat="43.1696" lon="6.61594">
        <ele>141.60000610352</ele>
        <time>2011-06-02T13:43:08.000Z</time>
      </trkpt>
      <trkpt lat="43.16961" lon="6.61587">
        <ele>140.80000305176</ele>
        <time>2011-06-02T13:43:09.000Z</time>
      </trkpt>
      <trkpt lat="43.16962" lon="6.61572">
        <ele>139.39999389648</ele>
        <time>2011-06-02T13:43:11.000Z</time>
      </trkpt>
      <trkpt lat="43.16971" lon="6.61518">
        <ele>132.80000305176</ele>
        <time>2011-06-02T13:43:17.000Z</time>
      </trkpt>
      <trkpt lat="43.16974" lon="6.61472">
        <ele>126.40000152588</ele>
        <time>2011-06-02T13:43:22.000Z</time>
      </trkpt>
      <trkpt lat="43.16966" lon="6.61436">
        <ele>122.40000152588</ele>
        <time>2011-06-02T13:43:26.000Z</time>
      </trkpt>
      <trkpt lat="43.16959" lon="6.61409">
        <ele>118</ele>
        <time>2011-06-02T13:43:29.000Z</time>
      </trkpt>
      <trkpt lat="43.16942" lon="6.61377">
        <ele>112.80000305176</ele>
        <time>2011-06-02T13:43:33.000Z</time>
      </trkpt>
      <trkpt lat="43.16926" lon="6.61356">
        <ele>109.80000305176</ele>
        <time>2011-06-02T13:43:36.000Z</time>
      </trkpt>
      <trkpt lat="43.16914" lon="6.61346">
        <ele>108.59999847412</ele>
        <time>2011-06-02T13:43:38.000Z</time>
      </trkpt>
      <trkpt lat="43.16893" lon="6.61317">
        <ele>104</ele>
        <time>2011-06-02T13:43:42.000Z</time>
      </trkpt>
      <trkpt lat="43.16891" lon="6.61299">
        <ele>103.19999694824</ele>
        <time>2011-06-02T13:43:44.000Z</time>
      </trkpt>
      <trkpt lat="43.16899" lon="6.61276">
        <ele>101.19999694824</ele>
        <time>2011-06-02T13:43:47.000Z</time>
      </trkpt>
      <trkpt lat="43.16903" lon="6.61264">
        <ele>101.40000152588</ele>
        <time>2011-06-02T13:43:49.000Z</time>
      </trkpt>
      <trkpt lat="43.16907" lon="6.6124">
        <ele>102.40000152588</ele>
        <time>2011-06-02T13:43:52.000Z</time>
      </trkpt>
      <trkpt lat="43.16922" lon="6.61205">
        <ele>103.80000305176</ele>
        <time>2011-06-02T13:43:57.000Z</time>
      </trkpt>
      <trkpt lat="43.16946" lon="6.61174">
        <ele>104.19999694824</ele>
        <time>2011-06-02T13:44:03.000Z</time>
      </trkpt>
      <trkpt lat="43.16957" lon="6.61163">
        <ele>106.40000152588</ele>
        <time>2011-06-02T13:44:08.000Z</time>
      </trkpt>
      <trkpt lat="43.16964" lon="6.61161">
        <ele>107.19999694824</ele>
        <time>2011-06-02T13:44:13.000Z</time>
      </trkpt>
      <trkpt lat="43.16962" lon="6.6116">
        <ele>107.59999847412</ele>
        <time>2011-06-02T13:44:15.000Z</time>
      </trkpt>
      <trkpt lat="43.16953" lon="6.61162">
        <ele>107.59999847412</ele>
        <time>2011-06-02T13:44:19.000Z</time>
      </trkpt>
      <trkpt lat="43.16948" lon="6.61162">
        <ele>107</ele>
        <time>2011-06-02T13:44:23.000Z</time>
      </trkpt>
      <trkpt lat="43.16949" lon="6.61167">
        <ele>106.40000152588</ele>
        <time>2011-06-02T13:44:27.000Z</time>
      </trkpt>
      <trkpt lat="43.16951" lon="6.61165">
        <ele>106.19999694824</ele>
        <time>2011-06-02T13:44:29.000Z</time>
      </trkpt>
      <trkpt lat="43.16963" lon="6.61163">
        <ele>107.40000152588</ele>
        <time>2011-06-02T13:44:37.000Z</time>
      </trkpt>
      <trkpt lat="43.16978" lon="6.61169">
        <ele>107.59999847412</ele>
        <time>2011-06-02T13:44:42.000Z</time>
      </trkpt>
      <trkpt lat="43.16994" lon="6.61176">
        <ele>107.19999694824</ele>
        <time>2011-06-02T13:44:45.000Z</time>
      </trkpt>
      <trkpt lat="43.17026" lon="6.61189">
        <ele>105</ele>
        <time>2011-06-02T13:44:50.000Z</time>
      </trkpt>
      <trkpt lat="43.1704" lon="6.61176">
        <ele>102.80000305176</ele>
        <time>2011-06-02T13:44:53.000Z</time>
      </trkpt>
      <trkpt lat="43.1706" lon="6.61123">
        <ele>98.599998474121</ele>
        <time>2011-06-02T13:44:58.000Z</time>
      </trkpt>
      <trkpt lat="43.17074" lon="6.61077">
        <ele>93.599998474121</ele>
        <time>2011-06-02T13:45:02.000Z</time>
      </trkpt>
      <trkpt lat="43.17077" lon="6.61039">
        <ele>88.800003051758</ele>
        <time>2011-06-02T13:45:06.000Z</time>
      </trkpt>
      <trkpt lat="43.17079" lon="6.61024">
        <ele>87.800003051758</ele>
        <time>2011-06-02T13:45:08.000Z</time>
      </trkpt>
      <trkpt lat="43.1709" lon="6.61016">
        <ele>85</ele>
        <time>2011-06-02T13:45:11.000Z</time>
      </trkpt>
      <trkpt lat="43.17099" lon="6.61026">
        <ele>83.199996948242</ele>
        <time>2011-06-02T13:45:13.000Z</time>
      </trkpt>
      <trkpt lat="43.17103" lon="6.61034">
        <ele>82.599998474121</ele>
        <time>2011-06-02T13:45:14.000Z</time>
      </trkpt>
      <trkpt lat="43.17113" lon="6.61087">
        <ele>78.800003051758</ele>
        <time>2011-06-02T13:45:19.000Z</time>
      </trkpt>
      <trkpt lat="43.17112" lon="6.61111">
        <ele>77.800003051758</ele>
        <time>2011-06-02T13:45:21.000Z</time>
      </trkpt>
      <trkpt lat="43.17118" lon="6.61151">
        <ele>73.400001525879</ele>
        <time>2011-06-02T13:45:25.000Z</time>
      </trkpt>
      <trkpt lat="43.17138" lon="6.61171">
        <ele>70.199996948242</ele>
        <time>2011-06-02T13:45:28.000Z</time>
      </trkpt>
      <trkpt lat="43.17165" lon="6.61182">
        <ele>67.400001525879</ele>
        <time>2011-06-02T13:45:31.000Z</time>
      </trkpt>
      <trkpt lat="43.17181" lon="6.61184">
        <ele>66.400001525879</ele>
        <time>2011-06-02T13:45:33.000Z</time>
      </trkpt>
      <trkpt lat="43.17197" lon="6.61176">
        <ele>62.599998474121</ele>
        <time>2011-06-02T13:45:36.000Z</time>
      </trkpt>
      <trkpt lat="43.17198" lon="6.61158">
        <ele>60.599998474121</ele>
        <time>2011-06-02T13:45:38.000Z</time>
      </trkpt>
      <trkpt lat="43.17189" lon="6.61146">
        <ele>58.599998474121</ele>
        <time>2011-06-02T13:45:40.000Z</time>
      </trkpt>
      <trkpt lat="43.17166" lon="6.6111">
        <ele>54.599998474121</ele>
        <time>2011-06-02T13:45:45.000Z</time>
      </trkpt>
      <trkpt lat="43.17174" lon="6.61089">
        <ele>53.400001525879</ele>
        <time>2011-06-02T13:45:48.000Z</time>
      </trkpt>
      <trkpt lat="43.17192" lon="6.61066">
        <ele>52.200000762939</ele>
        <time>2011-06-02T13:45:52.000Z</time>
      </trkpt>
      <trkpt lat="43.17201" lon="6.61038">
        <ele>51.599998474121</ele>
        <time>2011-06-02T13:45:55.000Z</time>
      </trkpt>
      <trkpt lat="43.17201" lon="6.61">
        <ele>49.200000762939</ele>
        <time>2011-06-02T13:45:59.000Z</time>
      </trkpt>
      <trkpt lat="43.17204" lon="6.60975">
        <ele>44.599998474121</ele>
        <time>2011-06-02T13:46:04.000Z</time>
      </trkpt>
      <trkpt lat="43.1722" lon="6.6098">
        <ele>41.799999237061</ele>
        <time>2011-06-02T13:46:07.000Z</time>
      </trkpt>
      <trkpt lat="43.17237" lon="6.60998">
        <ele>39</ele>
        <time>2011-06-02T13:46:10.000Z</time>
      </trkpt>
      <trkpt lat="43.17248" lon="6.61025">
        <ele>36.400001525879</ele>
        <time>2011-06-02T13:46:13.000Z</time>
      </trkpt>
      <trkpt lat="43.17256" lon="6.61057">
        <ele>34.200000762939</ele>
        <time>2011-06-02T13:46:16.000Z</time>
      </trkpt>
      <trkpt lat="43.17283" lon="6.61093">
        <ele>30.39999961853</ele>
        <time>2011-06-02T13:46:20.000Z</time>
      </trkpt>
      <trkpt lat="43.17315" lon="6.61122">
        <ele>28.39999961853</ele>
        <time>2011-06-02T13:46:24.000Z</time>
      </trkpt>
      <trkpt lat="43.17338" lon="6.61133">
        <ele>25.60000038147</ele>
        <time>2011-06-02T13:46:27.000Z</time>
      </trkpt>
      <trkpt lat="43.17356" lon="6.61117">
        <ele>24.200000762939</ele>
        <time>2011-06-02T13:46:30.000Z</time>
      </trkpt>
      <trkpt lat="43.17358" lon="6.611">
        <ele>23.200000762939</ele>
        <time>2011-06-02T13:46:32.000Z</time>
      </trkpt>
      <trkpt lat="43.17355" lon="6.61039">
        <ele>23.799999237061</ele>
        <time>2011-06-02T13:46:41.000Z</time>
      </trkpt>
      <trkpt lat="43.17357" lon="6.61017">
        <ele>25</ele>
        <time>2011-06-02T13:46:47.000Z</time>
      </trkpt>
      <trkpt lat="43.17362" lon="6.60999">
        <ele>26</ele>
        <time>2011-06-02T13:46:53.000Z</time>
      </trkpt>
      <trkpt lat="43.17372" lon="6.60979">
        <ele>28</ele>
        <time>2011-06-02T13:47:01.000Z</time>
      </trkpt>
      <trkpt lat="43.17384" lon="6.60965">
        <ele>29.39999961853</ele>
        <time>2011-06-02T13:47:08.000Z</time>
      </trkpt>
      <trkpt lat="43.17396" lon="6.60956">
        <ele>31</ele>
        <time>2011-06-02T13:47:15.000Z</time>
      </trkpt>
      <trkpt lat="43.17409" lon="6.60947">
        <ele>32.799999237061</ele>
        <time>2011-06-02T13:47:22.000Z</time>
      </trkpt>
      <trkpt lat="43.17414" lon="6.60944">
        <ele>33.400001525879</ele>
        <time>2011-06-02T13:47:25.000Z</time>
      </trkpt>
      <trkpt lat="43.17415" lon="6.60941">
        <ele>33.799999237061</ele>
        <time>2011-06-02T13:47:30.000Z</time>
      </trkpt>
      <trkpt lat="43.17413" lon="6.60943">
        <ele>33.400001525879</ele>
        <time>2011-06-02T13:48:32.000Z</time>
      </trkpt>
      <trkpt lat="43.17424" lon="6.60939">
        <ele>34.799999237061</ele>
        <time>2011-06-02T13:48:39.000Z</time>
      </trkpt>
      <trkpt lat="43.1744" lon="6.60923">
        <ele>37.400001525879</ele>
        <time>2011-06-02T13:48:47.000Z</time>
      </trkpt>
      <trkpt lat="43.1745" lon="6.609">
        <ele>39.799999237061</ele>
        <time>2011-06-02T13:48:55.000Z</time>
      </trkpt>
      <trkpt lat="43.17447" lon="6.60881">
        <ele>41.400001525879</ele>
        <time>2011-06-02T13:49:01.000Z</time>
      </trkpt>
      <trkpt lat="43.17435" lon="6.60863">
        <ele>43.799999237061</ele>
        <time>2011-06-02T13:49:09.000Z</time>
      </trkpt>
      <trkpt lat="43.17431" lon="6.60846">
        <ele>45.200000762939</ele>
        <time>2011-06-02T13:49:15.000Z</time>
      </trkpt>
      <trkpt lat="43.17432" lon="6.60825">
        <ele>46.599998474121</ele>
        <time>2011-06-02T13:49:23.000Z</time>
      </trkpt>
      <trkpt lat="43.17439" lon="6.60816">
        <ele>47.400001525879</ele>
        <time>2011-06-02T13:49:28.000Z</time>
      </trkpt>
      <trkpt lat="43.17449" lon="6.60805">
        <ele>49.200000762939</ele>
        <time>2011-06-02T13:49:33.000Z</time>
      </trkpt>
      <trkpt lat="43.17465" lon="6.60792">
        <ele>50.200000762939</ele>
        <time>2011-06-02T13:49:41.000Z</time>
      </trkpt>
      <trkpt lat="43.17474" lon="6.60787">
        <ele>50.799999237061</ele>
        <time>2011-06-02T13:49:47.000Z</time>
      </trkpt>
      <trkpt lat="43.17486" lon="6.60779">
        <ele>51</ele>
        <time>2011-06-02T13:49:54.000Z</time>
      </trkpt>
      <trkpt lat="43.17497" lon="6.60773">
        <ele>51.200000762939</ele>
        <time>2011-06-02T13:50:00.000Z</time>
      </trkpt>
      <trkpt lat="43.17499" lon="6.60772">
        <ele>51.400001525879</ele>
        <time>2011-06-02T13:50:01.000Z</time>
      </trkpt>
      <trkpt lat="43.17521" lon="6.60759">
        <ele>50.799999237061</ele>
        <time>2011-06-02T13:50:08.000Z</time>
      </trkpt>
      <trkpt lat="43.1755" lon="6.60744">
        <ele>49.400001525879</ele>
        <time>2011-06-02T13:50:14.000Z</time>
      </trkpt>
      <trkpt lat="43.17566" lon="6.60738">
        <ele>48.400001525879</ele>
        <time>2011-06-02T13:50:17.000Z</time>
      </trkpt>
      <trkpt lat="43.17576" lon="6.60733">
        <ele>48.200000762939</ele>
        <time>2011-06-02T13:50:19.000Z</time>
      </trkpt>
      <trkpt lat="43.17584" lon="6.60726">
        <ele>48.200000762939</ele>
        <time>2011-06-02T13:50:21.000Z</time>
      </trkpt>
      <trkpt lat="43.17597" lon="6.60703">
        <ele>48.400001525879</ele>
        <time>2011-06-02T13:50:26.000Z</time>
      </trkpt>
      <trkpt lat="43.17601" lon="6.60685">
        <ele>48.400001525879</ele>
        <time>2011-06-02T13:50:29.000Z</time>
      </trkpt>
      <trkpt lat="43.17608" lon="6.60667">
        <ele>48.599998474121</ele>
        <time>2011-06-02T13:50:32.000Z</time>
      </trkpt>
      <trkpt lat="43.17626" lon="6.60651">
        <ele>48.200000762939</ele>
        <time>2011-06-02T13:50:36.000Z</time>
      </trkpt>
      <trkpt lat="43.1765" lon="6.60653">
        <ele>47.400001525879</ele>
        <time>2011-06-02T13:50:40.000Z</time>
      </trkpt>
      <trkpt lat="43.17674" lon="6.6067">
        <ele>46</ele>
        <time>2011-06-02T13:50:44.000Z</time>
      </trkpt>
      <trkpt lat="43.17679" lon="6.60676">
        <ele>45.599998474121</ele>
        <time>2011-06-02T13:50:45.000Z</time>
      </trkpt>
      <trkpt lat="43.17698" lon="6.60704">
        <ele>43.799999237061</ele>
        <time>2011-06-02T13:50:49.000Z</time>
      </trkpt>
      <trkpt lat="43.17726" lon="6.60722">
        <ele>43.200000762939</ele>
        <time>2011-06-02T13:50:54.000Z</time>
      </trkpt>
      <trkpt lat="43.17745" lon="6.60729">
        <ele>44</ele>
        <time>2011-06-02T13:50:58.000Z</time>
      </trkpt>
      <trkpt lat="43.17768" lon="6.60734">
        <ele>45.599998474121</ele>
        <time>2011-06-02T13:51:04.000Z</time>
      </trkpt>
      <trkpt lat="43.17784" lon="6.60735">
        <ele>47</ele>
        <time>2011-06-02T13:51:10.000Z</time>
      </trkpt>
      <trkpt lat="43.17791" lon="6.60736">
        <ele>47.799999237061</ele>
        <time>2011-06-02T13:51:15.000Z</time>
      </trkpt>
      <trkpt lat="43.17803" lon="6.60737">
        <ele>48.599998474121</ele>
        <time>2011-06-02T13:51:19.000Z</time>
      </trkpt>
      <trkpt lat="43.17827" lon="6.60737">
        <ele>50.599998474121</ele>
        <time>2011-06-02T13:51:27.000Z</time>
      </trkpt>
      <trkpt lat="43.17837" lon="6.60736">
        <ele>51.799999237061</ele>
        <time>2011-06-02T13:51:33.000Z</time>
      </trkpt>
      <trkpt lat="43.17848" lon="6.60735">
        <ele>53.200000762939</ele>
        <time>2011-06-02T13:51:40.000Z</time>
      </trkpt>
      <trkpt lat="43.17856" lon="6.60734">
        <ele>53.599998474121</ele>
        <time>2011-06-02T13:51:45.000Z</time>
      </trkpt>
      <trkpt lat="43.1787" lon="6.60733">
        <ele>54.599998474121</ele>
        <time>2011-06-02T13:51:53.000Z</time>
      </trkpt>
      <trkpt lat="43.17886" lon="6.6073">
        <ele>55</ele>
        <time>2011-06-02T13:52:00.000Z</time>
      </trkpt>
      <trkpt lat="43.17906" lon="6.60729">
        <ele>54.400001525879</ele>
        <time>2011-06-02T13:52:06.000Z</time>
      </trkpt>
      <trkpt lat="43.1791" lon="6.60729">
        <ele>54.200000762939</ele>
        <time>2011-06-02T13:52:07.000Z</time>
      </trkpt>
      <trkpt lat="43.17944" lon="6.6072">
        <ele>52.599998474121</ele>
        <time>2011-06-02T13:52:14.000Z</time>
      </trkpt>
      <trkpt lat="43.17977" lon="6.60706">
        <ele>50.599998474121</ele>
        <time>2011-06-02T13:52:19.000Z</time>
      </trkpt>
      <trkpt lat="43.1802" lon="6.6068">
        <ele>47.599998474121</ele>
        <time>2011-06-02T13:52:25.000Z</time>
      </trkpt>
      <trkpt lat="43.18034" lon="6.60671">
        <ele>46.599998474121</ele>
        <time>2011-06-02T13:52:27.000Z</time>
      </trkpt>
      <trkpt lat="43.18083" lon="6.60634">
        <ele>43.200000762939</ele>
        <time>2011-06-02T13:52:34.000Z</time>
      </trkpt>
      <trkpt lat="43.18097" lon="6.60624">
        <ele>42.200000762939</ele>
        <time>2011-06-02T13:52:36.000Z</time>
      </trkpt>
      <trkpt lat="43.18131" lon="6.60613">
        <ele>40.400001525879</ele>
        <time>2011-06-02T13:52:41.000Z</time>
      </trkpt>
      <trkpt lat="43.18144" lon="6.60616">
        <ele>39.799999237061</ele>
        <time>2011-06-02T13:52:43.000Z</time>
      </trkpt>
      <trkpt lat="43.18154" lon="6.60621">
        <ele>39.599998474121</ele>
        <time>2011-06-02T13:52:45.000Z</time>
      </trkpt>
      <trkpt lat="43.18186" lon="6.60645">
        <ele>38.799999237061</ele>
        <time>2011-06-02T13:52:52.000Z</time>
      </trkpt>
      <trkpt lat="43.18194" lon="6.60654">
        <ele>38.799999237061</ele>
        <time>2011-06-02T13:52:54.000Z</time>
      </trkpt>
      <trkpt lat="43.18207" lon="6.60664">
        <ele>39.400001525879</ele>
        <time>2011-06-02T13:52:58.000Z</time>
      </trkpt>
      <trkpt lat="43.18228" lon="6.60661">
        <ele>41.400001525879</ele>
        <time>2011-06-02T13:53:05.000Z</time>
      </trkpt>
      <trkpt lat="43.1824" lon="6.60643">
        <ele>42.799999237061</ele>
        <time>2011-06-02T13:53:11.000Z</time>
      </trkpt>
      <trkpt lat="43.18251" lon="6.6062">
        <ele>45</ele>
        <time>2011-06-02T13:53:18.000Z</time>
      </trkpt>
      <trkpt lat="43.18257" lon="6.60592">
        <ele>46.400001525879</ele>
        <time>2011-06-02T13:53:25.000Z</time>
      </trkpt>
      <trkpt lat="43.18268" lon="6.60565">
        <ele>47.200000762939</ele>
        <time>2011-06-02T13:53:33.000Z</time>
      </trkpt>
      <trkpt lat="43.18282" lon="6.60548">
        <ele>47.200000762939</ele>
        <time>2011-06-02T13:53:40.000Z</time>
      </trkpt>
      <trkpt lat="43.18294" lon="6.6053">
        <ele>46.799999237061</ele>
        <time>2011-06-02T13:53:46.000Z</time>
      </trkpt>
      <trkpt lat="43.18295" lon="6.60513">
        <ele>46.200000762939</ele>
        <time>2011-06-02T13:53:51.000Z</time>
      </trkpt>
      <trkpt lat="43.18294" lon="6.60507">
        <ele>46</ele>
        <time>2011-06-02T13:53:55.000Z</time>
      </trkpt>
      <trkpt lat="43.18291" lon="6.60508">
        <ele>45.599998474121</ele>
        <time>2011-06-02T13:55:16.000Z</time>
      </trkpt>
      <trkpt lat="43.18292" lon="6.605">
        <ele>45.799999237061</ele>
        <time>2011-06-02T13:55:21.000Z</time>
      </trkpt>
      <trkpt lat="43.18295" lon="6.60477">
        <ele>45.200000762939</ele>
        <time>2011-06-02T13:55:27.000Z</time>
      </trkpt>
      <trkpt lat="43.183" lon="6.60451">
        <ele>45.200000762939</ele>
        <time>2011-06-02T13:55:31.000Z</time>
      </trkpt>
      <trkpt lat="43.18306" lon="6.60436">
        <ele>44.599998474121</ele>
        <time>2011-06-02T13:55:33.000Z</time>
      </trkpt>
      <trkpt lat="43.18321" lon="6.60415">
        <ele>41.400001525879</ele>
        <time>2011-06-02T13:55:37.000Z</time>
      </trkpt>
      <trkpt lat="43.18343" lon="6.60407">
        <ele>39</ele>
        <time>2011-06-02T13:55:41.000Z</time>
      </trkpt>
      <trkpt lat="43.18355" lon="6.6041">
        <ele>38.200000762939</ele>
        <time>2011-06-02T13:55:43.000Z</time>
      </trkpt>
      <trkpt lat="43.18385" lon="6.60435">
        <ele>35.799999237061</ele>
        <time>2011-06-02T13:55:48.000Z</time>
      </trkpt>
      <trkpt lat="43.1841" lon="6.60458">
        <ele>34.200000762939</ele>
        <time>2011-06-02T13:55:52.000Z</time>
      </trkpt>
      <trkpt lat="43.18433" lon="6.60457">
        <ele>32.599998474121</ele>
        <time>2011-06-02T13:55:55.000Z</time>
      </trkpt>
      <trkpt lat="43.1845" lon="6.60433">
        <ele>31.39999961853</ele>
        <time>2011-06-02T13:55:58.000Z</time>
      </trkpt>
      <trkpt lat="43.1846" lon="6.60398">
        <ele>29.60000038147</ele>
        <time>2011-06-02T13:56:01.000Z</time>
      </trkpt>
      <trkpt lat="43.18453" lon="6.60363">
        <ele>26.39999961853</ele>
        <time>2011-06-02T13:56:04.000Z</time>
      </trkpt>
      <trkpt lat="43.1844" lon="6.60343">
        <ele>25.200000762939</ele>
        <time>2011-06-02T13:56:06.000Z</time>
      </trkpt>
      <trkpt lat="43.18419" lon="6.60311">
        <ele>22</ele>
        <time>2011-06-02T13:56:09.000Z</time>
      </trkpt>
      <trkpt lat="43.18406" lon="6.60271">
        <ele>19.200000762939</ele>
        <time>2011-06-02T13:56:12.000Z</time>
      </trkpt>
      <trkpt lat="43.18389" lon="6.60217">
        <ele>15.199999809265</ele>
        <time>2011-06-02T13:56:16.000Z</time>
      </trkpt>
      <trkpt lat="43.1836" lon="6.60176">
        <ele>12.39999961853</ele>
        <time>2011-06-02T13:56:20.000Z</time>
      </trkpt>
      <trkpt lat="43.18344" lon="6.60147">
        <ele>11.199999809265</ele>
        <time>2011-06-02T13:56:23.000Z</time>
      </trkpt>
      <trkpt lat="43.18333" lon="6.6014">
        <ele>8.3999996185303</ele>
        <time>2011-06-02T13:56:26.000Z</time>
      </trkpt>
      <trkpt lat="43.18323" lon="6.60148">
        <ele>6.8000001907349</ele>
        <time>2011-06-02T13:56:29.000Z</time>
      </trkpt>
      <trkpt lat="43.18311" lon="6.60153">
        <ele>6.4000000953674</ele>
        <time>2011-06-02T13:56:32.000Z</time>
      </trkpt>
      <trkpt lat="43.18301" lon="6.60153">
        <ele>6.4000000953674</ele>
        <time>2011-06-02T13:56:34.000Z</time>
      </trkpt>
      <trkpt lat="43.18283" lon="6.60146">
        <ele>6.4000000953674</ele>
        <time>2011-06-02T13:56:39.000Z</time>
      </trkpt>
      <trkpt lat="43.18272" lon="6.60146">
        <ele>5.5999999046326</ele>
        <time>2011-06-02T13:56:44.000Z</time>
      </trkpt>
      <trkpt lat="43.18265" lon="6.60142">
        <ele>4.5999999046326</ele>
        <time>2011-06-02T13:56:50.000Z</time>
      </trkpt>
      <trkpt lat="43.18265" lon="6.60142">
        <ele>4.4000000953674</ele>
        <time>2011-06-02T13:56:51.000Z</time>
      </trkpt>
      <trkpt lat="43.18268" lon="6.60143">
        <ele>4.5999999046326</ele>
        <time>2011-06-02T13:56:56.000Z</time>
      </trkpt>
      <trkpt lat="43.18271" lon="6.60148">
        <ele>5.1999998092651</ele>
        <time>2011-06-02T13:57:03.000Z</time>
      </trkpt>
      <trkpt lat="43.18274" lon="6.60147">
        <ele>6.1999998092651</ele>
        <time>2011-06-02T14:03:50.000Z</time>
      </trkpt>
      <trkpt lat="43.18276" lon="6.60147">
        <ele>6.1999998092651</ele>
        <time>2011-06-02T14:03:57.000Z</time>
      </trkpt>
      <trkpt lat="43.18279" lon="6.60147">
        <ele>6.5999999046326</ele>
        <time>2011-06-02T14:04:03.000Z</time>
      </trkpt>
      <trkpt lat="43.18282" lon="6.60146">
        <ele>6.4000000953674</ele>
        <time>2011-06-02T14:04:09.000Z</time>
      </trkpt>
      <trkpt lat="43.18287" lon="6.60146">
        <ele>6.4000000953674</ele>
        <time>2011-06-02T14:04:17.000Z</time>
      </trkpt>
      <trkpt lat="43.18288" lon="6.60148">
        <ele>6.5999999046326</ele>
        <time>2011-06-02T14:04:24.000Z</time>
      </trkpt>
      <trkpt lat="43.18301" lon="6.60152">
        <ele>6.8000001907349</ele>
        <time>2011-06-02T14:04:31.000Z</time>
      </trkpt>
      <trkpt lat="43.18315" lon="6.60153">
        <ele>7</ele>
        <time>2011-06-02T14:04:38.000Z</time>
      </trkpt>
      <trkpt lat="43.18325" lon="6.60147">
        <ele>7</ele>
        <time>2011-06-02T14:04:44.000Z</time>
      </trkpt>
      <trkpt lat="43.18336" lon="6.60143">
        <ele>7</ele>
        <time>2011-06-02T14:04:50.000Z</time>
      </trkpt>
      <trkpt lat="43.18342" lon="6.60148">
        <ele>7</ele>
        <time>2011-06-02T14:04:54.000Z</time>
      </trkpt>
      <trkpt lat="43.18344" lon="6.6016">
        <ele>7.1999998092651</ele>
        <time>2011-06-02T14:04:59.000Z</time>
      </trkpt>
      <trkpt lat="43.18357" lon="6.60175">
        <ele>7.5999999046326</ele>
        <time>2011-06-02T14:05:06.000Z</time>
      </trkpt>
      <trkpt lat="43.18375" lon="6.60194">
        <ele>8.6000003814697</ele>
        <time>2011-06-02T14:05:15.000Z</time>
      </trkpt>
      <trkpt lat="43.18386" lon="6.60211">
        <ele>9.3999996185303</ele>
        <time>2011-06-02T14:05:22.000Z</time>
      </trkpt>
      <trkpt lat="43.18398" lon="6.6024">
        <ele>10.800000190735</ele>
        <time>2011-06-02T14:05:31.000Z</time>
      </trkpt>
      <trkpt lat="43.18404" lon="6.60255">
        <ele>11.199999809265</ele>
        <time>2011-06-02T14:05:36.000Z</time>
      </trkpt>
      <trkpt lat="43.18413" lon="6.60257">
        <ele>12</ele>
        <time>2011-06-02T14:05:41.000Z</time>
      </trkpt>
      <trkpt lat="43.18424" lon="6.60232">
        <ele>12.199999809265</ele>
        <time>2011-06-02T14:05:48.000Z</time>
      </trkpt>
      <trkpt lat="43.18437" lon="6.60218">
        <ele>12</ele>
        <time>2011-06-02T14:05:53.000Z</time>
      </trkpt>
      <trkpt lat="43.18446" lon="6.60212">
        <ele>12.39999961853</ele>
        <time>2011-06-02T14:05:59.000Z</time>
      </trkpt>
      <trkpt lat="43.18449" lon="6.60211">
        <ele>12.800000190735</ele>
        <time>2011-06-02T14:06:04.000Z</time>
      </trkpt>
      <trkpt lat="43.1845" lon="6.60212">
        <ele>13</ele>
        <time>2011-06-02T14:06:06.000Z</time>
      </trkpt>
      <trkpt lat="43.18451" lon="6.60213">
        <ele>13</ele>
        <time>2011-06-02T14:06:11.000Z</time>
      </trkpt>
      <trkpt lat="43.18452" lon="6.60214">
        <ele>13</ele>
        <time>2011-06-02T14:06:13.000Z</time>
      </trkpt>
      <trkpt lat="43.18455" lon="6.60225">
        <ele>13.199999809265</ele>
        <time>2011-06-02T14:06:18.000Z</time>
      </trkpt>
      <trkpt lat="43.18462" lon="6.60252">
        <ele>12.199999809265</ele>
        <time>2011-06-02T14:06:25.000Z</time>
      </trkpt>
      <trkpt lat="43.18472" lon="6.60276">
        <ele>11.60000038147</ele>
        <time>2011-06-02T14:06:33.000Z</time>
      </trkpt>
      <trkpt lat="43.18486" lon="6.60301">
        <ele>12.39999961853</ele>
        <time>2011-06-02T14:06:40.000Z</time>
      </trkpt>
      <trkpt lat="43.18494" lon="6.60321">
        <ele>12.60000038147</ele>
        <time>2011-06-02T14:06:45.000Z</time>
      </trkpt>
      <trkpt lat="43.18505" lon="6.60345">
        <ele>13.39999961853</ele>
        <time>2011-06-02T14:06:52.000Z</time>
      </trkpt>
      <trkpt lat="43.18517" lon="6.60363">
        <ele>15</ele>
        <time>2011-06-02T14:06:58.000Z</time>
      </trkpt>
      <trkpt lat="43.18532" lon="6.60375">
        <ele>16.60000038147</ele>
        <time>2011-06-02T14:07:04.000Z</time>
      </trkpt>
      <trkpt lat="43.18551" lon="6.60387">
        <ele>17.39999961853</ele>
        <time>2011-06-02T14:07:10.000Z</time>
      </trkpt>
      <trkpt lat="43.18562" lon="6.60396">
        <ele>18</ele>
        <time>2011-06-02T14:07:15.000Z</time>
      </trkpt>
      <trkpt lat="43.18575" lon="6.60407">
        <ele>19.39999961853</ele>
        <time>2011-06-02T14:07:21.000Z</time>
      </trkpt>
      <trkpt lat="43.18587" lon="6.60418">
        <ele>21.200000762939</ele>
        <time>2011-06-02T14:07:28.000Z</time>
      </trkpt>
      <trkpt lat="43.18597" lon="6.60429">
        <ele>22</ele>
        <time>2011-06-02T14:07:34.000Z</time>
      </trkpt>
      <trkpt lat="43.18609" lon="6.60441">
        <ele>23.60000038147</ele>
        <time>2011-06-02T14:07:41.000Z</time>
      </trkpt>
      <trkpt lat="43.18624" lon="6.60455">
        <ele>24.60000038147</ele>
        <time>2011-06-02T14:07:48.000Z</time>
      </trkpt>
      <trkpt lat="43.18641" lon="6.6047">
        <ele>25.39999961853</ele>
        <time>2011-06-02T14:07:55.000Z</time>
      </trkpt>
      <trkpt lat="43.18656" lon="6.60483">
        <ele>25.799999237061</ele>
        <time>2011-06-02T14:08:01.000Z</time>
      </trkpt>
      <trkpt lat="43.18666" lon="6.60495">
        <ele>26.60000038147</ele>
        <time>2011-06-02T14:08:06.000Z</time>
      </trkpt>
      <trkpt lat="43.18675" lon="6.60511">
        <ele>27</ele>
        <time>2011-06-02T14:08:11.000Z</time>
      </trkpt>
      <trkpt lat="43.18683" lon="6.60537">
        <ele>28</ele>
        <time>2011-06-02T14:08:18.000Z</time>
      </trkpt>
      <trkpt lat="43.18686" lon="6.60556">
        <ele>29</ele>
        <time>2011-06-02T14:08:24.000Z</time>
      </trkpt>
      <trkpt lat="43.18692" lon="6.60575">
        <ele>29.39999961853</ele>
        <time>2011-06-02T14:08:29.000Z</time>
      </trkpt>
      <trkpt lat="43.18698" lon="6.60594">
        <ele>29</ele>
        <time>2011-06-02T14:08:34.000Z</time>
      </trkpt>
      <trkpt lat="43.18703" lon="6.6061">
        <ele>30.200000762939</ele>
        <time>2011-06-02T14:08:40.000Z</time>
      </trkpt>
      <trkpt lat="43.18708" lon="6.60627">
        <ele>32</ele>
        <time>2011-06-02T14:08:46.000Z</time>
      </trkpt>
      <trkpt lat="43.18712" lon="6.6065">
        <ele>33</ele>
        <time>2011-06-02T14:08:54.000Z</time>
      </trkpt>
      <trkpt lat="43.18713" lon="6.60678">
        <ele>34.200000762939</ele>
        <time>2011-06-02T14:09:03.000Z</time>
      </trkpt>
      <trkpt lat="43.18713" lon="6.60699">
        <ele>36</ele>
        <time>2011-06-02T14:09:10.000Z</time>
      </trkpt>
      <trkpt lat="43.1871" lon="6.60721">
        <ele>38</ele>
        <time>2011-06-02T14:09:18.000Z</time>
      </trkpt>
      <trkpt lat="43.18705" lon="6.60736">
        <ele>39.799999237061</ele>
        <time>2011-06-02T14:09:24.000Z</time>
      </trkpt>
      <trkpt lat="43.18697" lon="6.60762">
        <ele>42.400001525879</ele>
        <time>2011-06-02T14:09:34.000Z</time>
      </trkpt>
      <trkpt lat="43.18692" lon="6.60783">
        <ele>44.400001525879</ele>
        <time>2011-06-02T14:09:42.000Z</time>
      </trkpt>
      <trkpt lat="43.18691" lon="6.60803">
        <ele>46.400001525879</ele>
        <time>2011-06-02T14:09:49.000Z</time>
      </trkpt>
      <trkpt lat="43.18693" lon="6.60825">
        <ele>48</ele>
        <time>2011-06-02T14:09:56.000Z</time>
      </trkpt>
      <trkpt lat="43.18696" lon="6.6084">
        <ele>49</ele>
        <time>2011-06-02T14:10:02.000Z</time>
      </trkpt>
      <trkpt lat="43.18705" lon="6.60858">
        <ele>48.400001525879</ele>
        <time>2011-06-02T14:10:07.000Z</time>
      </trkpt>
      <trkpt lat="43.18715" lon="6.6086">
        <ele>46.799999237061</ele>
        <time>2011-06-02T14:10:11.000Z</time>
      </trkpt>
      <trkpt lat="43.18715" lon="6.60853">
        <ele>45.400001525879</ele>
        <time>2011-06-02T14:10:15.000Z</time>
      </trkpt>
      <trkpt lat="43.18714" lon="6.60849">
        <ele>45</ele>
        <time>2011-06-02T14:10:17.000Z</time>
      </trkpt>
      <trkpt lat="43.18712" lon="6.60828">
        <ele>43.200000762939</ele>
        <time>2011-06-02T14:10:24.000Z</time>
      </trkpt>
      <trkpt lat="43.18724" lon="6.60791">
        <ele>42.200000762939</ele>
        <time>2011-06-02T14:10:32.000Z</time>
      </trkpt>
      <trkpt lat="43.18737" lon="6.60763">
        <ele>41.799999237061</ele>
        <time>2011-06-02T14:10:38.000Z</time>
      </trkpt>
      <trkpt lat="43.18751" lon="6.60743">
        <ele>42</ele>
        <time>2011-06-02T14:10:44.000Z</time>
      </trkpt>
      <trkpt lat="43.18755" lon="6.60729">
        <ele>41</ele>
        <time>2011-06-02T14:10:48.000Z</time>
      </trkpt>
      <trkpt lat="43.18752" lon="6.60724">
        <ele>39.799999237061</ele>
        <time>2011-06-02T14:10:54.000Z</time>
      </trkpt>
      <trkpt lat="43.1875" lon="6.60721">
        <ele>39.799999237061</ele>
        <time>2011-06-02T14:12:26.000Z</time>
      </trkpt>
      <trkpt lat="43.1875" lon="6.60705">
        <ele>39.200000762939</ele>
        <time>2011-06-02T14:12:30.000Z</time>
      </trkpt>
      <trkpt lat="43.1875" lon="6.60698">
        <ele>38.799999237061</ele>
        <time>2011-06-02T14:12:31.000Z</time>
      </trkpt>
      <trkpt lat="43.1876" lon="6.60658">
        <ele>36.799999237061</ele>
        <time>2011-06-02T14:12:35.000Z</time>
      </trkpt>
      <trkpt lat="43.18763" lon="6.60638">
        <ele>36</ele>
        <time>2011-06-02T14:12:37.000Z</time>
      </trkpt>
      <trkpt lat="43.18757" lon="6.60595">
        <ele>35.200000762939</ele>
        <time>2011-06-02T14:12:42.000Z</time>
      </trkpt>
      <trkpt lat="43.18751" lon="6.6058">
        <ele>35</ele>
        <time>2011-06-02T14:12:44.000Z</time>
      </trkpt>
      <trkpt lat="43.18746" lon="6.60558">
        <ele>34.799999237061</ele>
        <time>2011-06-02T14:12:47.000Z</time>
      </trkpt>
      <trkpt lat="43.18746" lon="6.6053">
        <ele>34.799999237061</ele>
        <time>2011-06-02T14:12:51.000Z</time>
      </trkpt>
      <trkpt lat="43.18753" lon="6.60496">
        <ele>36</ele>
        <time>2011-06-02T14:12:58.000Z</time>
      </trkpt>
      <trkpt lat="43.1876" lon="6.60471">
        <ele>37</ele>
        <time>2011-06-02T14:13:04.000Z</time>
      </trkpt>
      <trkpt lat="43.18769" lon="6.60458">
        <ele>38.200000762939</ele>
        <time>2011-06-02T14:13:09.000Z</time>
      </trkpt>
      <trkpt lat="43.18776" lon="6.60439">
        <ele>39</ele>
        <time>2011-06-02T14:13:14.000Z</time>
      </trkpt>
      <trkpt lat="43.1879" lon="6.60405">
        <ele>38.799999237061</ele>
        <time>2011-06-02T14:13:21.000Z</time>
      </trkpt>
      <trkpt lat="43.18793" lon="6.60399">
        <ele>38.599998474121</ele>
        <time>2011-06-02T14:13:22.000Z</time>
      </trkpt>
      <trkpt lat="43.18815" lon="6.60364">
        <ele>38.200000762939</ele>
        <time>2011-06-02T14:13:29.000Z</time>
      </trkpt>
      <trkpt lat="43.18834" lon="6.60326">
        <ele>38.599998474121</ele>
        <time>2011-06-02T14:13:36.000Z</time>
      </trkpt>
      <trkpt lat="43.18857" lon="6.60285">
        <ele>40.599998474121</ele>
        <time>2011-06-02T14:13:45.000Z</time>
      </trkpt>
      <trkpt lat="43.1887" lon="6.60262">
        <ele>41.799999237061</ele>
        <time>2011-06-02T14:13:51.000Z</time>
      </trkpt>
      <trkpt lat="43.18879" lon="6.60247">
        <ele>41.799999237061</ele>
        <time>2011-06-02T14:13:55.000Z</time>
      </trkpt>
      <trkpt lat="43.18903" lon="6.60226">
        <ele>40.400001525879</ele>
        <time>2011-06-02T14:14:00.000Z</time>
      </trkpt>
      <trkpt lat="43.18931" lon="6.60206">
        <ele>38.799999237061</ele>
        <time>2011-06-02T14:14:05.000Z</time>
      </trkpt>
      <trkpt lat="43.18957" lon="6.60182">
        <ele>37.200000762939</ele>
        <time>2011-06-02T14:14:11.000Z</time>
      </trkpt>
      <trkpt lat="43.18963" lon="6.60178">
        <ele>35.799999237061</ele>
        <time>2011-06-02T14:14:15.000Z</time>
      </trkpt>
      <trkpt lat="43.18966" lon="6.60178">
        <ele>35.200000762939</ele>
        <time>2011-06-02T14:14:21.000Z</time>
      </trkpt>
      <trkpt lat="43.18969" lon="6.60178">
        <ele>35</ele>
        <time>2011-06-02T14:14:28.000Z</time>
      </trkpt>
      <trkpt lat="43.18972" lon="6.60174">
        <ele>34.400001525879</ele>
        <time>2011-06-02T14:14:35.000Z</time>
      </trkpt>
      <trkpt lat="43.18973" lon="6.6017">
        <ele>34.200000762939</ele>
        <time>2011-06-02T14:15:04.000Z</time>
      </trkpt>
      <trkpt lat="43.18987" lon="6.60164">
        <ele>34.200000762939</ele>
        <time>2011-06-02T14:15:11.000Z</time>
      </trkpt>
      <trkpt lat="43.18988" lon="6.60164">
        <ele>34</ele>
        <time>2011-06-02T14:15:12.000Z</time>
      </trkpt>
      <trkpt lat="43.18986" lon="6.60169">
        <ele>33.799999237061</ele>
        <time>2011-06-02T14:15:16.000Z</time>
      </trkpt>
      <trkpt lat="43.18986" lon="6.60167">
        <ele>33.799999237061</ele>
        <time>2011-06-02T14:15:18.000Z</time>
      </trkpt>
      <trkpt lat="43.18998" lon="6.60166">
        <ele>34.200000762939</ele>
        <time>2011-06-02T14:15:23.000Z</time>
      </trkpt>
      <trkpt lat="43.1901" lon="6.60167">
        <ele>34.599998474121</ele>
        <time>2011-06-02T14:15:26.000Z</time>
      </trkpt>
      <trkpt lat="43.19026" lon="6.60178">
        <ele>34.599998474121</ele>
        <time>2011-06-02T14:15:30.000Z</time>
      </trkpt>
      <trkpt lat="43.19033" lon="6.60186">
        <ele>34.599998474121</ele>
        <time>2011-06-02T14:15:32.000Z</time>
      </trkpt>
      <trkpt lat="43.19037" lon="6.60197">
        <ele>34.200000762939</ele>
        <time>2011-06-02T14:15:34.000Z</time>
      </trkpt>
      <trkpt lat="43.19056" lon="6.60219">
        <ele>33.599998474121</ele>
        <time>2011-06-02T14:15:39.000Z</time>
      </trkpt>
      <trkpt lat="43.19094" lon="6.60241">
        <ele>33.799999237061</ele>
        <time>2011-06-02T14:15:47.000Z</time>
      </trkpt>
      <trkpt lat="43.19121" lon="6.60252">
        <ele>34.200000762939</ele>
        <time>2011-06-02T14:15:53.000Z</time>
      </trkpt>
      <trkpt lat="43.19126" lon="6.60253">
        <ele>34.200000762939</ele>
        <time>2011-06-02T14:15:54.000Z</time>
      </trkpt>
      <trkpt lat="43.19148" lon="6.60266">
        <ele>34.599998474121</ele>
        <time>2011-06-02T14:16:00.000Z</time>
      </trkpt>
      <trkpt lat="43.19152" lon="6.6027">
        <ele>34.599998474121</ele>
        <time>2011-06-02T14:16:01.000Z</time>
      </trkpt>
      <trkpt lat="43.19171" lon="6.60291">
        <ele>35.599998474121</ele>
        <time>2011-06-02T14:16:07.000Z</time>
      </trkpt>
      <trkpt lat="43.19179" lon="6.6028">
        <ele>35.599998474121</ele>
        <time>2011-06-02T14:16:11.000Z</time>
      </trkpt>
      <trkpt lat="43.19183" lon="6.60253">
        <ele>36.599998474121</ele>
        <time>2011-06-02T14:16:18.000Z</time>
      </trkpt>
      <trkpt lat="43.19192" lon="6.60226">
        <ele>37.599998474121</ele>
        <time>2011-06-02T14:16:25.000Z</time>
      </trkpt>
      <trkpt lat="43.19209" lon="6.6019">
        <ele>38</ele>
        <time>2011-06-02T14:16:34.000Z</time>
      </trkpt>
      <trkpt lat="43.19221" lon="6.60169">
        <ele>39.200000762939</ele>
        <time>2011-06-02T14:16:40.000Z</time>
      </trkpt>
      <trkpt lat="43.19238" lon="6.60156">
        <ele>40.200000762939</ele>
        <time>2011-06-02T14:16:46.000Z</time>
      </trkpt>
      <trkpt lat="43.1926" lon="6.6015">
        <ele>41.599998474121</ele>
        <time>2011-06-02T14:16:53.000Z</time>
      </trkpt>
      <trkpt lat="43.19286" lon="6.60144">
        <ele>43</ele>
        <time>2011-06-02T14:17:01.000Z</time>
      </trkpt>
      <trkpt lat="43.1931" lon="6.60137">
        <ele>44.400001525879</ele>
        <time>2011-06-02T14:17:09.000Z</time>
      </trkpt>
      <trkpt lat="43.19321" lon="6.6013">
        <ele>44.599998474121</ele>
        <time>2011-06-02T14:17:14.000Z</time>
      </trkpt>
      <trkpt lat="43.1935" lon="6.60124">
        <ele>43.400001525879</ele>
        <time>2011-06-02T14:17:20.000Z</time>
      </trkpt>
      <trkpt lat="43.19366" lon="6.60124">
        <ele>42.799999237061</ele>
        <time>2011-06-02T14:17:23.000Z</time>
      </trkpt>
      <trkpt lat="43.19391" lon="6.6014">
        <ele>42.599998474121</ele>
        <time>2011-06-02T14:17:28.000Z</time>
      </trkpt>
      <trkpt lat="43.19402" lon="6.60151">
        <ele>42.799999237061</ele>
        <time>2011-06-02T14:17:32.000Z</time>
      </trkpt>
      <trkpt lat="43.19417" lon="6.60155">
        <ele>44.400001525879</ele>
        <time>2011-06-02T14:17:37.000Z</time>
      </trkpt>
      <trkpt lat="43.19428" lon="6.60154">
        <ele>46.400001525879</ele>
        <time>2011-06-02T14:17:41.000Z</time>
      </trkpt>
      <trkpt lat="43.19438" lon="6.60141">
        <ele>48.400001525879</ele>
        <time>2011-06-02T14:17:45.000Z</time>
      </trkpt>
      <trkpt lat="43.19451" lon="6.60118">
        <ele>50.400001525879</ele>
        <time>2011-06-02T14:17:52.000Z</time>
      </trkpt>
      <trkpt lat="43.19461" lon="6.60112">
        <ele>51.200000762939</ele>
        <time>2011-06-02T14:17:56.000Z</time>
      </trkpt>
      <trkpt lat="43.19476" lon="6.60114">
        <ele>52.200000762939</ele>
        <time>2011-06-02T14:18:01.000Z</time>
      </trkpt>
      <trkpt lat="43.19491" lon="6.6012">
        <ele>53.400001525879</ele>
        <time>2011-06-02T14:18:07.000Z</time>
      </trkpt>
      <trkpt lat="43.19505" lon="6.60127">
        <ele>54.799999237061</ele>
        <time>2011-06-02T14:18:13.000Z</time>
      </trkpt>
      <trkpt lat="43.19521" lon="6.60134">
        <ele>56.599998474121</ele>
        <time>2011-06-02T14:18:20.000Z</time>
      </trkpt>
      <trkpt lat="43.19547" lon="6.60141">
        <ele>58.599998474121</ele>
        <time>2011-06-02T14:18:29.000Z</time>
      </trkpt>
      <trkpt lat="43.19565" lon="6.6015">
        <ele>59.400001525879</ele>
        <time>2011-06-02T14:18:35.000Z</time>
      </trkpt>
      <trkpt lat="43.19584" lon="6.60147">
        <ele>59.599998474121</ele>
        <time>2011-06-02T14:18:40.000Z</time>
      </trkpt>
      <trkpt lat="43.19606" lon="6.60144">
        <ele>61.200000762939</ele>
        <time>2011-06-02T14:18:47.000Z</time>
      </trkpt>
      <trkpt lat="43.19634" lon="6.60145">
        <ele>62.400001525879</ele>
        <time>2011-06-02T14:18:55.000Z</time>
      </trkpt>
      <trkpt lat="43.19658" lon="6.60143">
        <ele>63.599998474121</ele>
        <time>2011-06-02T14:19:02.000Z</time>
      </trkpt>
      <trkpt lat="43.19691" lon="6.6014">
        <ele>66.400001525879</ele>
        <time>2011-06-02T14:19:12.000Z</time>
      </trkpt>
      <trkpt lat="43.19714" lon="6.60136">
        <ele>68.800003051758</ele>
        <time>2011-06-02T14:19:19.000Z</time>
      </trkpt>
      <trkpt lat="43.19737" lon="6.60132">
        <ele>70.199996948242</ele>
        <time>2011-06-02T14:19:26.000Z</time>
      </trkpt>
      <trkpt lat="43.19753" lon="6.60135">
        <ele>70.800003051758</ele>
        <time>2011-06-02T14:19:31.000Z</time>
      </trkpt>
      <trkpt lat="43.19765" lon="6.60149">
        <ele>71</ele>
        <time>2011-06-02T14:19:35.000Z</time>
      </trkpt>
      <trkpt lat="43.19776" lon="6.60163">
        <ele>71</ele>
        <time>2011-06-02T14:19:39.000Z</time>
      </trkpt>
      <trkpt lat="43.19796" lon="6.60179">
        <ele>72.199996948242</ele>
        <time>2011-06-02T14:19:45.000Z</time>
      </trkpt>
      <trkpt lat="43.19812" lon="6.60195">
        <ele>74.800003051758</ele>
        <time>2011-06-02T14:19:52.000Z</time>
      </trkpt>
      <trkpt lat="43.19826" lon="6.60219">
        <ele>77.599998474121</ele>
        <time>2011-06-02T14:20:00.000Z</time>
      </trkpt>
      <trkpt lat="43.19833" lon="6.60235">
        <ele>78.800003051758</ele>
        <time>2011-06-02T14:20:05.000Z</time>
      </trkpt>
      <trkpt lat="43.19849" lon="6.60239">
        <ele>80</ele>
        <time>2011-06-02T14:20:10.000Z</time>
      </trkpt>
      <trkpt lat="43.19871" lon="6.60238">
        <ele>81</ele>
        <time>2011-06-02T14:20:17.000Z</time>
      </trkpt>
      <trkpt lat="43.19889" lon="6.60233">
        <ele>82.400001525879</ele>
        <time>2011-06-02T14:20:23.000Z</time>
      </trkpt>
      <trkpt lat="43.19913" lon="6.60226">
        <ele>84</ele>
        <time>2011-06-02T14:20:31.000Z</time>
      </trkpt>
      <trkpt lat="43.19926" lon="6.60211">
        <ele>84.800003051758</ele>
        <time>2011-06-02T14:20:36.000Z</time>
      </trkpt>
      <trkpt lat="43.19944" lon="6.60202">
        <ele>84.599998474121</ele>
        <time>2011-06-02T14:20:41.000Z</time>
      </trkpt>
      <trkpt lat="43.1997" lon="6.60197">
        <ele>85.199996948242</ele>
        <time>2011-06-02T14:20:48.000Z</time>
      </trkpt>
      <trkpt lat="43.19985" lon="6.60196">
        <ele>87.599998474121</ele>
        <time>2011-06-02T14:20:55.000Z</time>
      </trkpt>
      <trkpt lat="43.19995" lon="6.602">
        <ele>89.599998474121</ele>
        <time>2011-06-02T14:21:01.000Z</time>
      </trkpt>
      <trkpt lat="43.19999" lon="6.602">
        <ele>89.800003051758</ele>
        <time>2011-06-02T14:21:08.000Z</time>
      </trkpt>
      <trkpt lat="43.20004" lon="6.60197">
        <ele>89.599998474121</ele>
        <time>2011-06-02T14:22:37.000Z</time>
      </trkpt>
      <trkpt lat="43.20004" lon="6.602">
        <ele>89.400001525879</ele>
        <time>2011-06-02T14:25:31.000Z</time>
      </trkpt>
      <trkpt lat="43.2001" lon="6.60199">
        <ele>89.599998474121</ele>
        <time>2011-06-02T14:25:35.000Z</time>
      </trkpt>
      <trkpt lat="43.20019" lon="6.60202">
        <ele>89.800003051758</ele>
        <time>2011-06-02T14:25:42.000Z</time>
      </trkpt>
      <trkpt lat="43.2003" lon="6.6021">
        <ele>91.400001525879</ele>
        <time>2011-06-02T14:25:50.000Z</time>
      </trkpt>
      <trkpt lat="43.20042" lon="6.60213">
        <ele>93.199996948242</ele>
        <time>2011-06-02T14:25:56.000Z</time>
      </trkpt>
      <trkpt lat="43.20054" lon="6.6021">
        <ele>96.400001525879</ele>
        <time>2011-06-02T14:26:04.000Z</time>
      </trkpt>
      <trkpt lat="43.20066" lon="6.60207">
        <ele>98.599998474121</ele>
        <time>2011-06-02T14:26:11.000Z</time>
      </trkpt>
      <trkpt lat="43.20079" lon="6.60202">
        <ele>101</ele>
        <time>2011-06-02T14:26:19.000Z</time>
      </trkpt>
      <trkpt lat="43.20096" lon="6.60192">
        <ele>102.80000305176</ele>
        <time>2011-06-02T14:26:28.000Z</time>
      </trkpt>
      <trkpt lat="43.20113" lon="6.60182">
        <ele>103.80000305176</ele>
        <time>2011-06-02T14:26:37.000Z</time>
      </trkpt>
      <trkpt lat="43.2013" lon="6.60174">
        <ele>105.59999847412</ele>
        <time>2011-06-02T14:26:45.000Z</time>
      </trkpt>
      <trkpt lat="43.20146" lon="6.60164">
        <ele>106.19999694824</ele>
        <time>2011-06-02T14:26:52.000Z</time>
      </trkpt>
      <trkpt lat="43.20163" lon="6.60165">
        <ele>107</ele>
        <time>2011-06-02T14:26:59.000Z</time>
      </trkpt>
      <trkpt lat="43.20181" lon="6.6016">
        <ele>108.19999694824</ele>
        <time>2011-06-02T14:27:06.000Z</time>
      </trkpt>
      <trkpt lat="43.20185" lon="6.60148">
        <ele>108.59999847412</ele>
        <time>2011-06-02T14:27:10.000Z</time>
      </trkpt>
      <trkpt lat="43.20178" lon="6.60128">
        <ele>109.40000152588</ele>
        <time>2011-06-02T14:27:16.000Z</time>
      </trkpt>
      <trkpt lat="43.20168" lon="6.60109">
        <ele>110.59999847412</ele>
        <time>2011-06-02T14:27:23.000Z</time>
      </trkpt>
      <trkpt lat="43.20161" lon="6.60096">
        <ele>112</ele>
        <time>2011-06-02T14:27:28.000Z</time>
      </trkpt>
      <trkpt lat="43.20149" lon="6.60086">
        <ele>114.40000152588</ele>
        <time>2011-06-02T14:27:35.000Z</time>
      </trkpt>
      <trkpt lat="43.20131" lon="6.60078">
        <ele>116.80000305176</ele>
        <time>2011-06-02T14:27:43.000Z</time>
      </trkpt>
      <trkpt lat="43.20114" lon="6.60076">
        <ele>118.19999694824</ele>
        <time>2011-06-02T14:27:50.000Z</time>
      </trkpt>
      <trkpt lat="43.20091" lon="6.6007">
        <ele>120.40000152588</ele>
        <time>2011-06-02T14:28:00.000Z</time>
      </trkpt>
      <trkpt lat="43.20088" lon="6.60066">
        <ele>120.59999847412</ele>
        <time>2011-06-02T14:28:02.000Z</time>
      </trkpt>
      <trkpt lat="43.2009" lon="6.6005">
        <ele>121.19999694824</ele>
        <time>2011-06-02T14:28:07.000Z</time>
      </trkpt>
      <trkpt lat="43.20099" lon="6.60045">
        <ele>121.80000305176</ele>
        <time>2011-06-02T14:28:11.000Z</time>
      </trkpt>
      <trkpt lat="43.20107" lon="6.60046">
        <ele>122</ele>
        <time>2011-06-02T14:28:14.000Z</time>
      </trkpt>
      <trkpt lat="43.20116" lon="6.60045">
        <ele>122.40000152588</ele>
        <time>2011-06-02T14:28:17.000Z</time>
      </trkpt>
      <trkpt lat="43.20141" lon="6.60026">
        <ele>123.80000305176</ele>
        <time>2011-06-02T14:28:26.000Z</time>
      </trkpt>
      <trkpt lat="43.20152" lon="6.60009">
        <ele>124.19999694824</ele>
        <time>2011-06-02T14:28:32.000Z</time>
      </trkpt>
      <trkpt lat="43.20153" lon="6.60006">
        <ele>123.80000305176</ele>
        <time>2011-06-02T14:28:37.000Z</time>
      </trkpt>
      <trkpt lat="43.20151" lon="6.59998">
        <ele>124.40000152588</ele>
        <time>2011-06-02T14:32:09.000Z</time>
      </trkpt>
      <trkpt lat="43.20152" lon="6.59994">
        <ele>124.19999694824</ele>
        <time>2011-06-02T14:32:15.000Z</time>
      </trkpt>
      <trkpt lat="43.20155" lon="6.59993">
        <ele>124.19999694824</ele>
        <time>2011-06-02T14:32:25.000Z</time>
      </trkpt>
      <trkpt lat="43.20157" lon="6.59989">
        <ele>124.19999694824</ele>
        <time>2011-06-02T14:32:31.000Z</time>
      </trkpt>
      <trkpt lat="43.2016" lon="6.59988">
        <ele>124</ele>
        <time>2011-06-02T14:32:37.000Z</time>
      </trkpt>
      <trkpt lat="43.20164" lon="6.59983">
        <ele>123.80000305176</ele>
        <time>2011-06-02T14:32:45.000Z</time>
      </trkpt>
      <trkpt lat="43.20169" lon="6.59977">
        <ele>123.80000305176</ele>
        <time>2011-06-02T14:32:47.000Z</time>
      </trkpt>
      <trkpt lat="43.20194" lon="6.59974">
        <ele>124</ele>
        <time>2011-06-02T14:32:53.000Z</time>
      </trkpt>
      <trkpt lat="43.20205" lon="6.59981">
        <ele>124.59999847412</ele>
        <time>2011-06-02T14:32:57.000Z</time>
      </trkpt>
      <trkpt lat="43.20216" lon="6.59993">
        <ele>126.40000152588</ele>
        <time>2011-06-02T14:33:03.000Z</time>
      </trkpt>
      <trkpt lat="43.20223" lon="6.60002">
        <ele>128</ele>
        <time>2011-06-02T14:33:08.000Z</time>
      </trkpt>
      <trkpt lat="43.20239" lon="6.60014">
        <ele>130.80000305176</ele>
        <time>2011-06-02T14:33:17.000Z</time>
      </trkpt>
      <trkpt lat="43.20251" lon="6.6002">
        <ele>133</ele>
        <time>2011-06-02T14:33:24.000Z</time>
      </trkpt>
      <trkpt lat="43.20263" lon="6.60017">
        <ele>135.19999694824</ele>
        <time>2011-06-02T14:33:32.000Z</time>
      </trkpt>
      <trkpt lat="43.20274" lon="6.60014">
        <ele>137.19999694824</ele>
        <time>2011-06-02T14:33:37.000Z</time>
      </trkpt>
      <trkpt lat="43.20291" lon="6.60011">
        <ele>140</ele>
        <time>2011-06-02T14:33:44.000Z</time>
      </trkpt>
      <trkpt lat="43.20303" lon="6.60006">
        <ele>142.19999694824</ele>
        <time>2011-06-02T14:33:49.000Z</time>
      </trkpt>
      <trkpt lat="43.20319" lon="6.60001">
        <ele>144.19999694824</ele>
        <time>2011-06-02T14:33:56.000Z</time>
      </trkpt>
      <trkpt lat="43.20339" lon="6.60007">
        <ele>147</ele>
        <time>2011-06-02T14:34:04.000Z</time>
      </trkpt>
      <trkpt lat="43.20356" lon="6.60013">
        <ele>149.19999694824</ele>
        <time>2011-06-02T14:34:11.000Z</time>
      </trkpt>
      <trkpt lat="43.2037" lon="6.60019">
        <ele>150.60000610352</ele>
        <time>2011-06-02T14:34:17.000Z</time>
      </trkpt>
      <trkpt lat="43.20386" lon="6.6003">
        <ele>151.80000305176</ele>
        <time>2011-06-02T14:34:24.000Z</time>
      </trkpt>
      <trkpt lat="43.20403" lon="6.60045">
        <ele>153</ele>
        <time>2011-06-02T14:34:32.000Z</time>
      </trkpt>
      <trkpt lat="43.20417" lon="6.60061">
        <ele>154</ele>
        <time>2011-06-02T14:34:40.000Z</time>
      </trkpt>
      <trkpt lat="43.20429" lon="6.60079">
        <ele>156.39999389648</ele>
        <time>2011-06-02T14:34:48.000Z</time>
      </trkpt>
      <trkpt lat="43.2044" lon="6.60093">
        <ele>159.19999694824</ele>
        <time>2011-06-02T14:34:56.000Z</time>
      </trkpt>
      <trkpt lat="43.20443" lon="6.60098">
        <ele>159.80000305176</ele>
        <time>2011-06-02T14:34:59.000Z</time>
      </trkpt>
      <trkpt lat="43.20439" lon="6.60107">
        <ele>161.19999694824</ele>
        <time>2011-06-02T14:35:04.000Z</time>
      </trkpt>
      <trkpt lat="43.20436" lon="6.60106">
        <ele>161.39999389648</ele>
        <time>2011-06-02T14:35:05.000Z</time>
      </trkpt>
      <trkpt lat="43.20412" lon="6.60101">
        <ele>163.60000610352</ele>
        <time>2011-06-02T14:35:14.000Z</time>
      </trkpt>
      <trkpt lat="43.20387" lon="6.60099">
        <ele>165.60000610352</ele>
        <time>2011-06-02T14:35:23.000Z</time>
      </trkpt>
      <trkpt lat="43.20376" lon="6.60104">
        <ele>166.60000610352</ele>
        <time>2011-06-02T14:35:29.000Z</time>
      </trkpt>
      <trkpt lat="43.20373" lon="6.60109">
        <ele>167.19999694824</ele>
        <time>2011-06-02T14:35:33.000Z</time>
      </trkpt>
      <trkpt lat="43.20378" lon="6.60113">
        <ele>167.80000305176</ele>
        <time>2011-06-02T14:35:38.000Z</time>
      </trkpt>
      <trkpt lat="43.20391" lon="6.60117">
        <ele>169.39999389648</ele>
        <time>2011-06-02T14:35:45.000Z</time>
      </trkpt>
      <trkpt lat="43.20399" lon="6.60121">
        <ele>170.39999389648</ele>
        <time>2011-06-02T14:35:49.000Z</time>
      </trkpt>
      <trkpt lat="43.2041" lon="6.60132">
        <ele>172</ele>
        <time>2011-06-02T14:35:55.000Z</time>
      </trkpt>
      <trkpt lat="43.20412" lon="6.60134">
        <ele>172.39999389648</ele>
        <time>2011-06-02T14:35:56.000Z</time>
      </trkpt>
      <trkpt lat="43.20418" lon="6.60144">
        <ele>173.60000610352</ele>
        <time>2011-06-02T14:36:00.000Z</time>
      </trkpt>
      <trkpt lat="43.20426" lon="6.60166">
        <ele>175.60000610352</ele>
        <time>2011-06-02T14:36:07.000Z</time>
      </trkpt>
      <trkpt lat="43.20435" lon="6.60187">
        <ele>177.19999694824</ele>
        <time>2011-06-02T14:36:14.000Z</time>
      </trkpt>
      <trkpt lat="43.20445" lon="6.60212">
        <ele>180</ele>
        <time>2011-06-02T14:36:23.000Z</time>
      </trkpt>
      <trkpt lat="43.20454" lon="6.60226">
        <ele>181.80000305176</ele>
        <time>2011-06-02T14:36:30.000Z</time>
      </trkpt>
      <trkpt lat="43.20469" lon="6.60232">
        <ele>183.39999389648</ele>
        <time>2011-06-02T14:36:37.000Z</time>
      </trkpt>
      <trkpt lat="43.20481" lon="6.60241">
        <ele>184.80000305176</ele>
        <time>2011-06-02T14:36:43.000Z</time>
      </trkpt>
      <trkpt lat="43.20498" lon="6.60255">
        <ele>188</ele>
        <time>2011-06-02T14:36:51.000Z</time>
      </trkpt>
      <trkpt lat="43.20513" lon="6.60259">
        <ele>191</ele>
        <time>2011-06-02T14:36:58.000Z</time>
      </trkpt>
      <trkpt lat="43.20532" lon="6.60258">
        <ele>193.19999694824</ele>
        <time>2011-06-02T14:37:06.000Z</time>
      </trkpt>
      <trkpt lat="43.20546" lon="6.60266">
        <ele>194.39999389648</ele>
        <time>2011-06-02T14:37:12.000Z</time>
      </trkpt>
      <trkpt lat="43.20557" lon="6.60285">
        <ele>196.80000305176</ele>
        <time>2011-06-02T14:37:19.000Z</time>
      </trkpt>
      <trkpt lat="43.20564" lon="6.60307">
        <ele>198.80000305176</ele>
        <time>2011-06-02T14:37:26.000Z</time>
      </trkpt>
      <trkpt lat="43.20571" lon="6.6033">
        <ele>201.60000610352</ele>
        <time>2011-06-02T14:37:35.000Z</time>
      </trkpt>
      <trkpt lat="43.20583" lon="6.60341">
        <ele>203.80000305176</ele>
        <time>2011-06-02T14:37:42.000Z</time>
      </trkpt>
      <trkpt lat="43.20601" lon="6.60335">
        <ele>206.39999389648</ele>
        <time>2011-06-02T14:37:50.000Z</time>
      </trkpt>
      <trkpt lat="43.20622" lon="6.60327">
        <ele>208.80000305176</ele>
        <time>2011-06-02T14:38:00.000Z</time>
      </trkpt>
      <trkpt lat="43.20641" lon="6.6032">
        <ele>210.19999694824</ele>
        <time>2011-06-02T14:38:08.000Z</time>
      </trkpt>
      <trkpt lat="43.2066" lon="6.60313">
        <ele>211</ele>
        <time>2011-06-02T14:38:15.000Z</time>
      </trkpt>
      <trkpt lat="43.2067" lon="6.60308">
        <ele>211.39999389648</ele>
        <time>2011-06-02T14:38:21.000Z</time>
      </trkpt>
      <trkpt lat="43.20671" lon="6.60308">
        <ele>211.39999389648</ele>
        <time>2011-06-02T14:38:22.000Z</time>
      </trkpt>
      <trkpt lat="43.20673" lon="6.60314">
        <ele>211.19999694824</ele>
        <time>2011-06-02T14:38:28.000Z</time>
      </trkpt>
      <trkpt lat="43.20671" lon="6.60311">
        <ele>211.60000610352</ele>
        <time>2011-06-02T14:38:31.000Z</time>
      </trkpt>
      <trkpt lat="43.20673" lon="6.60309">
        <ele>211.80000305176</ele>
        <time>2011-06-02T14:38:34.000Z</time>
      </trkpt>
      <trkpt lat="43.20674" lon="6.60309">
        <ele>211.60000610352</ele>
        <time>2011-06-02T14:38:42.000Z</time>
      </trkpt>
      <trkpt lat="43.20671" lon="6.60312">
        <ele>211.60000610352</ele>
        <time>2011-06-02T14:44:22.000Z</time>
      </trkpt>
      <trkpt lat="43.20664" lon="6.60309">
        <ele>211.39999389648</ele>
        <time>2011-06-02T14:44:27.000Z</time>
      </trkpt>
      <trkpt lat="43.20663" lon="6.60302">
        <ele>211.39999389648</ele>
        <time>2011-06-02T14:44:31.000Z</time>
      </trkpt>
      <trkpt lat="43.20664" lon="6.60304">
        <ele>211.39999389648</ele>
        <time>2011-06-02T14:44:47.000Z</time>
      </trkpt>
      <trkpt lat="43.20664" lon="6.6031">
        <ele>211.39999389648</ele>
        <time>2011-06-02T14:44:52.000Z</time>
      </trkpt>
      <trkpt lat="43.20663" lon="6.60307">
        <ele>211.39999389648</ele>
        <time>2011-06-02T14:44:54.000Z</time>
      </trkpt>
      <trkpt lat="43.20663" lon="6.60302">
        <ele>211.19999694824</ele>
        <time>2011-06-02T14:44:59.000Z</time>
      </trkpt>
      <trkpt lat="43.20665" lon="6.60303">
        <ele>211.19999694824</ele>
        <time>2011-06-02T14:45:49.000Z</time>
      </trkpt>
      <trkpt lat="43.20667" lon="6.60309">
        <ele>211.19999694824</ele>
        <time>2011-06-02T14:45:53.000Z</time>
      </trkpt>
      <trkpt lat="43.20673" lon="6.60311">
        <ele>211.39999389648</ele>
        <time>2011-06-02T14:45:58.000Z</time>
      </trkpt>
      <trkpt lat="43.20676" lon="6.60312">
        <ele>212</ele>
        <time>2011-06-02T14:46:03.000Z</time>
      </trkpt>
      <trkpt lat="43.20676" lon="6.60313">
        <ele>211.60000610352</ele>
        <time>2011-06-02T14:46:16.000Z</time>
      </trkpt>
      <trkpt lat="43.20681" lon="6.60313">
        <ele>212</ele>
        <time>2011-06-02T14:48:21.000Z</time>
      </trkpt>
      <trkpt lat="43.20687" lon="6.60314">
        <ele>211.80000305176</ele>
        <time>2011-06-02T14:48:23.000Z</time>
      </trkpt>
      <trkpt lat="43.2072" lon="6.60313">
        <ele>211.60000610352</ele>
        <time>2011-06-02T14:48:29.000Z</time>
      </trkpt>
      <trkpt lat="43.20754" lon="6.60327">
        <ele>209.60000610352</ele>
        <time>2011-06-02T14:48:34.000Z</time>
      </trkpt>
      <trkpt lat="43.20789" lon="6.60331">
        <ele>207.60000610352</ele>
        <time>2011-06-02T14:48:39.000Z</time>
      </trkpt>
      <trkpt lat="43.20808" lon="6.6034">
        <ele>207.39999389648</ele>
        <time>2011-06-02T14:48:42.000Z</time>
      </trkpt>
      <trkpt lat="43.20838" lon="6.60344">
        <ele>207.19999694824</ele>
        <time>2011-06-02T14:48:46.000Z</time>
      </trkpt>
      <trkpt lat="43.20854" lon="6.60339">
        <ele>207</ele>
        <time>2011-06-02T14:48:48.000Z</time>
      </trkpt>
      <trkpt lat="43.20904" lon="6.60318">
        <ele>206</ele>
        <time>2011-06-02T14:48:54.000Z</time>
      </trkpt>
      <trkpt lat="43.2094" lon="6.60319">
        <ele>204.39999389648</ele>
        <time>2011-06-02T14:48:59.000Z</time>
      </trkpt>
      <trkpt lat="43.20953" lon="6.60324">
        <ele>204.19999694824</ele>
        <time>2011-06-02T14:49:01.000Z</time>
      </trkpt>
      <trkpt lat="43.20976" lon="6.60344">
        <ele>203.80000305176</ele>
        <time>2011-06-02T14:49:05.000Z</time>
      </trkpt>
      <trkpt lat="43.20988" lon="6.60371">
        <ele>203.80000305176</ele>
        <time>2011-06-02T14:49:09.000Z</time>
      </trkpt>
      <trkpt lat="43.20988" lon="6.60394">
        <ele>205.19999694824</ele>
        <time>2011-06-02T14:49:13.000Z</time>
      </trkpt>
      <trkpt lat="43.20982" lon="6.60412">
        <ele>206.60000610352</ele>
        <time>2011-06-02T14:49:17.000Z</time>
      </trkpt>
      <trkpt lat="43.20973" lon="6.60443">
        <ele>209</ele>
        <time>2011-06-02T14:49:24.000Z</time>
      </trkpt>
      <trkpt lat="43.20964" lon="6.60474">
        <ele>211.19999694824</ele>
        <time>2011-06-02T14:49:32.000Z</time>
      </trkpt>
      <trkpt lat="43.20953" lon="6.60497">
        <ele>213.39999389648</ele>
        <time>2011-06-02T14:49:39.000Z</time>
      </trkpt>
      <trkpt lat="43.20937" lon="6.60511">
        <ele>214.60000610352</ele>
        <time>2011-06-02T14:49:45.000Z</time>
      </trkpt>
      <trkpt lat="43.20915" lon="6.60533">
        <ele>217</ele>
        <time>2011-06-02T14:49:53.000Z</time>
      </trkpt>
      <trkpt lat="43.20901" lon="6.60561">
        <ele>219.80000305176</ele>
        <time>2011-06-02T14:50:00.000Z</time>
      </trkpt>
      <trkpt lat="43.2089" lon="6.60594">
        <ele>221.60000610352</ele>
        <time>2011-06-02T14:50:08.000Z</time>
      </trkpt>
      <trkpt lat="43.20881" lon="6.60625">
        <ele>223.80000305176</ele>
        <time>2011-06-02T14:50:15.000Z</time>
      </trkpt>
      <trkpt lat="43.2087" lon="6.60648">
        <ele>225.60000610352</ele>
        <time>2011-06-02T14:50:21.000Z</time>
      </trkpt>
      <trkpt lat="43.20859" lon="6.60671">
        <ele>227.19999694824</ele>
        <time>2011-06-02T14:50:28.000Z</time>
      </trkpt>
      <trkpt lat="43.20856" lon="6.60689">
        <ele>228.19999694824</ele>
        <time>2011-06-02T14:50:33.000Z</time>
      </trkpt>
      <trkpt lat="43.20854" lon="6.60699">
        <ele>229.39999389648</ele>
        <time>2011-06-02T14:50:39.000Z</time>
      </trkpt>
      <trkpt lat="43.20851" lon="6.60708">
        <ele>229</ele>
        <time>2011-06-02T14:50:44.000Z</time>
      </trkpt>
      <trkpt lat="43.20849" lon="6.60708">
        <ele>228.80000305176</ele>
        <time>2011-06-02T14:50:50.000Z</time>
      </trkpt>
      <trkpt lat="43.20848" lon="6.60707">
        <ele>228.80000305176</ele>
        <time>2011-06-02T14:50:53.000Z</time>
      </trkpt>
      <trkpt lat="43.20851" lon="6.60704">
        <ele>228.80000305176</ele>
        <time>2011-06-02T14:50:57.000Z</time>
      </trkpt>
      <trkpt lat="43.20859" lon="6.60705">
        <ele>229</ele>
        <time>2011-06-02T14:51:03.000Z</time>
      </trkpt>
      <trkpt lat="43.2086" lon="6.60704">
        <ele>229</ele>
        <time>2011-06-02T14:51:04.000Z</time>
      </trkpt>
      <trkpt lat="43.20873" lon="6.60702">
        <ele>230.19999694824</ele>
        <time>2011-06-02T14:51:12.000Z</time>
      </trkpt>
      <trkpt lat="43.20888" lon="6.60696">
        <ele>231.39999389648</ele>
        <time>2011-06-02T14:51:19.000Z</time>
      </trkpt>
      <trkpt lat="43.209" lon="6.60687">
        <ele>232.80000305176</ele>
        <time>2011-06-02T14:51:26.000Z</time>
      </trkpt>
      <trkpt lat="43.20912" lon="6.60682">
        <ele>234.39999389648</ele>
        <time>2011-06-02T14:51:32.000Z</time>
      </trkpt>
      <trkpt lat="43.20919" lon="6.60675">
        <ele>235</ele>
        <time>2011-06-02T14:51:35.000Z</time>
      </trkpt>
      <trkpt lat="43.20939" lon="6.60667">
        <ele>237</ele>
        <time>2011-06-02T14:51:42.000Z</time>
      </trkpt>
      <trkpt lat="43.20954" lon="6.60656">
        <ele>239.19999694824</ele>
        <time>2011-06-02T14:51:47.000Z</time>
      </trkpt>
      <trkpt lat="43.20969" lon="6.60645">
        <ele>240.39999389648</ele>
        <time>2011-06-02T14:51:52.000Z</time>
      </trkpt>
      <trkpt lat="43.20994" lon="6.60622">
        <ele>243.39999389648</ele>
        <time>2011-06-02T14:51:59.000Z</time>
      </trkpt>
      <trkpt lat="43.21019" lon="6.606">
        <ele>246</ele>
        <time>2011-06-02T14:52:06.000Z</time>
      </trkpt>
      <trkpt lat="43.21046" lon="6.60574">
        <ele>248.60000610352</ele>
        <time>2011-06-02T14:52:13.000Z</time>
      </trkpt>
      <trkpt lat="43.21062" lon="6.6056">
        <ele>249.80000305176</ele>
        <time>2011-06-02T14:52:17.000Z</time>
      </trkpt>
      <trkpt lat="43.2108" lon="6.60558">
        <ele>250.80000305176</ele>
        <time>2011-06-02T14:52:21.000Z</time>
      </trkpt>
      <trkpt lat="43.21091" lon="6.60569">
        <ele>251.39999389648</ele>
        <time>2011-06-02T14:52:24.000Z</time>
      </trkpt>
      <trkpt lat="43.2112" lon="6.60609">
        <ele>250.80000305176</ele>
        <time>2011-06-02T14:52:32.000Z</time>
      </trkpt>
      <trkpt lat="43.21143" lon="6.60638">
        <ele>249.80000305176</ele>
        <time>2011-06-02T14:52:37.000Z</time>
      </trkpt>
      <trkpt lat="43.21168" lon="6.60644">
        <ele>249.39999389648</ele>
        <time>2011-06-02T14:52:41.000Z</time>
      </trkpt>
      <trkpt lat="43.2118" lon="6.60639">
        <ele>249.39999389648</ele>
        <time>2011-06-02T14:52:43.000Z</time>
      </trkpt>
      <trkpt lat="43.21205" lon="6.60629">
        <ele>249.80000305176</ele>
        <time>2011-06-02T14:52:48.000Z</time>
      </trkpt>
      <trkpt lat="43.21222" lon="6.60607">
        <ele>251.80000305176</ele>
        <time>2011-06-02T14:52:53.000Z</time>
      </trkpt>
      <trkpt lat="43.21223" lon="6.60601">
        <ele>252.39999389648</ele>
        <time>2011-06-02T14:52:54.000Z</time>
      </trkpt>
      <trkpt lat="43.21233" lon="6.60553">
        <ele>255</ele>
        <time>2011-06-02T14:53:02.000Z</time>
      </trkpt>
      <trkpt lat="43.21235" lon="6.60547">
        <ele>255.19999694824</ele>
        <time>2011-06-02T14:53:03.000Z</time>
      </trkpt>
      <trkpt lat="43.21252" lon="6.60528">
        <ele>256.39999389648</ele>
        <time>2011-06-02T14:53:08.000Z</time>
      </trkpt>
      <trkpt lat="43.21261" lon="6.60529">
        <ele>257.20001220703</ele>
        <time>2011-06-02T14:53:10.000Z</time>
      </trkpt>
      <trkpt lat="43.21299" lon="6.6054">
        <ele>259.60000610352</ele>
        <time>2011-06-02T14:53:18.000Z</time>
      </trkpt>
      <trkpt lat="43.21333" lon="6.60536">
        <ele>262.20001220703</ele>
        <time>2011-06-02T14:53:25.000Z</time>
      </trkpt>
      <trkpt lat="43.21358" lon="6.60523">
        <ele>265.20001220703</ele>
        <time>2011-06-02T14:53:32.000Z</time>
      </trkpt>
      <trkpt lat="43.21363" lon="6.60519">
        <ele>266.20001220703</ele>
        <time>2011-06-02T14:53:35.000Z</time>
      </trkpt>
      <trkpt lat="43.21368" lon="6.60524">
        <ele>266.79998779297</ele>
        <time>2011-06-02T14:53:39.000Z</time>
      </trkpt>
      <trkpt lat="43.2137" lon="6.60542">
        <ele>267</ele>
        <time>2011-06-02T14:53:45.000Z</time>
      </trkpt>
      <trkpt lat="43.2138" lon="6.60551">
        <ele>267.20001220703</ele>
        <time>2011-06-02T14:53:51.000Z</time>
      </trkpt>
      <trkpt lat="43.21393" lon="6.60554">
        <ele>267.39999389648</ele>
        <time>2011-06-02T14:53:58.000Z</time>
      </trkpt>
      <trkpt lat="43.21395" lon="6.60554">
        <ele>267.39999389648</ele>
        <time>2011-06-02T14:53:59.000Z</time>
      </trkpt>
      <trkpt lat="43.21397" lon="6.60552">
        <ele>267</ele>
        <time>2011-06-02T14:54:06.000Z</time>
      </trkpt>
      <trkpt lat="43.21397" lon="6.60551">
        <ele>267</ele>
        <time>2011-06-02T14:54:17.000Z</time>
      </trkpt>
      <trkpt lat="43.21386" lon="6.60552">
        <ele>267.60000610352</ele>
        <time>2011-06-02T14:54:24.000Z</time>
      </trkpt>
      <trkpt lat="43.21373" lon="6.60547">
        <ele>267.39999389648</ele>
        <time>2011-06-02T14:54:31.000Z</time>
      </trkpt>
      <trkpt lat="43.21366" lon="6.60534">
        <ele>267.20001220703</ele>
        <time>2011-06-02T14:54:37.000Z</time>
      </trkpt>
      <trkpt lat="43.21363" lon="6.60525">
        <ele>267.20001220703</ele>
        <time>2011-06-02T14:54:41.000Z</time>
      </trkpt>
      <trkpt lat="43.21371" lon="6.60514">
        <ele>266.60000610352</ele>
        <time>2011-06-02T14:54:47.000Z</time>
      </trkpt>
      <trkpt lat="43.21372" lon="6.60515">
        <ele>266.39999389648</ele>
        <time>2011-06-02T14:54:59.000Z</time>
      </trkpt>
      <trkpt lat="43.21376" lon="6.60505">
        <ele>268.20001220703</ele>
        <time>2011-06-02T15:00:02.000Z</time>
      </trkpt>
      <trkpt lat="43.21389" lon="6.60499">
        <ele>268.20001220703</ele>
        <time>2011-06-02T15:00:08.000Z</time>
      </trkpt>
      <trkpt lat="43.2141" lon="6.60489">
        <ele>268.60000610352</ele>
        <time>2011-06-02T15:00:15.000Z</time>
      </trkpt>
      <trkpt lat="43.21431" lon="6.60479">
        <ele>268.60000610352</ele>
        <time>2011-06-02T15:00:21.000Z</time>
      </trkpt>
      <trkpt lat="43.21455" lon="6.60465">
        <ele>267.79998779297</ele>
        <time>2011-06-02T15:00:26.000Z</time>
      </trkpt>
      <trkpt lat="43.21483" lon="6.6043">
        <ele>267.20001220703</ele>
        <time>2011-06-02T15:00:31.000Z</time>
      </trkpt>
      <trkpt lat="43.21515" lon="6.60392">
        <ele>265.60000610352</ele>
        <time>2011-06-02T15:00:36.000Z</time>
      </trkpt>
      <trkpt lat="43.21522" lon="6.60384">
        <ele>265.39999389648</ele>
        <time>2011-06-02T15:00:37.000Z</time>
      </trkpt>
      <trkpt lat="43.21544" lon="6.60342">
        <ele>264</ele>
        <time>2011-06-02T15:00:41.000Z</time>
      </trkpt>
      <trkpt lat="43.21558" lon="6.60303">
        <ele>262.60000610352</ele>
        <time>2011-06-02T15:00:44.000Z</time>
      </trkpt>
      <trkpt lat="43.21565" lon="6.60243">
        <ele>258.20001220703</ele>
        <time>2011-06-02T15:00:48.000Z</time>
      </trkpt>
      <trkpt lat="43.21568" lon="6.60212">
        <ele>255.19999694824</ele>
        <time>2011-06-02T15:00:50.000Z</time>
      </trkpt>
      <trkpt lat="43.21583" lon="6.60173">
        <ele>249.39999389648</ele>
        <time>2011-06-02T15:00:53.000Z</time>
      </trkpt>
      <trkpt lat="43.21602" lon="6.60157">
        <ele>246.19999694824</ele>
        <time>2011-06-02T15:00:55.000Z</time>
      </trkpt>
      <trkpt lat="43.21651" lon="6.60106">
        <ele>245.39999389648</ele>
        <time>2011-06-02T15:01:01.000Z</time>
      </trkpt>
      <trkpt lat="43.21674" lon="6.60084">
        <ele>245.19999694824</ele>
        <time>2011-06-02T15:01:04.000Z</time>
      </trkpt>
      <trkpt lat="43.21704" lon="6.60037">
        <ele>245.19999694824</ele>
        <time>2011-06-02T15:01:09.000Z</time>
      </trkpt>
      <trkpt lat="43.21746" lon="6.59981">
        <ele>243.19999694824</ele>
        <time>2011-06-02T15:01:15.000Z</time>
      </trkpt>
      <trkpt lat="43.21777" lon="6.59945">
        <ele>240.39999389648</ele>
        <time>2011-06-02T15:01:19.000Z</time>
      </trkpt>
      <trkpt lat="43.21792" lon="6.59911">
        <ele>238.80000305176</ele>
        <time>2011-06-02T15:01:22.000Z</time>
      </trkpt>
      <trkpt lat="43.21784" lon="6.59885">
        <ele>237.60000610352</ele>
        <time>2011-06-02T15:01:24.000Z</time>
      </trkpt>
      <trkpt lat="43.21769" lon="6.59868">
        <ele>237.19999694824</ele>
        <time>2011-06-02T15:01:26.000Z</time>
      </trkpt>
      <trkpt lat="43.21747" lon="6.59829">
        <ele>236</ele>
        <time>2011-06-02T15:01:30.000Z</time>
      </trkpt>
      <trkpt lat="43.21752" lon="6.59786">
        <ele>233.60000610352</ele>
        <time>2011-06-02T15:01:33.000Z</time>
      </trkpt>
      <trkpt lat="43.21768" lon="6.59763">
        <ele>232.19999694824</ele>
        <time>2011-06-02T15:01:35.000Z</time>
      </trkpt>
      <trkpt lat="43.2179" lon="6.59749">
        <ele>229</ele>
        <time>2011-06-02T15:01:37.000Z</time>
      </trkpt>
      <trkpt lat="43.21821" lon="6.5972">
        <ele>224.80000305176</ele>
        <time>2011-06-02T15:01:40.000Z</time>
      </trkpt>
      <trkpt lat="43.21838" lon="6.59675">
        <ele>220.80000305176</ele>
        <time>2011-06-02T15:01:43.000Z</time>
      </trkpt>
      <trkpt lat="43.2185" lon="6.59609">
        <ele>217.39999389648</ele>
        <time>2011-06-02T15:01:47.000Z</time>
      </trkpt>
      <trkpt lat="43.21874" lon="6.59558">
        <ele>215.60000610352</ele>
        <time>2011-06-02T15:01:51.000Z</time>
      </trkpt>
      <trkpt lat="43.21937" lon="6.59494">
        <ele>208.39999389648</ele>
        <time>2011-06-02T15:01:57.000Z</time>
      </trkpt>
      <trkpt lat="43.21947" lon="6.59481">
        <ele>207</ele>
        <time>2011-06-02T15:01:58.000Z</time>
      </trkpt>
      <trkpt lat="43.21968" lon="6.59457">
        <ele>205.60000610352</ele>
        <time>2011-06-02T15:02:00.000Z</time>
      </trkpt>
      <trkpt lat="43.22005" lon="6.59457">
        <ele>201.60000610352</ele>
        <time>2011-06-02T15:02:03.000Z</time>
      </trkpt>
      <trkpt lat="43.22045" lon="6.59451">
        <ele>195.19999694824</ele>
        <time>2011-06-02T15:02:07.000Z</time>
      </trkpt>
      <trkpt lat="43.22046" lon="6.5943">
        <ele>193</ele>
        <time>2011-06-02T15:02:09.000Z</time>
      </trkpt>
      <trkpt lat="43.22044" lon="6.59419">
        <ele>192.39999389648</ele>
        <time>2011-06-02T15:02:10.000Z</time>
      </trkpt>
      <trkpt lat="43.22028" lon="6.5934">
        <ele>193.19999694824</ele>
        <time>2011-06-02T15:02:17.000Z</time>
      </trkpt>
      <trkpt lat="43.22037" lon="6.59292">
        <ele>194</ele>
        <time>2011-06-02T15:02:21.000Z</time>
      </trkpt>
      <trkpt lat="43.22059" lon="6.59268">
        <ele>194.39999389648</ele>
        <time>2011-06-02T15:02:24.000Z</time>
      </trkpt>
      <trkpt lat="43.22067" lon="6.59263">
        <ele>194.39999389648</ele>
        <time>2011-06-02T15:02:25.000Z</time>
      </trkpt>
      <trkpt lat="43.2211" lon="6.59226">
        <ele>192</ele>
        <time>2011-06-02T15:02:30.000Z</time>
      </trkpt>
      <trkpt lat="43.22151" lon="6.59185">
        <ele>187.19999694824</ele>
        <time>2011-06-02T15:02:34.000Z</time>
      </trkpt>
      <trkpt lat="43.22205" lon="6.59146">
        <ele>181</ele>
        <time>2011-06-02T15:02:39.000Z</time>
      </trkpt>
      <trkpt lat="43.22231" lon="6.59101">
        <ele>174.60000610352</ele>
        <time>2011-06-02T15:02:43.000Z</time>
      </trkpt>
      <trkpt lat="43.22222" lon="6.59056">
        <ele>170.19999694824</ele>
        <time>2011-06-02T15:02:46.000Z</time>
      </trkpt>
      <trkpt lat="43.22209" lon="6.59015">
        <ele>167</ele>
        <time>2011-06-02T15:02:49.000Z</time>
      </trkpt>
      <trkpt lat="43.22214" lon="6.58989">
        <ele>166.39999389648</ele>
        <time>2011-06-02T15:02:51.000Z</time>
      </trkpt>
      <trkpt lat="43.22229" lon="6.58972">
        <ele>165.80000305176</ele>
        <time>2011-06-02T15:02:53.000Z</time>
      </trkpt>
      <trkpt lat="43.22252" lon="6.58968">
        <ele>165.60000610352</ele>
        <time>2011-06-02T15:02:55.000Z</time>
      </trkpt>
      <trkpt lat="43.22285" lon="6.5897">
        <ele>165.60000610352</ele>
        <time>2011-06-02T15:02:58.000Z</time>
      </trkpt>
      <trkpt lat="43.22302" lon="6.58964">
        <ele>166.19999694824</ele>
        <time>2011-06-02T15:03:00.000Z</time>
      </trkpt>
      <trkpt lat="43.22338" lon="6.58944">
        <ele>168.39999389648</ele>
        <time>2011-06-02T15:03:05.000Z</time>
      </trkpt>
      <trkpt lat="43.22357" lon="6.58916">
        <ele>170.19999694824</ele>
        <time>2011-06-02T15:03:09.000Z</time>
      </trkpt>
      <trkpt lat="43.2238" lon="6.5888">
        <ele>169.19999694824</ele>
        <time>2011-06-02T15:03:13.000Z</time>
      </trkpt>
      <trkpt lat="43.22397" lon="6.58865">
        <ele>167.19999694824</ele>
        <time>2011-06-02T15:03:15.000Z</time>
      </trkpt>
      <trkpt lat="43.22445" lon="6.58836">
        <ele>160.19999694824</ele>
        <time>2011-06-02T15:03:21.000Z</time>
      </trkpt>
      <trkpt lat="43.2249" lon="6.58786">
        <ele>157.39999389648</ele>
        <time>2011-06-02T15:03:28.000Z</time>
      </trkpt>
      <trkpt lat="43.22512" lon="6.58751">
        <ele>157</ele>
        <time>2011-06-02T15:03:33.000Z</time>
      </trkpt>
      <trkpt lat="43.22521" lon="6.58738">
        <ele>158.19999694824</ele>
        <time>2011-06-02T15:03:37.000Z</time>
      </trkpt>
      <trkpt lat="43.22525" lon="6.58734">
        <ele>158.60000610352</ele>
        <time>2011-06-02T15:03:40.000Z</time>
      </trkpt>
      <trkpt lat="43.2253" lon="6.58728">
        <ele>159.60000610352</ele>
        <time>2011-06-02T15:03:46.000Z</time>
      </trkpt>
      <trkpt lat="43.2253" lon="6.58726">
        <ele>159.80000305176</ele>
        <time>2011-06-02T15:03:53.000Z</time>
      </trkpt>
      <trkpt lat="43.2253" lon="6.58726">
        <ele>159.80000305176</ele>
        <time>2011-06-02T15:04:19.000Z</time>
      </trkpt>
      <trkpt lat="43.22536" lon="6.58717">
        <ele>160</ele>
        <time>2011-06-02T15:04:23.000Z</time>
      </trkpt>
      <trkpt lat="43.22556" lon="6.58701">
        <ele>162</ele>
        <time>2011-06-02T15:04:30.000Z</time>
      </trkpt>
      <trkpt lat="43.22575" lon="6.5869">
        <ele>162.19999694824</ele>
        <time>2011-06-02T15:04:36.000Z</time>
      </trkpt>
      <trkpt lat="43.226" lon="6.58679">
        <ele>162.19999694824</ele>
        <time>2011-06-02T15:04:41.000Z</time>
      </trkpt>
      <trkpt lat="43.22634" lon="6.58672">
        <ele>162.60000610352</ele>
        <time>2011-06-02T15:04:47.000Z</time>
      </trkpt>
      <trkpt lat="43.2267" lon="6.58665">
        <ele>164</ele>
        <time>2011-06-02T15:04:54.000Z</time>
      </trkpt>
      <trkpt lat="43.22695" lon="6.58654">
        <ele>164.80000305176</ele>
        <time>2011-06-02T15:05:00.000Z</time>
      </trkpt>
      <trkpt lat="43.22714" lon="6.58654">
        <ele>165.80000305176</ele>
        <time>2011-06-02T15:05:05.000Z</time>
      </trkpt>
      <trkpt lat="43.22742" lon="6.58655">
        <ele>168.39999389648</ele>
        <time>2011-06-02T15:05:12.000Z</time>
      </trkpt>
      <trkpt lat="43.2277" lon="6.58652">
        <ele>171</ele>
        <time>2011-06-02T15:05:19.000Z</time>
      </trkpt>
      <trkpt lat="43.22784" lon="6.58651">
        <ele>171.80000305176</ele>
        <time>2011-06-02T15:05:25.000Z</time>
      </trkpt>
      <trkpt lat="43.22799" lon="6.58652">
        <ele>172</ele>
        <time>2011-06-02T15:05:32.000Z</time>
      </trkpt>
      <trkpt lat="43.22812" lon="6.58654">
        <ele>171.80000305176</ele>
        <time>2011-06-02T15:05:37.000Z</time>
      </trkpt>
      <trkpt lat="43.22828" lon="6.58655">
        <ele>171.39999389648</ele>
        <time>2011-06-02T15:05:42.000Z</time>
      </trkpt>
      <trkpt lat="43.2285" lon="6.58653">
        <ele>170.80000305176</ele>
        <time>2011-06-02T15:05:47.000Z</time>
      </trkpt>
      <trkpt lat="43.22878" lon="6.58651">
        <ele>170</ele>
        <time>2011-06-02T15:05:54.000Z</time>
      </trkpt>
      <trkpt lat="43.22899" lon="6.58649">
        <ele>169.39999389648</ele>
        <time>2011-06-02T15:05:59.000Z</time>
      </trkpt>
      <trkpt lat="43.22938" lon="6.58646">
        <ele>168.19999694824</ele>
        <time>2011-06-02T15:06:08.000Z</time>
      </trkpt>
      <trkpt lat="43.22964" lon="6.5864">
        <ele>168.19999694824</ele>
        <time>2011-06-02T15:06:13.000Z</time>
      </trkpt>
      <trkpt lat="43.22999" lon="6.58628">
        <ele>168</ele>
        <time>2011-06-02T15:06:20.000Z</time>
      </trkpt>
      <trkpt lat="43.23009" lon="6.58624">
        <ele>167.80000305176</ele>
        <time>2011-06-02T15:06:22.000Z</time>
      </trkpt>
      <trkpt lat="43.23051" lon="6.58605">
        <ele>168</ele>
        <time>2011-06-02T15:06:30.000Z</time>
      </trkpt>
      <trkpt lat="43.23086" lon="6.58582">
        <ele>168</ele>
        <time>2011-06-02T15:06:38.000Z</time>
      </trkpt>
      <trkpt lat="43.23117" lon="6.58559">
        <ele>168</ele>
        <time>2011-06-02T15:06:46.000Z</time>
      </trkpt>
      <trkpt lat="43.23131" lon="6.58552">
        <ele>167.19999694824</ele>
        <time>2011-06-02T15:06:51.000Z</time>
      </trkpt>
      <trkpt lat="43.23146" lon="6.58546">
        <ele>166.60000610352</ele>
        <time>2011-06-02T15:06:57.000Z</time>
      </trkpt>
      <trkpt lat="43.23162" lon="6.58541">
        <ele>165.60000610352</ele>
        <time>2011-06-02T15:07:01.000Z</time>
      </trkpt>
      <trkpt lat="43.2317" lon="6.58538">
        <ele>164.80000305176</ele>
        <time>2011-06-02T15:07:03.000Z</time>
      </trkpt>
      <trkpt lat="43.23196" lon="6.58541">
        <ele>163.19999694824</ele>
        <time>2011-06-02T15:07:08.000Z</time>
      </trkpt>
      <trkpt lat="43.2321" lon="6.58544">
        <ele>162.80000305176</ele>
        <time>2011-06-02T15:07:11.000Z</time>
      </trkpt>
      <trkpt lat="43.23224" lon="6.58538">
        <ele>162.39999389648</ele>
        <time>2011-06-02T15:07:15.000Z</time>
      </trkpt>
      <trkpt lat="43.23228" lon="6.5853">
        <ele>162</ele>
        <time>2011-06-02T15:07:19.000Z</time>
      </trkpt>
      <trkpt lat="43.2323" lon="6.58525">
        <ele>161</ele>
        <time>2011-06-02T15:07:25.000Z</time>
      </trkpt>
      <trkpt lat="43.23228" lon="6.58524">
        <ele>161</ele>
        <time>2011-06-02T15:07:48.000Z</time>
      </trkpt>
      <trkpt lat="43.23239" lon="6.58519">
        <ele>160.60000610352</ele>
        <time>2011-06-02T15:07:53.000Z</time>
      </trkpt>
      <trkpt lat="43.23271" lon="6.58513">
        <ele>159.60000610352</ele>
        <time>2011-06-02T15:07:58.000Z</time>
      </trkpt>
      <trkpt lat="43.23313" lon="6.58513">
        <ele>156.19999694824</ele>
        <time>2011-06-02T15:08:03.000Z</time>
      </trkpt>
      <trkpt lat="43.23348" lon="6.58513">
        <ele>154</ele>
        <time>2011-06-02T15:08:07.000Z</time>
      </trkpt>
      <trkpt lat="43.2339" lon="6.58525">
        <ele>152.39999389648</ele>
        <time>2011-06-02T15:08:13.000Z</time>
      </trkpt>
      <trkpt lat="43.23403" lon="6.58529">
        <ele>152.19999694824</ele>
        <time>2011-06-02T15:08:15.000Z</time>
      </trkpt>
      <trkpt lat="43.23441" lon="6.58524">
        <ele>152.19999694824</ele>
        <time>2011-06-02T15:08:20.000Z</time>
      </trkpt>
      <trkpt lat="43.23478" lon="6.58523">
        <ele>150.80000305176</ele>
        <time>2011-06-02T15:08:25.000Z</time>
      </trkpt>
      <trkpt lat="43.23485" lon="6.58522">
        <ele>150.39999389648</ele>
        <time>2011-06-02T15:08:26.000Z</time>
      </trkpt>
      <trkpt lat="43.23532" lon="6.58504">
        <ele>148.60000610352</ele>
        <time>2011-06-02T15:08:32.000Z</time>
      </trkpt>
      <trkpt lat="43.23568" lon="6.58482">
        <ele>147</ele>
        <time>2011-06-02T15:08:37.000Z</time>
      </trkpt>
      <trkpt lat="43.23592" lon="6.58466">
        <ele>147.39999389648</ele>
        <time>2011-06-02T15:08:42.000Z</time>
      </trkpt>
      <trkpt lat="43.23613" lon="6.58454">
        <ele>149</ele>
        <time>2011-06-02T15:08:48.000Z</time>
      </trkpt>
      <trkpt lat="43.23632" lon="6.58443">
        <ele>151.39999389648</ele>
        <time>2011-06-02T15:08:54.000Z</time>
      </trkpt>
      <trkpt lat="43.23649" lon="6.58436">
        <ele>153.60000610352</ele>
        <time>2011-06-02T15:09:00.000Z</time>
      </trkpt>
      <trkpt lat="43.23668" lon="6.58431">
        <ele>156.60000610352</ele>
        <time>2011-06-02T15:09:07.000Z</time>
      </trkpt>
      <trkpt lat="43.2369" lon="6.5843">
        <ele>158.60000610352</ele>
        <time>2011-06-02T15:09:14.000Z</time>
      </trkpt>
      <trkpt lat="43.23712" lon="6.58429">
        <ele>161.60000610352</ele>
        <time>2011-06-02T15:09:21.000Z</time>
      </trkpt>
      <trkpt lat="43.23727" lon="6.58424">
        <ele>163.39999389648</ele>
        <time>2011-06-02T15:09:27.000Z</time>
      </trkpt>
      <trkpt lat="43.23738" lon="6.58423">
        <ele>164.19999694824</ele>
        <time>2011-06-02T15:09:32.000Z</time>
      </trkpt>
      <trkpt lat="43.23749" lon="6.58424">
        <ele>164.39999389648</ele>
        <time>2011-06-02T15:09:39.000Z</time>
      </trkpt>
      <trkpt lat="43.23758" lon="6.58426">
        <ele>164</ele>
        <time>2011-06-02T15:09:45.000Z</time>
      </trkpt>
      <trkpt lat="43.23764" lon="6.58424">
        <ele>164</ele>
        <time>2011-06-02T15:11:22.000Z</time>
      </trkpt>
      <trkpt lat="43.23771" lon="6.58426">
        <ele>164</ele>
        <time>2011-06-02T15:11:24.000Z</time>
      </trkpt>
      <trkpt lat="43.23789" lon="6.58439">
        <ele>163.19999694824</ele>
        <time>2011-06-02T15:11:28.000Z</time>
      </trkpt>
      <trkpt lat="43.23812" lon="6.58455">
        <ele>161.60000610352</ele>
        <time>2011-06-02T15:11:32.000Z</time>
      </trkpt>
      <trkpt lat="43.23838" lon="6.58462">
        <ele>158.19999694824</ele>
        <time>2011-06-02T15:11:36.000Z</time>
      </trkpt>
      <trkpt lat="43.23845" lon="6.58465">
        <ele>157.60000610352</ele>
        <time>2011-06-02T15:11:37.000Z</time>
      </trkpt>
      <trkpt lat="43.23881" lon="6.5847">
        <ele>155.39999389648</ele>
        <time>2011-06-02T15:11:42.000Z</time>
      </trkpt>
      <trkpt lat="43.23924" lon="6.58447">
        <ele>152.39999389648</ele>
        <time>2011-06-02T15:11:48.000Z</time>
      </trkpt>
      <trkpt lat="43.23961" lon="6.58428">
        <ele>149.60000610352</ele>
        <time>2011-06-02T15:11:53.000Z</time>
      </trkpt>
      <trkpt lat="43.23998" lon="6.58414">
        <ele>146.80000305176</ele>
        <time>2011-06-02T15:11:58.000Z</time>
      </trkpt>
      <trkpt lat="43.24012" lon="6.58408">
        <ele>145.19999694824</ele>
        <time>2011-06-02T15:12:00.000Z</time>
      </trkpt>
      <trkpt lat="43.24026" lon="6.58404">
        <ele>143.19999694824</ele>
        <time>2011-06-02T15:12:02.000Z</time>
      </trkpt>
      <trkpt lat="43.24059" lon="6.584">
        <ele>140.60000610352</ele>
        <time>2011-06-02T15:12:06.000Z</time>
      </trkpt>
      <trkpt lat="43.24104" lon="6.58397">
        <ele>135.80000305176</ele>
        <time>2011-06-02T15:12:11.000Z</time>
      </trkpt>
      <trkpt lat="43.24136" lon="6.58374">
        <ele>130.80000305176</ele>
        <time>2011-06-02T15:12:15.000Z</time>
      </trkpt>
      <trkpt lat="43.24163" lon="6.58362">
        <ele>127.59999847412</ele>
        <time>2011-06-02T15:12:18.000Z</time>
      </trkpt>
      <trkpt lat="43.24191" lon="6.5836">
        <ele>124.19999694824</ele>
        <time>2011-06-02T15:12:21.000Z</time>
      </trkpt>
      <trkpt lat="43.24242" lon="6.58364">
        <ele>115.40000152588</ele>
        <time>2011-06-02T15:12:27.000Z</time>
      </trkpt>
      <trkpt lat="43.24272" lon="6.58385">
        <ele>112.59999847412</ele>
        <time>2011-06-02T15:12:31.000Z</time>
      </trkpt>
      <trkpt lat="43.24304" lon="6.58405">
        <ele>110.80000305176</ele>
        <time>2011-06-02T15:12:35.000Z</time>
      </trkpt>
      <trkpt lat="43.2433" lon="6.58408">
        <ele>110.40000152588</ele>
        <time>2011-06-02T15:12:38.000Z</time>
      </trkpt>
      <trkpt lat="43.24366" lon="6.58424">
        <ele>110.80000305176</ele>
        <time>2011-06-02T15:12:43.000Z</time>
      </trkpt>
      <trkpt lat="43.24397" lon="6.58428">
        <ele>109</ele>
        <time>2011-06-02T15:12:47.000Z</time>
      </trkpt>
      <trkpt lat="43.24421" lon="6.58431">
        <ele>107.59999847412</ele>
        <time>2011-06-02T15:12:50.000Z</time>
      </trkpt>
      <trkpt lat="43.24436" lon="6.58435">
        <ele>107</ele>
        <time>2011-06-02T15:12:52.000Z</time>
      </trkpt>
      <trkpt lat="43.24451" lon="6.58437">
        <ele>106.59999847412</ele>
        <time>2011-06-02T15:12:54.000Z</time>
      </trkpt>
      <trkpt lat="43.24498" lon="6.58448">
        <ele>104.40000152588</ele>
        <time>2011-06-02T15:13:00.000Z</time>
      </trkpt>
      <trkpt lat="43.24512" lon="6.58451">
        <ele>104</ele>
        <time>2011-06-02T15:13:02.000Z</time>
      </trkpt>
      <trkpt lat="43.24543" lon="6.58452">
        <ele>102.19999694824</ele>
        <time>2011-06-02T15:13:06.000Z</time>
      </trkpt>
      <trkpt lat="43.24569" lon="6.58442">
        <ele>100</ele>
        <time>2011-06-02T15:13:09.000Z</time>
      </trkpt>
      <trkpt lat="43.24607" lon="6.58436">
        <ele>97.599998474121</ele>
        <time>2011-06-02T15:13:14.000Z</time>
      </trkpt>
      <trkpt lat="43.24648" lon="6.5844">
        <ele>97.599998474121</ele>
        <time>2011-06-02T15:13:19.000Z</time>
      </trkpt>
      <trkpt lat="43.24689" lon="6.58445">
        <ele>98.199996948242</ele>
        <time>2011-06-02T15:13:24.000Z</time>
      </trkpt>
      <trkpt lat="43.24729" lon="6.58452">
        <ele>98.800003051758</ele>
        <time>2011-06-02T15:13:29.000Z</time>
      </trkpt>
      <trkpt lat="43.2475" lon="6.58459">
        <ele>99</ele>
        <time>2011-06-02T15:13:32.000Z</time>
      </trkpt>
      <trkpt lat="43.24786" lon="6.58459">
        <ele>100.19999694824</ele>
        <time>2011-06-02T15:13:38.000Z</time>
      </trkpt>
      <trkpt lat="43.24802" lon="6.58464">
        <ele>101</ele>
        <time>2011-06-02T15:13:41.000Z</time>
      </trkpt>
      <trkpt lat="43.24833" lon="6.58492">
        <ele>101</ele>
        <time>2011-06-02T15:13:47.000Z</time>
      </trkpt>
      <trkpt lat="43.24847" lon="6.58513">
        <ele>99.800003051758</ele>
        <time>2011-06-02T15:13:50.000Z</time>
      </trkpt>
      <trkpt lat="43.24861" lon="6.58533">
        <ele>98.199996948242</ele>
        <time>2011-06-02T15:13:53.000Z</time>
      </trkpt>
      <trkpt lat="43.24875" lon="6.58554">
        <ele>96</ele>
        <time>2011-06-02T15:13:56.000Z</time>
      </trkpt>
      <trkpt lat="43.24891" lon="6.58571">
        <ele>93.199996948242</ele>
        <time>2011-06-02T15:13:59.000Z</time>
      </trkpt>
      <trkpt lat="43.24907" lon="6.5859">
        <ele>90.800003051758</ele>
        <time>2011-06-02T15:14:02.000Z</time>
      </trkpt>
      <trkpt lat="43.2493" lon="6.58602">
        <ele>87.400001525879</ele>
        <time>2011-06-02T15:14:06.000Z</time>
      </trkpt>
      <trkpt lat="43.2494" lon="6.58595">
        <ele>85.400001525879</ele>
        <time>2011-06-02T15:14:08.000Z</time>
      </trkpt>
      <trkpt lat="43.24961" lon="6.58574">
        <ele>80</ele>
        <time>2011-06-02T15:14:13.000Z</time>
      </trkpt>
      <trkpt lat="43.24963" lon="6.58569">
        <ele>78.800003051758</ele>
        <time>2011-06-02T15:14:14.000Z</time>
      </trkpt>
      <trkpt lat="43.24968" lon="6.58559">
        <ele>76.199996948242</ele>
        <time>2011-06-02T15:14:16.000Z</time>
      </trkpt>
      <trkpt lat="43.24983" lon="6.5856">
        <ele>72.199996948242</ele>
        <time>2011-06-02T15:14:20.000Z</time>
      </trkpt>
      <trkpt lat="43.24993" lon="6.58576">
        <ele>70</ele>
        <time>2011-06-02T15:14:23.000Z</time>
      </trkpt>
      <trkpt lat="43.24998" lon="6.58591">
        <ele>68.400001525879</ele>
        <time>2011-06-02T15:14:25.000Z</time>
      </trkpt>
      <trkpt lat="43.25002" lon="6.58605">
        <ele>67</ele>
        <time>2011-06-02T15:14:27.000Z</time>
      </trkpt>
      <trkpt lat="43.25011" lon="6.58623">
        <ele>64.599998474121</ele>
        <time>2011-06-02T15:14:30.000Z</time>
      </trkpt>
      <trkpt lat="43.25033" lon="6.58631">
        <ele>61.200000762939</ele>
        <time>2011-06-02T15:14:34.000Z</time>
      </trkpt>
      <trkpt lat="43.25047" lon="6.58617">
        <ele>58.599998474121</ele>
        <time>2011-06-02T15:14:37.000Z</time>
      </trkpt>
      <trkpt lat="43.25055" lon="6.586">
        <ele>55</ele>
        <time>2011-06-02T15:14:42.000Z</time>
      </trkpt>
      <trkpt lat="43.2506" lon="6.5859">
        <ele>52</ele>
        <time>2011-06-02T15:14:49.000Z</time>
      </trkpt>
      <trkpt lat="43.25065" lon="6.58583">
        <ele>50.599998474121</ele>
        <time>2011-06-02T15:14:54.000Z</time>
      </trkpt>
      <trkpt lat="43.25076" lon="6.58578">
        <ele>49.200000762939</ele>
        <time>2011-06-02T15:14:58.000Z</time>
      </trkpt>
      <trkpt lat="43.25099" lon="6.58587">
        <ele>47.400001525879</ele>
        <time>2011-06-02T15:15:03.000Z</time>
      </trkpt>
      <trkpt lat="43.25119" lon="6.58595">
        <ele>46.200000762939</ele>
        <time>2011-06-02T15:15:07.000Z</time>
      </trkpt>
      <trkpt lat="43.2515" lon="6.58614">
        <ele>43.400001525879</ele>
        <time>2011-06-02T15:15:12.000Z</time>
      </trkpt>
      <trkpt lat="43.25163" lon="6.58622">
        <ele>41.799999237061</ele>
        <time>2011-06-02T15:15:14.000Z</time>
      </trkpt>
      <trkpt lat="43.2518" lon="6.58645">
        <ele>38.200000762939</ele>
        <time>2011-06-02T15:15:18.000Z</time>
      </trkpt>
      <trkpt lat="43.25184" lon="6.58676">
        <ele>35.599998474121</ele>
        <time>2011-06-02T15:15:22.000Z</time>
      </trkpt>
      <trkpt lat="43.25185" lon="6.58683">
        <ele>35</ele>
        <time>2011-06-02T15:15:23.000Z</time>
      </trkpt>
      <trkpt lat="43.25186" lon="6.58698">
        <ele>33.799999237061</ele>
        <time>2011-06-02T15:15:25.000Z</time>
      </trkpt>
      <trkpt lat="43.25192" lon="6.58712">
        <ele>32</ele>
        <time>2011-06-02T15:15:29.000Z</time>
      </trkpt>
      <trkpt lat="43.25204" lon="6.58704">
        <ele>30.200000762939</ele>
        <time>2011-06-02T15:15:33.000Z</time>
      </trkpt>
      <trkpt lat="43.25206" lon="6.58701">
        <ele>30</ele>
        <time>2011-06-02T15:15:34.000Z</time>
      </trkpt>
      <trkpt lat="43.25219" lon="6.5868">
        <ele>29.39999961853</ele>
        <time>2011-06-02T15:15:38.000Z</time>
      </trkpt>
      <trkpt lat="43.25245" lon="6.58657">
        <ele>27.200000762939</ele>
        <time>2011-06-02T15:15:43.000Z</time>
      </trkpt>
      <trkpt lat="43.25276" lon="6.58647">
        <ele>25</ele>
        <time>2011-06-02T15:15:47.000Z</time>
      </trkpt>
      <trkpt lat="43.25299" lon="6.58631">
        <ele>23.200000762939</ele>
        <time>2011-06-02T15:15:50.000Z</time>
      </trkpt>
      <trkpt lat="43.25332" lon="6.58611">
        <ele>21.200000762939</ele>
        <time>2011-06-02T15:15:54.000Z</time>
      </trkpt>
      <trkpt lat="43.25358" lon="6.58592">
        <ele>18.799999237061</ele>
        <time>2011-06-02T15:15:57.000Z</time>
      </trkpt>
      <trkpt lat="43.25393" lon="6.58578">
        <ele>16.60000038147</ele>
        <time>2011-06-02T15:16:01.000Z</time>
      </trkpt>
      <trkpt lat="43.25421" lon="6.58556">
        <ele>13.800000190735</ele>
        <time>2011-06-02T15:16:05.000Z</time>
      </trkpt>
      <trkpt lat="43.25434" lon="6.58539">
        <ele>10.199999809265</ele>
        <time>2011-06-02T15:16:10.000Z</time>
      </trkpt>
      <trkpt lat="43.25435" lon="6.58537">
        <ele>10</ele>
        <time>2011-06-02T15:16:11.000Z</time>
      </trkpt>
      <trkpt lat="43.25434" lon="6.58541">
        <ele>10</ele>
        <time>2011-06-02T15:16:15.000Z</time>
      </trkpt>
      <trkpt lat="43.25429" lon="6.58539">
        <ele>10</ele>
        <time>2011-06-02T15:16:19.000Z</time>
      </trkpt>
      <trkpt lat="43.25432" lon="6.58542">
        <ele>10</ele>
        <time>2011-06-02T15:18:37.000Z</time>
      </trkpt>
      <trkpt lat="43.25435" lon="6.58543">
        <ele>10.199999809265</ele>
        <time>2011-06-02T15:18:46.000Z</time>
      </trkpt>
      <trkpt lat="43.25436" lon="6.58533">
        <ele>10.39999961853</ele>
        <time>2011-06-02T15:18:51.000Z</time>
      </trkpt>
      <trkpt lat="43.25437" lon="6.5853">
        <ele>10.39999961853</ele>
        <time>2011-06-02T15:18:52.000Z</time>
      </trkpt>
      <trkpt lat="43.25446" lon="6.58498">
        <ele>10.199999809265</ele>
        <time>2011-06-02T15:18:58.000Z</time>
      </trkpt>
      <trkpt lat="43.25448" lon="6.58491">
        <ele>10.199999809265</ele>
        <time>2011-06-02T15:18:59.000Z</time>
      </trkpt>
      <trkpt lat="43.25463" lon="6.58471">
        <ele>9.3999996185303</ele>
        <time>2011-06-02T15:19:03.000Z</time>
      </trkpt>
      <trkpt lat="43.25471" lon="6.58463">
        <ele>8.1999998092651</ele>
        <time>2011-06-02T15:19:07.000Z</time>
      </trkpt>
      <trkpt lat="43.25472" lon="6.58462">
        <ele>7.8000001907349</ele>
        <time>2011-06-02T15:19:08.000Z</time>
      </trkpt>
      <trkpt lat="43.25478" lon="6.58452">
        <ele>7.1999998092651</ele>
        <time>2011-06-02T15:19:12.000Z</time>
      </trkpt>
      <trkpt lat="43.25493" lon="6.58439">
        <ele>7.5999999046326</ele>
        <time>2011-06-02T15:19:18.000Z</time>
      </trkpt>
      <trkpt lat="43.25496" lon="6.58434">
        <ele>7.8000001907349</ele>
        <time>2011-06-02T15:19:19.000Z</time>
      </trkpt>
      <trkpt lat="43.25513" lon="6.58408">
        <ele>8.1999998092651</ele>
        <time>2011-06-02T15:19:26.000Z</time>
      </trkpt>
      <trkpt lat="43.25541" lon="6.58362">
        <ele>8.6000003814697</ele>
        <time>2011-06-02T15:19:37.000Z</time>
      </trkpt>
      <trkpt lat="43.25558" lon="6.58336">
        <ele>8.6000003814697</ele>
        <time>2011-06-02T15:19:45.000Z</time>
      </trkpt>
      <trkpt lat="43.25577" lon="6.58317">
        <ele>8.8000001907349</ele>
        <time>2011-06-02T15:19:52.000Z</time>
      </trkpt>
      <trkpt lat="43.25613" lon="6.58288">
        <ele>8.8000001907349</ele>
        <time>2011-06-02T15:20:02.000Z</time>
      </trkpt>
      <trkpt lat="43.25659" lon="6.58252">
        <ele>8.6000003814697</ele>
        <time>2011-06-02T15:20:13.000Z</time>
      </trkpt>
      <trkpt lat="43.25704" lon="6.58212">
        <ele>8.1999998092651</ele>
        <time>2011-06-02T15:20:24.000Z</time>
      </trkpt>
      <trkpt lat="43.25736" lon="6.58181">
        <ele>9</ele>
        <time>2011-06-02T15:20:32.000Z</time>
      </trkpt>
      <trkpt lat="43.25753" lon="6.58171">
        <ele>8.8000001907349</ele>
        <time>2011-06-02T15:20:36.000Z</time>
      </trkpt>
      <trkpt lat="43.25767" lon="6.58167">
        <ele>8.8000001907349</ele>
        <time>2011-06-02T15:20:39.000Z</time>
      </trkpt>
      <trkpt lat="43.25787" lon="6.58174">
        <ele>9</ele>
        <time>2011-06-02T15:20:43.000Z</time>
      </trkpt>
      <trkpt lat="43.25792" lon="6.58179">
        <ele>9</ele>
        <time>2011-06-02T15:20:44.000Z</time>
      </trkpt>
      <trkpt lat="43.25837" lon="6.58211">
        <ele>8.6000003814697</ele>
        <time>2011-06-02T15:20:53.000Z</time>
      </trkpt>
      <trkpt lat="43.25857" lon="6.58207">
        <ele>8.8000001907349</ele>
        <time>2011-06-02T15:20:57.000Z</time>
      </trkpt>
      <trkpt lat="43.25862" lon="6.58194">
        <ele>8.6000003814697</ele>
        <time>2011-06-02T15:20:59.000Z</time>
      </trkpt>
      <trkpt lat="43.25871" lon="6.58168">
        <ele>8.3999996185303</ele>
        <time>2011-06-02T15:21:03.000Z</time>
      </trkpt>
      <trkpt lat="43.25885" lon="6.58151">
        <ele>8.8000001907349</ele>
        <time>2011-06-02T15:21:07.000Z</time>
      </trkpt>
      <trkpt lat="43.25899" lon="6.58159">
        <ele>9.1999998092651</ele>
        <time>2011-06-02T15:21:10.000Z</time>
      </trkpt>
      <trkpt lat="43.25915" lon="6.58169">
        <ele>9.1999998092651</ele>
        <time>2011-06-02T15:21:13.000Z</time>
      </trkpt>
      <trkpt lat="43.25931" lon="6.58175">
        <ele>9.3999996185303</ele>
        <time>2011-06-02T15:21:16.000Z</time>
      </trkpt>
      <trkpt lat="43.25947" lon="6.58185">
        <ele>9.1999998092651</ele>
        <time>2011-06-02T15:21:19.000Z</time>
      </trkpt>
      <trkpt lat="43.25971" lon="6.58215">
        <ele>8.8000001907349</ele>
        <time>2011-06-02T15:21:25.000Z</time>
      </trkpt>
      <trkpt lat="43.25987" lon="6.58244">
        <ele>8.6000003814697</ele>
        <time>2011-06-02T15:21:30.000Z</time>
      </trkpt>
      <trkpt lat="43.26009" lon="6.58264">
        <ele>8.8000001907349</ele>
        <time>2011-06-02T15:21:35.000Z</time>
      </trkpt>
      <trkpt lat="43.26048" lon="6.58282">
        <ele>8.3999996185303</ele>
        <time>2011-06-02T15:21:43.000Z</time>
      </trkpt>
      <trkpt lat="43.26083" lon="6.58299">
        <ele>8.6000003814697</ele>
        <time>2011-06-02T15:21:50.000Z</time>
      </trkpt>
      <trkpt lat="43.26121" lon="6.58318">
        <ele>8.6000003814697</ele>
        <time>2011-06-02T15:21:57.000Z</time>
      </trkpt>
      <trkpt lat="43.26159" lon="6.58339">
        <ele>7.8000001907349</ele>
        <time>2011-06-02T15:22:05.000Z</time>
      </trkpt>
      <trkpt lat="43.26203" lon="6.58361">
        <ele>8</ele>
        <time>2011-06-02T15:22:13.000Z</time>
      </trkpt>
      <trkpt lat="43.26231" lon="6.58376">
        <ele>7.4000000953674</ele>
        <time>2011-06-02T15:22:19.000Z</time>
      </trkpt>
      <trkpt lat="43.26252" lon="6.58386">
        <ele>7.5999999046326</ele>
        <time>2011-06-02T15:22:25.000Z</time>
      </trkpt>
      <trkpt lat="43.26255" lon="6.58388">
        <ele>8</ele>
        <time>2011-06-02T15:22:27.000Z</time>
      </trkpt>
      <trkpt lat="43.2626" lon="6.5838">
        <ele>9</ele>
        <time>2011-06-02T15:22:33.000Z</time>
      </trkpt>
      <trkpt lat="43.26261" lon="6.58377">
        <ele>9</ele>
        <time>2011-06-02T15:22:34.000Z</time>
      </trkpt>
      <trkpt lat="43.26263" lon="6.58372">
        <ele>9.1999998092651</ele>
        <time>2011-06-02T15:22:36.000Z</time>
      </trkpt>
      <trkpt lat="43.26275" lon="6.58366">
        <ele>9</ele>
        <time>2011-06-02T15:22:41.000Z</time>
      </trkpt>
      <trkpt lat="43.2628" lon="6.58362">
        <ele>8.6000003814697</ele>
        <time>2011-06-02T15:22:45.000Z</time>
      </trkpt>
      <trkpt lat="43.26283" lon="6.58368">
        <ele>8.6000003814697</ele>
        <time>2011-06-02T15:22:49.000Z</time>
      </trkpt>
      <trkpt lat="43.26293" lon="6.58379">
        <ele>8.6000003814697</ele>
        <time>2011-06-02T15:22:54.000Z</time>
      </trkpt>
      <trkpt lat="43.26319" lon="6.58391">
        <ele>8.1999998092651</ele>
        <time>2011-06-02T15:23:02.000Z</time>
      </trkpt>
      <trkpt lat="43.26344" lon="6.584">
        <ele>7.8000001907349</ele>
        <time>2011-06-02T15:23:09.000Z</time>
      </trkpt>
      <trkpt lat="43.26354" lon="6.58402">
        <ele>7.1999998092651</ele>
        <time>2011-06-02T15:23:14.000Z</time>
      </trkpt>
      <trkpt lat="43.26356" lon="6.58402">
        <ele>7</ele>
        <time>2011-06-02T15:23:20.000Z</time>
      </trkpt>
      <trkpt lat="43.26361" lon="6.584">
        <ele>6.8000001907349</ele>
        <time>2011-06-02T15:23:38.000Z</time>
      </trkpt>
      <trkpt lat="43.26365" lon="6.58395">
        <ele>6.8000001907349</ele>
        <time>2011-06-02T15:23:42.000Z</time>
      </trkpt>
      <trkpt lat="43.26382" lon="6.58381">
        <ele>6.8000001907349</ele>
        <time>2011-06-02T15:23:49.000Z</time>
      </trkpt>
      <trkpt lat="43.26395" lon="6.58367">
        <ele>6.4000000953674</ele>
        <time>2011-06-02T15:23:55.000Z</time>
      </trkpt>
      <trkpt lat="43.26409" lon="6.58352">
        <ele>6.4000000953674</ele>
        <time>2011-06-02T15:24:01.000Z</time>
      </trkpt>
      <trkpt lat="43.26422" lon="6.58339">
        <ele>6.5999999046326</ele>
        <time>2011-06-02T15:24:06.000Z</time>
      </trkpt>
      <trkpt lat="43.26436" lon="6.5833">
        <ele>6.4000000953674</ele>
        <time>2011-06-02T15:24:11.000Z</time>
      </trkpt>
      <trkpt lat="43.26452" lon="6.58331">
        <ele>6.4000000953674</ele>
        <time>2011-06-02T15:24:17.000Z</time>
      </trkpt>
      <trkpt lat="43.26465" lon="6.58326">
        <ele>6.4000000953674</ele>
        <time>2011-06-02T15:24:22.000Z</time>
      </trkpt>
      <trkpt lat="43.26469" lon="6.58326">
        <ele>6.4000000953674</ele>
        <time>2011-06-02T15:24:24.000Z</time>
      </trkpt>
    </trkseg>
  </trk>
</gpx>